<?xml version="1.0" encoding="utf-8"?>
<gpx xmlns:xsi="http://www.w3.org/2001/XMLSchema-instance" xmlns:xsd="http://www.w3.org/2001/XMLSchema" version="1.1" creator="Shapelink.com" xmlns="http://www.topografix.com/GPX/1/1" xmlns:gpxtpx="http://www.garmin.com/xmlschemas/TrackPointExtension/v1">
  <metadata>
    <name>Löpning 7.95 km, 2018-02-20</name>
    <desc></desc>
    <author><name>Bengt-Åke Forslund</name></author> 
    <time>2018-02-20T19:07:17Z</time>
  </metadata>
  <trk>
    <name>Löpning 7.95 km, 2018-02-20</name>
    <trkseg>
      <trkpt lat="62.635811792875" lon="17.967676036114">
        <ele>49.8</ele>
        <time>2018-02-20T19:07:17Z</time>
      </trkpt>
      <trkpt lat="62.635923188326" lon="17.968011731209">
        <ele>50</ele>
        <time>2018-02-20T19:07:26Z</time>
      </trkpt>
      <trkpt lat="62.635937437556" lon="17.968036206357">
        <ele>50</ele>
        <time>2018-02-20T19:07:27Z</time>
      </trkpt>
      <trkpt lat="62.635949172216" lon="17.968073505812">
        <ele>50</ele>
        <time>2018-02-20T19:07:28Z</time>
      </trkpt>
      <trkpt lat="62.635964427274" lon="17.968127233791">
        <ele>50</ele>
        <time>2018-02-20T19:07:29Z</time>
      </trkpt>
      <trkpt lat="62.635973312088" lon="17.968162856866">
        <ele>49.8</ele>
        <time>2018-02-20T19:07:30Z</time>
      </trkpt>
      <trkpt lat="62.635990327345" lon="17.968190852412">
        <ele>50</ele>
        <time>2018-02-20T19:07:31Z</time>
      </trkpt>
      <trkpt lat="62.636002145824" lon="17.968236617586">
        <ele>50</ele>
        <time>2018-02-20T19:07:32Z</time>
      </trkpt>
      <trkpt lat="62.636014048122" lon="17.96827903">
        <ele>50</ele>
        <time>2018-02-20T19:07:33Z</time>
      </trkpt>
      <trkpt lat="62.636026537153" lon="17.968306103537">
        <ele>50.2</ele>
        <time>2018-02-20T19:07:34Z</time>
      </trkpt>
      <trkpt lat="62.636045061152" lon="17.968338373852">
        <ele>50.2</ele>
        <time>2018-02-20T19:07:35Z</time>
      </trkpt>
      <trkpt lat="62.636059980934" lon="17.968365950303">
        <ele>50.4</ele>
        <time>2018-02-20T19:07:36Z</time>
      </trkpt>
      <trkpt lat="62.636072972879" lon="17.968395706048">
        <ele>50.4</ele>
        <time>2018-02-20T19:07:37Z</time>
      </trkpt>
      <trkpt lat="62.636092670344" lon="17.968431412942">
        <ele>50.4</ele>
        <time>2018-02-20T19:07:38Z</time>
      </trkpt>
      <trkpt lat="62.636104991737" lon="17.968438118462">
        <ele>50.8</ele>
        <time>2018-02-20T19:07:39Z</time>
      </trkpt>
      <trkpt lat="62.63612066589" lon="17.968442393231">
        <ele>51</ele>
        <time>2018-02-20T19:07:40Z</time>
      </trkpt>
      <trkpt lat="62.636151930377" lon="17.968451361864">
        <ele>51.2</ele>
        <time>2018-02-20T19:07:41Z</time>
      </trkpt>
      <trkpt lat="62.636170873471" lon="17.968466365465">
        <ele>51.2</ele>
        <time>2018-02-20T19:07:42Z</time>
      </trkpt>
      <trkpt lat="62.636186631443" lon="17.968466533103">
        <ele>51.4</ele>
        <time>2018-02-20T19:07:43Z</time>
      </trkpt>
      <trkpt lat="62.636223008889" lon="17.9684969594">
        <ele>51.2</ele>
        <time>2018-02-20T19:07:44Z</time>
      </trkpt>
      <trkpt lat="62.636250501521" lon="17.968516153951">
        <ele>51.4</ele>
        <time>2018-02-20T19:07:45Z</time>
      </trkpt>
      <trkpt lat="62.636272629737" lon="17.968532498656">
        <ele>51</ele>
        <time>2018-02-20T19:07:46Z</time>
      </trkpt>
      <trkpt lat="62.636300709102" lon="17.968555045967">
        <ele>51</ele>
        <time>2018-02-20T19:07:47Z</time>
      </trkpt>
      <trkpt lat="62.636324010784" lon="17.968584717893">
        <ele>50.8</ele>
        <time>2018-02-20T19:07:48Z</time>
      </trkpt>
      <trkpt lat="62.636353263615" lon="17.968615647104">
        <ele>50.8</ele>
        <time>2018-02-20T19:07:49Z</time>
      </trkpt>
      <trkpt lat="62.636382516446" lon="17.968673566033">
        <ele>50.6</ele>
        <time>2018-02-20T19:07:50Z</time>
      </trkpt>
      <trkpt lat="62.636393748192" lon="17.968691000385">
        <ele>50.6</ele>
        <time>2018-02-20T19:07:51Z</time>
      </trkpt>
      <trkpt lat="62.636410847268" lon="17.968729557125">
        <ele>50.6</ele>
        <time>2018-02-20T19:07:52Z</time>
      </trkpt>
      <trkpt lat="62.636439932461" lon="17.968796612325">
        <ele>50.6</ele>
        <time>2018-02-20T19:07:53Z</time>
      </trkpt>
      <trkpt lat="62.636459713745" lon="17.968813711401">
        <ele>50.6</ele>
        <time>2018-02-20T19:07:54Z</time>
      </trkpt>
      <trkpt lat="62.636480333219" lon="17.968861991145">
        <ele>50.4</ele>
        <time>2018-02-20T19:07:55Z</time>
      </trkpt>
      <trkpt lat="62.636499276313" lon="17.96892108354">
        <ele>50.6</ele>
        <time>2018-02-20T19:07:56Z</time>
      </trkpt>
      <trkpt lat="62.636519141416" lon="17.968933153476">
        <ele>50.6</ele>
        <time>2018-02-20T19:07:57Z</time>
      </trkpt>
      <trkpt lat="62.636539677071" lon="17.968957293348">
        <ele>50.6</ele>
        <time>2018-02-20T19:07:58Z</time>
      </trkpt>
      <trkpt lat="62.636566750608" lon="17.96906944317">
        <ele>50.8</ele>
        <time>2018-02-20T19:08:00Z</time>
      </trkpt>
      <trkpt lat="62.636598518009" lon="17.969136414551">
        <ele>51</ele>
        <time>2018-02-20T19:08:01Z</time>
      </trkpt>
      <trkpt lat="62.636610671764" lon="17.969177653499">
        <ele>51</ele>
        <time>2018-02-20T19:08:02Z</time>
      </trkpt>
      <trkpt lat="62.636618466931" lon="17.969231549116">
        <ele>51</ele>
        <time>2018-02-20T19:08:03Z</time>
      </trkpt>
      <trkpt lat="62.636634727817" lon="17.969289132769">
        <ele>51</ele>
        <time>2018-02-20T19:08:04Z</time>
      </trkpt>
      <trkpt lat="62.636644450821" lon="17.969336574323">
        <ele>51</ele>
        <time>2018-02-20T19:08:05Z</time>
      </trkpt>
      <trkpt lat="62.636664567381" lon="17.969400947315">
        <ele>51</ele>
        <time>2018-02-20T19:08:06Z</time>
      </trkpt>
      <trkpt lat="62.636677307869" lon="17.969423829902">
        <ele>51</ele>
        <time>2018-02-20T19:08:07Z</time>
      </trkpt>
      <trkpt lat="62.636689461624" lon="17.969484179582">
        <ele>51</ele>
        <time>2018-02-20T19:08:08Z</time>
      </trkpt>
      <trkpt lat="62.63670488432" lon="17.969533046059">
        <ele>51.2</ele>
        <time>2018-02-20T19:08:09Z</time>
      </trkpt>
      <trkpt lat="62.636713601496" lon="17.969570010238">
        <ele>51</ele>
        <time>2018-02-20T19:08:10Z</time>
      </trkpt>
      <trkpt lat="62.636718211541" lon="17.969624492588">
        <ele>51</ele>
        <time>2018-02-20T19:08:11Z</time>
      </trkpt>
      <trkpt lat="62.636735142979" lon="17.969680818956">
        <ele>51</ele>
        <time>2018-02-20T19:08:12Z</time>
      </trkpt>
      <trkpt lat="62.636752158236" lon="17.969707389579">
        <ele>51.2</ele>
        <time>2018-02-20T19:08:13Z</time>
      </trkpt>
      <trkpt lat="62.636758696118" lon="17.969761033739">
        <ele>51.2</ele>
        <time>2018-02-20T19:08:14Z</time>
      </trkpt>
      <trkpt lat="62.636773029167" lon="17.969819455582">
        <ele>51.2</ele>
        <time>2018-02-20T19:08:15Z</time>
      </trkpt>
      <trkpt lat="62.63678367418" lon="17.969828508034">
        <ele>51.4</ele>
        <time>2018-02-20T19:08:16Z</time>
      </trkpt>
      <trkpt lat="62.636798342505" lon="17.969903106944">
        <ele>51.6</ele>
        <time>2018-02-20T19:08:17Z</time>
      </trkpt>
      <trkpt lat="62.636819213436" lon="17.969953985077">
        <ele>51.6</ele>
        <time>2018-02-20T19:08:18Z</time>
      </trkpt>
      <trkpt lat="62.636829942268" lon="17.969980471881">
        <ele>51.6</ele>
        <time>2018-02-20T19:08:19Z</time>
      </trkpt>
      <trkpt lat="62.636853076312" lon="17.970033445489">
        <ele>51.6</ele>
        <time>2018-02-20T19:08:20Z</time>
      </trkpt>
      <trkpt lat="62.636874114881" lon="17.970056663352">
        <ele>51.8</ele>
        <time>2018-02-20T19:08:21Z</time>
      </trkpt>
      <trkpt lat="62.636886520093" lon="17.970080970862">
        <ele>51.6</ele>
        <time>2018-02-20T19:08:22Z</time>
      </trkpt>
      <trkpt lat="62.636910576146" lon="17.97012975352">
        <ele>51.8</ele>
        <time>2018-02-20T19:08:23Z</time>
      </trkpt>
      <trkpt lat="62.636932955819" lon="17.970150456813">
        <ele>51.8</ele>
        <time>2018-02-20T19:08:24Z</time>
      </trkpt>
      <trkpt lat="62.636958352976" lon="17.970182978585">
        <ele>51.8</ele>
        <time>2018-02-20T19:08:25Z</time>
      </trkpt>
      <trkpt lat="62.636981570839" lon="17.970204017154">
        <ele>51.8</ele>
        <time>2018-02-20T19:08:26Z</time>
      </trkpt>
      <trkpt lat="62.637006548901" lon="17.970221619144">
        <ele>52</ele>
        <time>2018-02-20T19:08:27Z</time>
      </trkpt>
      <trkpt lat="62.637035801732" lon="17.970232683252">
        <ele>52</ele>
        <time>2018-02-20T19:08:28Z</time>
      </trkpt>
      <trkpt lat="62.637070083703" lon="17.970243998817">
        <ele>52</ele>
        <time>2018-02-20T19:08:29Z</time>
      </trkpt>
      <trkpt lat="62.637113166669" lon="17.970242322437">
        <ele>52.2</ele>
        <time>2018-02-20T19:08:30Z</time>
      </trkpt>
      <trkpt lat="62.637138480007" lon="17.970231509786">
        <ele>52.2</ele>
        <time>2018-02-20T19:08:31Z</time>
      </trkpt>
      <trkpt lat="62.637178377851" lon="17.970218769298">
        <ele>52.2</ele>
        <time>2018-02-20T19:08:32Z</time>
      </trkpt>
      <trkpt lat="62.637207463044" lon="17.97019177958">
        <ele>52.2</ele>
        <time>2018-02-20T19:08:33Z</time>
      </trkpt>
      <trkpt lat="62.637252390028" lon="17.970181637481">
        <ele>52</ele>
        <time>2018-02-20T19:08:34Z</time>
      </trkpt>
      <trkpt lat="62.637295305356" lon="17.970162945844">
        <ele>51.6</ele>
        <time>2018-02-20T19:08:35Z</time>
      </trkpt>
      <trkpt lat="62.637340735254" lon="17.970138722153">
        <ele>51.2</ele>
        <time>2018-02-20T19:08:36Z</time>
      </trkpt>
      <trkpt lat="62.63737795089" lon="17.970132184271">
        <ele>50.6</ele>
        <time>2018-02-20T19:08:37Z</time>
      </trkpt>
      <trkpt lat="62.637411227033" lon="17.970100165413">
        <ele>50.2</ele>
        <time>2018-02-20T19:08:38Z</time>
      </trkpt>
      <trkpt lat="62.637456656931" lon="17.970088179296">
        <ele>49.8</ele>
        <time>2018-02-20T19:08:39Z</time>
      </trkpt>
      <trkpt lat="62.637485825943" lon="17.970071415496">
        <ele>49.6</ele>
        <time>2018-02-20T19:08:40Z</time>
      </trkpt>
      <trkpt lat="62.63752631052" lon="17.970072672781">
        <ele>49.4</ele>
        <time>2018-02-20T19:08:41Z</time>
      </trkpt>
      <trkpt lat="62.637562436509" lon="17.970094884816">
        <ele>49.4</ele>
        <time>2018-02-20T19:08:42Z</time>
      </trkpt>
      <trkpt lat="62.637596634661" lon="17.97011298972">
        <ele>49.2</ele>
        <time>2018-02-20T19:08:43Z</time>
      </trkpt>
      <trkpt lat="62.637627312415" lon="17.970151378822">
        <ele>49.4</ele>
        <time>2018-02-20T19:08:44Z</time>
      </trkpt>
      <trkpt lat="62.637656146151" lon="17.970200580575">
        <ele>49.6</ele>
        <time>2018-02-20T19:08:45Z</time>
      </trkpt>
      <trkpt lat="62.637676514168" lon="17.970262941911">
        <ele>49.4</ele>
        <time>2018-02-20T19:08:46Z</time>
      </trkpt>
      <trkpt lat="62.637702833334" lon="17.970311054017">
        <ele>49.2</ele>
        <time>2018-02-20T19:08:47Z</time>
      </trkpt>
      <trkpt lat="62.637723201351" lon="17.970378947407">
        <ele>49.2</ele>
        <time>2018-02-20T19:08:48Z</time>
      </trkpt>
      <trkpt lat="62.637753208553" lon="17.970432088653">
        <ele>49.2</ele>
        <time>2018-02-20T19:08:49Z</time>
      </trkpt>
      <trkpt lat="62.637762093367" lon="17.97046922047">
        <ele>49</ele>
        <time>2018-02-20T19:08:50Z</time>
      </trkpt>
      <trkpt lat="62.637780030633" lon="17.970548261787">
        <ele>49</ele>
        <time>2018-02-20T19:08:51Z</time>
      </trkpt>
      <trkpt lat="62.637790843284" lon="17.970593356409">
        <ele>49</ele>
        <time>2018-02-20T19:08:52Z</time>
      </trkpt>
      <trkpt lat="62.637798303175" lon="17.970628728027">
        <ele>48.8</ele>
        <time>2018-02-20T19:08:53Z</time>
      </trkpt>
      <trkpt lat="62.637802661763" lon="17.970711122104">
        <ele>48.8</ele>
        <time>2018-02-20T19:08:54Z</time>
      </trkpt>
      <trkpt lat="62.637813390595" lon="17.970751941957">
        <ele>48.8</ele>
        <time>2018-02-20T19:08:55Z</time>
      </trkpt>
      <trkpt lat="62.637812384767" lon="17.970778596399">
        <ele>48.8</ele>
        <time>2018-02-20T19:08:56Z</time>
      </trkpt>
      <trkpt lat="62.63781883883" lon="17.970838526984">
        <ele>49</ele>
        <time>2018-02-20T19:08:57Z</time>
      </trkpt>
      <trkpt lat="62.637832417508" lon="17.970885968538">
        <ele>49</ele>
        <time>2018-02-20T19:08:58Z</time>
      </trkpt>
      <trkpt lat="62.637840967046" lon="17.970911281876">
        <ele>49</ele>
        <time>2018-02-20T19:08:59Z</time>
      </trkpt>
      <trkpt lat="62.63785655738" lon="17.970983366216">
        <ele>49</ele>
        <time>2018-02-20T19:09:00Z</time>
      </trkpt>
      <trkpt lat="62.637871980076" lon="17.971035082539">
        <ele>49</ele>
        <time>2018-02-20T19:09:01Z</time>
      </trkpt>
      <trkpt lat="62.637884552926" lon="17.971096857142">
        <ele>49.2</ele>
        <time>2018-02-20T19:09:02Z</time>
      </trkpt>
      <trkpt lat="62.637897461052" lon="17.971142622316">
        <ele>49.2</ele>
        <time>2018-02-20T19:09:03Z</time>
      </trkpt>
      <trkpt lat="62.637905842952" lon="17.97119676939">
        <ele>49.2</ele>
        <time>2018-02-20T19:09:04Z</time>
      </trkpt>
      <trkpt lat="62.637918080526" lon="17.97125292812">
        <ele>49.2</ele>
        <time>2018-02-20T19:09:05Z</time>
      </trkpt>
      <trkpt lat="62.637928725539" lon="17.971289724661">
        <ele>49.4</ele>
        <time>2018-02-20T19:09:06Z</time>
      </trkpt>
      <trkpt lat="62.637937191258" lon="17.971340351337">
        <ele>49.4</ele>
        <time>2018-02-20T19:09:07Z</time>
      </trkpt>
      <trkpt lat="62.637944064416" lon="17.971392486755">
        <ele>49.4</ele>
        <time>2018-02-20T19:09:08Z</time>
      </trkpt>
      <trkpt lat="62.637952530135" lon="17.971430456762">
        <ele>49.6</ele>
        <time>2018-02-20T19:09:09Z</time>
      </trkpt>
      <trkpt lat="62.637961414949" lon="17.971471947167">
        <ele>49.6</ele>
        <time>2018-02-20T19:09:10Z</time>
      </trkpt>
      <trkpt lat="62.637969126297" lon="17.971526932431">
        <ele>49.8</ele>
        <time>2018-02-20T19:09:11Z</time>
      </trkpt>
      <trkpt lat="62.637978597844" lon="17.971574122528">
        <ele>49.8</ele>
        <time>2018-02-20T19:09:12Z</time>
      </trkpt>
      <trkpt lat="62.637983543165" lon="17.971619971521">
        <ele>50</ele>
        <time>2018-02-20T19:09:13Z</time>
      </trkpt>
      <trkpt lat="62.637989326676" lon="17.971681410848">
        <ele>50</ele>
        <time>2018-02-20T19:09:14Z</time>
      </trkpt>
      <trkpt lat="62.637993098531" lon="17.971718794122">
        <ele>50</ele>
        <time>2018-02-20T19:09:15Z</time>
      </trkpt>
      <trkpt lat="62.637998965861" lon="17.971785933141">
        <ele>50.2</ele>
        <time>2018-02-20T19:09:16Z</time>
      </trkpt>
      <trkpt lat="62.638004665553" lon="17.971838906749">
        <ele>50.2</ele>
        <time>2018-02-20T19:09:17Z</time>
      </trkpt>
      <trkpt lat="62.638002737716" lon="17.971899507886">
        <ele>50.2</ele>
        <time>2018-02-20T19:09:18Z</time>
      </trkpt>
      <trkpt lat="62.638003156811" lon="17.971961785403">
        <ele>50.2</ele>
        <time>2018-02-20T19:09:19Z</time>
      </trkpt>
      <trkpt lat="62.638003324449" lon="17.972008472586">
        <ele>50.2</ele>
        <time>2018-02-20T19:09:20Z</time>
      </trkpt>
      <trkpt lat="62.638004833191" lon="17.972050801181">
        <ele>50.2</ele>
        <time>2018-02-20T19:09:21Z</time>
      </trkpt>
      <trkpt lat="62.638000139327" lon="17.972118107838">
        <ele>50.4</ele>
        <time>2018-02-20T19:09:22Z</time>
      </trkpt>
      <trkpt lat="62.638000558422" lon="17.972182313192">
        <ele>50.4</ele>
        <time>2018-02-20T19:09:23Z</time>
      </trkpt>
      <trkpt lat="62.638002905354" lon="17.97225121241">
        <ele>50.4</ele>
        <time>2018-02-20T19:09:24Z</time>
      </trkpt>
      <trkpt lat="62.638004497915" lon="17.97230401838">
        <ele>50.4</ele>
        <time>2018-02-20T19:09:25Z</time>
      </trkpt>
      <trkpt lat="62.638005000829" lon="17.972349615916">
        <ele>50.6</ele>
        <time>2018-02-20T19:09:26Z</time>
      </trkpt>
      <trkpt lat="62.638003827363" lon="17.972413485994">
        <ele>50.6</ele>
        <time>2018-02-20T19:09:27Z</time>
      </trkpt>
      <trkpt lat="62.638004246458" lon="17.972466962516">
        <ele>50.6</ele>
        <time>2018-02-20T19:09:28Z</time>
      </trkpt>
      <trkpt lat="62.638005587562" lon="17.972508704378">
        <ele>50.6</ele>
        <time>2018-02-20T19:09:29Z</time>
      </trkpt>
      <trkpt lat="62.638007263942" lon="17.972549691869">
        <ele>50.8</ele>
        <time>2018-02-20T19:09:30Z</time>
      </trkpt>
      <trkpt lat="62.638009610874" lon="17.972600653821">
        <ele>50.8</ele>
        <time>2018-02-20T19:09:31Z</time>
      </trkpt>
      <trkpt lat="62.638015478204" lon="17.97265186723">
        <ele>51</ele>
        <time>2018-02-20T19:09:32Z</time>
      </trkpt>
      <trkpt lat="62.638019082421" lon="17.972690172513">
        <ele>51.2</ele>
        <time>2018-02-20T19:09:33Z</time>
      </trkpt>
      <trkpt lat="62.638020172068" lon="17.972747839985">
        <ele>51.2</ele>
        <time>2018-02-20T19:09:34Z</time>
      </trkpt>
      <trkpt lat="62.638023860104" lon="17.972807016199">
        <ele>51.4</ele>
        <time>2018-02-20T19:09:35Z</time>
      </trkpt>
      <trkpt lat="62.638027967235" lon="17.972845656758">
        <ele>51.2</ele>
        <time>2018-02-20T19:09:36Z</time>
      </trkpt>
      <trkpt lat="62.638031571452" lon="17.972896031977">
        <ele>51.2</ele>
        <time>2018-02-20T19:09:37Z</time>
      </trkpt>
      <trkpt lat="62.638031571452" lon="17.972948251214">
        <ele>51.4</ele>
        <time>2018-02-20T19:09:38Z</time>
      </trkpt>
      <trkpt lat="62.638037774058" lon="17.972988651972">
        <ele>51.4</ele>
        <time>2018-02-20T19:09:39Z</time>
      </trkpt>
      <trkpt lat="62.638039115162" lon="17.973037518449">
        <ele>51.6</ele>
        <time>2018-02-20T19:09:40Z</time>
      </trkpt>
      <trkpt lat="62.638039869533" lon="17.973097029939">
        <ele>51.8</ele>
        <time>2018-02-20T19:09:41Z</time>
      </trkpt>
      <trkpt lat="62.63804431194" lon="17.973142124561">
        <ele>52</ele>
        <time>2018-02-20T19:09:42Z</time>
      </trkpt>
      <trkpt lat="62.638044060483" lon="17.973194343798">
        <ele>52.2</ele>
        <time>2018-02-20T19:09:43Z</time>
      </trkpt>
      <trkpt lat="62.638044814854" lon="17.97324698213">
        <ele>52.2</ele>
        <time>2018-02-20T19:09:44Z</time>
      </trkpt>
      <trkpt lat="62.638045904501" lon="17.973292076752">
        <ele>52.2</ele>
        <time>2018-02-20T19:09:45Z</time>
      </trkpt>
      <trkpt lat="62.638046910329" lon="17.973338680116">
        <ele>52.4</ele>
        <time>2018-02-20T19:09:46Z</time>
      </trkpt>
      <trkpt lat="62.638048754347" lon="17.973379499969">
        <ele>52.4</ele>
        <time>2018-02-20T19:09:47Z</time>
      </trkpt>
      <trkpt lat="62.638046239777" lon="17.973430042826">
        <ele>52.6</ele>
        <time>2018-02-20T19:09:48Z</time>
      </trkpt>
      <trkpt lat="62.638043641388" lon="17.973479076941">
        <ele>52.8</ele>
        <time>2018-02-20T19:09:49Z</time>
      </trkpt>
      <trkpt lat="62.638042467922" lon="17.973521992269">
        <ele>53</ele>
        <time>2018-02-20T19:09:50Z</time>
      </trkpt>
      <trkpt lat="62.638039953352" lon="17.973576474619">
        <ele>53.2</ele>
        <time>2018-02-20T19:09:51Z</time>
      </trkpt>
      <trkpt lat="62.638041210637" lon="17.973624586725">
        <ele>53.4</ele>
        <time>2018-02-20T19:09:52Z</time>
      </trkpt>
      <trkpt lat="62.638039366619" lon="17.973682254197">
        <ele>53.4</ele>
        <time>2018-02-20T19:09:53Z</time>
      </trkpt>
      <trkpt lat="62.638039198981" lon="17.973730366303">
        <ele>53.6</ele>
        <time>2018-02-20T19:09:54Z</time>
      </trkpt>
      <trkpt lat="62.638040540085" lon="17.973779316599">
        <ele>53.6</ele>
        <time>2018-02-20T19:09:55Z</time>
      </trkpt>
      <trkpt lat="62.638040707723" lon="17.973835810605">
        <ele>53.6</ele>
        <time>2018-02-20T19:09:56Z</time>
      </trkpt>
      <trkpt lat="62.638044479578" lon="17.973883084521">
        <ele>53.6</ele>
        <time>2018-02-20T19:09:57Z</time>
      </trkpt>
      <trkpt lat="62.638049005804" lon="17.973943266563">
        <ele>53.6</ele>
        <time>2018-02-20T19:09:58Z</time>
      </trkpt>
      <trkpt lat="62.638052023288" lon="17.973998670922">
        <ele>53.6</ele>
        <time>2018-02-20T19:09:59Z</time>
      </trkpt>
      <trkpt lat="62.63806107574" lon="17.974051393073">
        <ele>53.6</ele>
        <time>2018-02-20T19:10:00Z</time>
      </trkpt>
      <trkpt lat="62.638067278346" lon="17.974089865994">
        <ele>53.8</ele>
        <time>2018-02-20T19:10:01Z</time>
      </trkpt>
      <trkpt lat="62.638071385477" lon="17.974153316977">
        <ele>53.8</ele>
        <time>2018-02-20T19:10:02Z</time>
      </trkpt>
      <trkpt lat="62.63807867773" lon="17.974199501246">
        <ele>53.8</ele>
        <time>2018-02-20T19:10:03Z</time>
      </trkpt>
      <trkpt lat="62.638080605567" lon="17.974254318872">
        <ele>53.8</ele>
        <time>2018-02-20T19:10:04Z</time>
      </trkpt>
      <trkpt lat="62.638082198128" lon="17.97430980705">
        <ele>53.8</ele>
        <time>2018-02-20T19:10:05Z</time>
      </trkpt>
      <trkpt lat="62.638084628879" lon="17.974352219464">
        <ele>53.6</ele>
        <time>2018-02-20T19:10:06Z</time>
      </trkpt>
      <trkpt lat="62.638087478725" lon="17.974413826429">
        <ele>53.6</ele>
        <time>2018-02-20T19:10:07Z</time>
      </trkpt>
      <trkpt lat="62.638092591684" lon="17.974460765069">
        <ele>53.8</ele>
        <time>2018-02-20T19:10:08Z</time>
      </trkpt>
      <trkpt lat="62.638090663847" lon="17.974519186912">
        <ele>53.8</ele>
        <time>2018-02-20T19:10:09Z</time>
      </trkpt>
      <trkpt lat="62.638089909476" lon="17.974574423633">
        <ele>53.8</ele>
        <time>2018-02-20T19:10:10Z</time>
      </trkpt>
      <trkpt lat="62.638086305259" lon="17.974631169096">
        <ele>54</ele>
        <time>2018-02-20T19:10:11Z</time>
      </trkpt>
      <trkpt lat="62.638081862852" lon="17.974687411645">
        <ele>54</ele>
        <time>2018-02-20T19:10:12Z</time>
      </trkpt>
      <trkpt lat="62.638076833712" lon="17.974730997525">
        <ele>53.8</ele>
        <time>2018-02-20T19:10:13Z</time>
      </trkpt>
      <trkpt lat="62.638064512319" lon="17.974786820979">
        <ele>53.8</ele>
        <time>2018-02-20T19:10:14Z</time>
      </trkpt>
      <trkpt lat="62.638057052428" lon="17.974829065755">
        <ele>53.8</ele>
        <time>2018-02-20T19:10:15Z</time>
      </trkpt>
      <trkpt lat="62.638047413243" lon="17.974867371038">
        <ele>53.6</ele>
        <time>2018-02-20T19:10:16Z</time>
      </trkpt>
      <trkpt lat="62.638030397986" lon="17.974909280538">
        <ele>53.8</ele>
        <time>2018-02-20T19:10:17Z</time>
      </trkpt>
      <trkpt lat="62.638013215091" lon="17.97494515507">
        <ele>53.8</ele>
        <time>2018-02-20T19:10:18Z</time>
      </trkpt>
      <trkpt lat="62.637993769083" lon="17.974982370706">
        <ele>53.8</ele>
        <time>2018-02-20T19:10:19Z</time>
      </trkpt>
      <trkpt lat="62.637977759654" lon="17.975015227754">
        <ele>54</ele>
        <time>2018-02-20T19:10:20Z</time>
      </trkpt>
      <trkpt lat="62.637959990026" lon="17.975050850829">
        <ele>54.2</ele>
        <time>2018-02-20T19:10:21Z</time>
      </trkpt>
      <trkpt lat="62.637937442715" lon="17.97509770565">
        <ele>54.4</ele>
        <time>2018-02-20T19:10:22Z</time>
      </trkpt>
      <trkpt lat="62.63791774525" lon="17.975134502191">
        <ele>54.6</ele>
        <time>2018-02-20T19:10:23Z</time>
      </trkpt>
      <trkpt lat="62.637902490192" lon="17.975167778334">
        <ele>54.8</ele>
        <time>2018-02-20T19:10:24Z</time>
      </trkpt>
      <trkpt lat="62.63788589403" lon="17.975197785536">
        <ele>55</ele>
        <time>2018-02-20T19:10:25Z</time>
      </trkpt>
      <trkpt lat="62.637862340891" lon="17.975236929009">
        <ele>55</ele>
        <time>2018-02-20T19:10:26Z</time>
      </trkpt>
      <trkpt lat="62.637842978702" lon="17.975272803541">
        <ele>55.2</ele>
        <time>2018-02-20T19:10:27Z</time>
      </trkpt>
      <trkpt lat="62.637828645653" lon="17.975303648933">
        <ele>55.2</ele>
        <time>2018-02-20T19:10:28Z</time>
      </trkpt>
      <trkpt lat="62.63780961874" lon="17.975336841257">
        <ele>55.4</ele>
        <time>2018-02-20T19:10:29Z</time>
      </trkpt>
      <trkpt lat="62.637784724497" lon="17.975377409653">
        <ele>55.4</ele>
        <time>2018-02-20T19:10:30Z</time>
      </trkpt>
      <trkpt lat="62.637763937385" lon="17.975402387715">
        <ele>55.4</ele>
        <time>2018-02-20T19:10:31Z</time>
      </trkpt>
      <trkpt lat="62.637744575196" lon="17.975427617234">
        <ele>55.6</ele>
        <time>2018-02-20T19:10:32Z</time>
      </trkpt>
      <trkpt lat="62.637726470292" lon="17.975450751278">
        <ele>55.8</ele>
        <time>2018-02-20T19:10:33Z</time>
      </trkpt>
      <trkpt lat="62.637707191922" lon="17.975468688544">
        <ele>56</ele>
        <time>2018-02-20T19:10:34Z</time>
      </trkpt>
      <trkpt lat="62.637690009027" lon="17.975487966914">
        <ele>56.4</ele>
        <time>2018-02-20T19:10:35Z</time>
      </trkpt>
      <trkpt lat="62.637672826132" lon="17.975503221972">
        <ele>56.8</ele>
        <time>2018-02-20T19:10:36Z</time>
      </trkpt>
      <trkpt lat="62.637655224142" lon="17.975521745971">
        <ele>57</ele>
        <time>2018-02-20T19:10:37Z</time>
      </trkpt>
      <trkpt lat="62.637637957428" lon="17.975533983545">
        <ele>57.2</ele>
        <time>2018-02-20T19:10:38Z</time>
      </trkpt>
      <trkpt lat="62.637613566099" lon="17.975547143128">
        <ele>57.4</ele>
        <time>2018-02-20T19:10:39Z</time>
      </trkpt>
      <trkpt lat="62.637594287729" lon="17.975558207236">
        <ele>57.6</ele>
        <time>2018-02-20T19:10:40Z</time>
      </trkpt>
      <trkpt lat="62.637575512273" lon="17.975573881389">
        <ele>57.8</ele>
        <time>2018-02-20T19:10:41Z</time>
      </trkpt>
      <trkpt lat="62.637551372401" lon="17.975589890818">
        <ele>58</ele>
        <time>2018-02-20T19:10:42Z</time>
      </trkpt>
      <trkpt lat="62.637528573633" lon="17.975603469496">
        <ele>58</ele>
        <time>2018-02-20T19:10:43Z</time>
      </trkpt>
      <trkpt lat="62.637507283607" lon="17.975617634907">
        <ele>58.2</ele>
        <time>2018-02-20T19:10:44Z</time>
      </trkpt>
      <trkpt lat="62.637485742124" lon="17.975631716499">
        <ele>58.2</ele>
        <time>2018-02-20T19:10:45Z</time>
      </trkpt>
      <trkpt lat="62.637466463754" lon="17.975650324317">
        <ele>58.4</ele>
        <time>2018-02-20T19:10:46Z</time>
      </trkpt>
      <trkpt lat="62.637445509004" lon="17.975668596859">
        <ele>58.6</ele>
        <time>2018-02-20T19:10:47Z</time>
      </trkpt>
      <trkpt lat="62.637426733548" lon="17.975678236044">
        <ele>58.6</ele>
        <time>2018-02-20T19:10:48Z</time>
      </trkpt>
      <trkpt lat="62.637408377187" lon="17.975690473618">
        <ele>59</ele>
        <time>2018-02-20T19:10:49Z</time>
      </trkpt>
      <trkpt lat="62.637386919523" lon="17.97570287883">
        <ele>59.2</ele>
        <time>2018-02-20T19:10:50Z</time>
      </trkpt>
      <trkpt lat="62.637368395524" lon="17.975714697309">
        <ele>59.2</ele>
        <time>2018-02-20T19:10:51Z</time>
      </trkpt>
      <trkpt lat="62.637346351127" lon="17.975729533272">
        <ele>59.4</ele>
        <time>2018-02-20T19:10:52Z</time>
      </trkpt>
      <trkpt lat="62.637325731653" lon="17.975749398375">
        <ele>59.6</ele>
        <time>2018-02-20T19:10:53Z</time>
      </trkpt>
      <trkpt lat="62.637301591781" lon="17.975773957342">
        <ele>59.8</ele>
        <time>2018-02-20T19:10:54Z</time>
      </trkpt>
      <trkpt lat="62.637278373918" lon="17.975792313703">
        <ele>59.8</ele>
        <time>2018-02-20T19:10:55Z</time>
      </trkpt>
      <trkpt lat="62.637257419168" lon="17.975813603729">
        <ele>60.2</ele>
        <time>2018-02-20T19:10:56Z</time>
      </trkpt>
      <trkpt lat="62.637240906825" lon="17.975832211547">
        <ele>60.2</ele>
        <time>2018-02-20T19:10:57Z</time>
      </trkpt>
      <trkpt lat="62.637225316491" lon="17.975851992831">
        <ele>60.6</ele>
        <time>2018-02-20T19:10:58Z</time>
      </trkpt>
      <trkpt lat="62.637208385053" lon="17.975882335309">
        <ele>60.8</ele>
        <time>2018-02-20T19:10:59Z</time>
      </trkpt>
      <trkpt lat="62.637192543262" lon="17.975913180701">
        <ele>61</ele>
        <time>2018-02-20T19:11:00Z</time>
      </trkpt>
      <trkpt lat="62.63717846167" lon="17.975944109912">
        <ele>61.2</ele>
        <time>2018-02-20T19:11:01Z</time>
      </trkpt>
      <trkpt lat="62.637167062286" lon="17.975977972788">
        <ele>61.4</ele>
        <time>2018-02-20T19:11:02Z</time>
      </trkpt>
      <trkpt lat="62.637158931843" lon="17.976007477076">
        <ele>61.8</ele>
        <time>2018-02-20T19:11:03Z</time>
      </trkpt>
      <trkpt lat="62.63714996321" lon="17.976045111807">
        <ele>61.8</ele>
        <time>2018-02-20T19:11:04Z</time>
      </trkpt>
      <trkpt lat="62.637140240206" lon="17.976088194773">
        <ele>62</ele>
        <time>2018-02-20T19:11:05Z</time>
      </trkpt>
      <trkpt lat="62.637134708152" lon="17.976120884183">
        <ele>62.2</ele>
        <time>2018-02-20T19:11:06Z</time>
      </trkpt>
      <trkpt lat="62.637123308768" lon="17.976175366533">
        <ele>62.4</ele>
        <time>2018-02-20T19:11:07Z</time>
      </trkpt>
      <trkpt lat="62.637119033999" lon="17.976214845282">
        <ele>62.6</ele>
        <time>2018-02-20T19:11:08Z</time>
      </trkpt>
      <trkpt lat="62.637109897728" lon="17.976260778094">
        <ele>62.6</ele>
        <time>2018-02-20T19:11:09Z</time>
      </trkpt>
      <trkpt lat="62.63710134819" lon="17.976305369802">
        <ele>62.8</ele>
        <time>2018-02-20T19:11:10Z</time>
      </trkpt>
      <trkpt lat="62.637093469204" lon="17.976348452768">
        <ele>62.8</ele>
        <time>2018-02-20T19:11:11Z</time>
      </trkpt>
      <trkpt lat="62.637086512227" lon="17.976390865182">
        <ele>62.8</ele>
        <time>2018-02-20T19:11:12Z</time>
      </trkpt>
      <trkpt lat="62.637077375956" lon="17.976442749143">
        <ele>62.8</ele>
        <time>2018-02-20T19:11:13Z</time>
      </trkpt>
      <trkpt lat="62.637074358472" lon="17.97648574829">
        <ele>62.8</ele>
        <time>2018-02-20T19:11:14Z</time>
      </trkpt>
      <trkpt lat="62.63706782059" lon="17.976533944215">
        <ele>63</ele>
        <time>2018-02-20T19:11:15Z</time>
      </trkpt>
      <trkpt lat="62.637063881097" lon="17.976585241443">
        <ele>63.2</ele>
        <time>2018-02-20T19:11:16Z</time>
      </trkpt>
      <trkpt lat="62.637060612156" lon="17.976626815667">
        <ele>63.2</ele>
        <time>2018-02-20T19:11:17Z</time>
      </trkpt>
      <trkpt lat="62.637053738998" lon="17.976683644949">
        <ele>63.4</ele>
        <time>2018-02-20T19:11:18Z</time>
      </trkpt>
      <trkpt lat="62.637051727342" lon="17.976733684892">
        <ele>63.4</ele>
        <time>2018-02-20T19:11:19Z</time>
      </trkpt>
      <trkpt lat="62.637049799505" lon="17.976784563025">
        <ele>63.4</ele>
        <time>2018-02-20T19:11:20Z</time>
      </trkpt>
      <trkpt lat="62.637047955487" lon="17.976839045375">
        <ele>63.6</ele>
        <time>2018-02-20T19:11:21Z</time>
      </trkpt>
      <trkpt lat="62.63704854222" lon="17.976888247128">
        <ele>63.6</ele>
        <time>2018-02-20T19:11:22Z</time>
      </trkpt>
      <trkpt lat="62.637048793677" lon="17.976953877405">
        <ele>63.6</ele>
        <time>2018-02-20T19:11:23Z</time>
      </trkpt>
      <trkpt lat="62.637052565532" lon="17.976998804389">
        <ele>63.6</ele>
        <time>2018-02-20T19:11:24Z</time>
      </trkpt>
      <trkpt lat="62.637053990455" lon="17.977055046938">
        <ele>63.6</ele>
        <time>2018-02-20T19:11:25Z</time>
      </trkpt>
      <trkpt lat="62.637055080102" lon="17.977112295315">
        <ele>63.8</ele>
        <time>2018-02-20T19:11:26Z</time>
      </trkpt>
      <trkpt lat="62.637055834473" lon="17.977165688018">
        <ele>63.8</ele>
        <time>2018-02-20T19:11:27Z</time>
      </trkpt>
      <trkpt lat="62.637052984627" lon="17.977227378802">
        <ele>63.8</ele>
        <time>2018-02-20T19:11:28Z</time>
      </trkpt>
      <trkpt lat="62.637051727342" lon="17.977276245279">
        <ele>63.8</ele>
        <time>2018-02-20T19:11:29Z</time>
      </trkpt>
      <trkpt lat="62.637044183632" lon="17.977339528624">
        <ele>63.8</ele>
        <time>2018-02-20T19:11:30Z</time>
      </trkpt>
      <trkpt lat="62.637039992682" lon="17.977389400929">
        <ele>63.8</ele>
        <time>2018-02-20T19:11:31Z</time>
      </trkpt>
      <trkpt lat="62.637031275506" lon="17.977443045089">
        <ele>63.8</ele>
        <time>2018-02-20T19:11:32Z</time>
      </trkpt>
      <trkpt lat="62.637016020448" lon="17.977501802208">
        <ele>63.8</ele>
        <time>2018-02-20T19:11:33Z</time>
      </trkpt>
      <trkpt lat="62.63700663272" lon="17.977547315925">
        <ele>63.8</ele>
        <time>2018-02-20T19:11:34Z</time>
      </trkpt>
      <trkpt lat="62.636989366006" lon="17.977608000881">
        <ele>63.8</ele>
        <time>2018-02-20T19:11:35Z</time>
      </trkpt>
      <trkpt lat="62.636976206423" lon="17.97765502334">
        <ele>64</ele>
        <time>2018-02-20T19:11:36Z</time>
      </trkpt>
      <trkpt lat="62.636960951365" lon="17.977711936441">
        <ele>63.8</ele>
        <time>2018-02-20T19:11:37Z</time>
      </trkpt>
      <trkpt lat="62.636946785954" lon="17.977768011352">
        <ele>64</ele>
        <time>2018-02-20T19:11:38Z</time>
      </trkpt>
      <trkpt lat="62.636938990787" lon="17.977813692707">
        <ele>64</ele>
        <time>2018-02-20T19:11:39Z</time>
      </trkpt>
      <trkpt lat="62.636929938335" lon="17.977872868921">
        <ele>64</ele>
        <time>2018-02-20T19:11:40Z</time>
      </trkpt>
      <trkpt lat="62.636925412109" lon="17.977922992683">
        <ele>64</ele>
        <time>2018-02-20T19:11:41Z</time>
      </trkpt>
      <trkpt lat="62.636918371313" lon="17.977983090906">
        <ele>64</ele>
        <time>2018-02-20T19:11:42Z</time>
      </trkpt>
      <trkpt lat="62.63691107906" lon="17.978043440586">
        <ele>64.2</ele>
        <time>2018-02-20T19:11:43Z</time>
      </trkpt>
      <trkpt lat="62.636907474843" lon="17.978092055606">
        <ele>64.2</ele>
        <time>2018-02-20T19:11:44Z</time>
      </trkpt>
      <trkpt lat="62.636898254753" lon="17.978151818553">
        <ele>64.4</ele>
        <time>2018-02-20T19:11:45Z</time>
      </trkpt>
      <trkpt lat="62.636891884509" lon="17.978198589555">
        <ele>64.2</ele>
        <time>2018-02-20T19:11:46Z</time>
      </trkpt>
      <trkpt lat="62.636882496781" lon="17.978254664466">
        <ele>64.4</ele>
        <time>2018-02-20T19:11:47Z</time>
      </trkpt>
      <trkpt lat="62.636871348854" lon="17.978309230635">
        <ele>64.4</ele>
        <time>2018-02-20T19:11:48Z</time>
      </trkpt>
      <trkpt lat="62.636863050773" lon="17.978354409076">
        <ele>64.4</ele>
        <time>2018-02-20T19:11:49Z</time>
      </trkpt>
      <trkpt lat="62.636846789887" lon="17.978407466503">
        <ele>64.4</ele>
        <time>2018-02-20T19:11:50Z</time>
      </trkpt>
      <trkpt lat="62.636836731607" lon="17.97844376013">
        <ele>64.4</ele>
        <time>2018-02-20T19:11:51Z</time>
      </trkpt>
      <trkpt lat="62.636819381074" lon="17.978493297159">
        <ele>64.6</ele>
        <time>2018-02-20T19:11:52Z</time>
      </trkpt>
      <trkpt lat="62.636800018885" lon="17.978545684034">
        <ele>64.6</ele>
        <time>2018-02-20T19:11:53Z</time>
      </trkpt>
      <trkpt lat="62.636787697492" lon="17.978585665697">
        <ele>64.8</ele>
        <time>2018-02-20T19:11:54Z</time>
      </trkpt>
      <trkpt lat="62.636766658923" lon="17.9786306765">
        <ele>64.8</ele>
        <time>2018-02-20T19:11:55Z</time>
      </trkpt>
      <trkpt lat="62.636751487684" lon="17.978660432245">
        <ele>64.8</ele>
        <time>2018-02-20T19:11:56Z</time>
      </trkpt>
      <trkpt lat="62.636732963685" lon="17.978690271809">
        <ele>65</ele>
        <time>2018-02-20T19:11:57Z</time>
      </trkpt>
      <trkpt lat="62.636709159089" lon="17.978721871572">
        <ele>65</ele>
        <time>2018-02-20T19:11:58Z</time>
      </trkpt>
      <trkpt lat="62.636688036701" lon="17.97874634672">
        <ele>65</ele>
        <time>2018-02-20T19:11:59Z</time>
      </trkpt>
      <trkpt lat="62.636668087779" lon="17.978764283986">
        <ele>65.2</ele>
        <time>2018-02-20T19:12:00Z</time>
      </trkpt>
      <trkpt lat="62.636643109717" lon="17.978781718338">
        <ele>65.4</ele>
        <time>2018-02-20T19:12:01Z</time>
      </trkpt>
      <trkpt lat="62.636618634569" lon="17.978793452998">
        <ele>65.4</ele>
        <time>2018-02-20T19:12:02Z</time>
      </trkpt>
      <trkpt lat="62.636597847457" lon="17.978803176002">
        <ele>65.6</ele>
        <time>2018-02-20T19:12:03Z</time>
      </trkpt>
      <trkpt lat="62.636571947386" lon="17.97880753459">
        <ele>65.6</ele>
        <time>2018-02-20T19:12:04Z</time>
      </trkpt>
      <trkpt lat="62.636544706211" lon="17.978807115495">
        <ele>65.8</ele>
        <time>2018-02-20T19:12:05Z</time>
      </trkpt>
      <trkpt lat="62.636527104221" lon="17.978808288961">
        <ele>65.8</ele>
        <time>2018-02-20T19:12:06Z</time>
      </trkpt>
      <trkpt lat="62.636504305453" lon="17.97880502002">
        <ele>66</ele>
        <time>2018-02-20T19:12:07Z</time>
      </trkpt>
      <trkpt lat="62.636479914124" lon="17.978802002536">
        <ele>66.2</ele>
        <time>2018-02-20T19:12:08Z</time>
      </trkpt>
      <trkpt lat="62.636459546107" lon="17.978797224853">
        <ele>66.4</ele>
        <time>2018-02-20T19:12:09Z</time>
      </trkpt>
      <trkpt lat="62.636439848642" lon="17.978798398319">
        <ele>66.4</ele>
        <time>2018-02-20T19:12:10Z</time>
      </trkpt>
      <trkpt lat="62.636419564444" lon="17.978798901233">
        <ele>66.6</ele>
        <time>2018-02-20T19:12:11Z</time>
      </trkpt>
      <trkpt lat="62.636395424572" lon="17.978802421631">
        <ele>66.8</ele>
        <time>2018-02-20T19:12:12Z</time>
      </trkpt>
      <trkpt lat="62.63637379927" lon="17.978809378608">
        <ele>66.8</ele>
        <time>2018-02-20T19:12:13Z</time>
      </trkpt>
      <trkpt lat="62.636354856176" lon="17.97881340192">
        <ele>67</ele>
        <time>2018-02-20T19:12:14Z</time>
      </trkpt>
      <trkpt lat="62.636335829263" lon="17.978817676689">
        <ele>67</ele>
        <time>2018-02-20T19:12:15Z</time>
      </trkpt>
      <trkpt lat="62.636322250585" lon="17.978826142408">
        <ele>67.2</ele>
        <time>2018-02-20T19:12:16Z</time>
      </trkpt>
      <trkpt lat="62.636306073518" lon="17.978834440489">
        <ele>67.2</ele>
        <time>2018-02-20T19:12:17Z</time>
      </trkpt>
      <trkpt lat="62.636288555347" lon="17.978845336959">
        <ele>67.4</ele>
        <time>2018-02-20T19:12:18Z</time>
      </trkpt>
      <trkpt lat="62.636271875366" lon="17.978857993628">
        <ele>67.6</ele>
        <time>2018-02-20T19:12:19Z</time>
      </trkpt>
      <trkpt lat="62.636255949756" lon="17.978867716632">
        <ele>68</ele>
        <time>2018-02-20T19:12:20Z</time>
      </trkpt>
      <trkpt lat="62.636240024146" lon="17.978874841247">
        <ele>68.4</ele>
        <time>2018-02-20T19:12:21Z</time>
      </trkpt>
      <trkpt lat="62.636220661957" lon="17.978891185952">
        <ele>68.8</ele>
        <time>2018-02-20T19:12:22Z</time>
      </trkpt>
      <trkpt lat="62.636204903985" lon="17.978908620304">
        <ele>69</ele>
        <time>2018-02-20T19:12:23Z</time>
      </trkpt>
      <trkpt lat="62.636188056366" lon="17.97892823395">
        <ele>69.2</ele>
        <time>2018-02-20T19:12:24Z</time>
      </trkpt>
      <trkpt lat="62.636169197091" lon="17.978948685786">
        <ele>69.4</ele>
        <time>2018-02-20T19:12:25Z</time>
      </trkpt>
      <trkpt lat="62.636151176006" lon="17.97897181983">
        <ele>69.6</ele>
        <time>2018-02-20T19:12:26Z</time>
      </trkpt>
      <trkpt lat="62.636132484369" lon="17.978997300806">
        <ele>69.8</ele>
        <time>2018-02-20T19:12:27Z</time>
      </trkpt>
      <trkpt lat="62.636115133836" lon="17.979018590832">
        <ele>70</ele>
        <time>2018-02-20T19:12:28Z</time>
      </trkpt>
      <trkpt lat="62.636110020877" lon="17.979033259157">
        <ele>70.4</ele>
        <time>2018-02-20T19:12:29Z</time>
      </trkpt>
      <trkpt lat="62.636104488823" lon="17.979057399029">
        <ele>70.6</ele>
        <time>2018-02-20T19:12:30Z</time>
      </trkpt>
      <trkpt lat="62.63609803476" lon="17.979078856693">
        <ele>71</ele>
        <time>2018-02-20T19:12:31Z</time>
      </trkpt>
      <trkpt lat="62.636089233765" lon="17.979097296873">
        <ele>71.2</ele>
        <time>2018-02-20T19:12:32Z</time>
      </trkpt>
      <trkpt lat="62.636078924028" lon="17.97911515032">
        <ele>71.4</ele>
        <time>2018-02-20T19:12:33Z</time>
      </trkpt>
      <trkpt lat="62.636065512988" lon="17.979139038735">
        <ele>71.8</ele>
        <time>2018-02-20T19:12:34Z</time>
      </trkpt>
      <trkpt lat="62.636052018129" lon="17.979167369557">
        <ele>72.2</ele>
        <time>2018-02-20T19:12:35Z</time>
      </trkpt>
      <trkpt lat="62.636040534926" lon="17.979190838877">
        <ele>72.4</ele>
        <time>2018-02-20T19:12:36Z</time>
      </trkpt>
      <trkpt lat="62.636029806094" lon="17.979220426984">
        <ele>72.6</ele>
        <time>2018-02-20T19:12:37Z</time>
      </trkpt>
      <trkpt lat="62.636019747814" lon="17.979250518005">
        <ele>72.8</ele>
        <time>2018-02-20T19:12:38Z</time>
      </trkpt>
      <trkpt lat="62.636009773353" lon="17.979277340085">
        <ele>73.2</ele>
        <time>2018-02-20T19:12:39Z</time>
      </trkpt>
      <trkpt lat="62.636002313462" lon="17.97930458126">
        <ele>73.4</ele>
        <time>2018-02-20T19:12:40Z</time>
      </trkpt>
      <trkpt lat="62.635990327345" lon="17.979351184624">
        <ele>73.6</ele>
        <time>2018-02-20T19:12:41Z</time>
      </trkpt>
      <trkpt lat="62.635986723128" lon="17.979394686685">
        <ele>73.8</ele>
        <time>2018-02-20T19:12:42Z</time>
      </trkpt>
      <trkpt lat="62.635980939617" lon="17.979449504311">
        <ele>73.8</ele>
        <time>2018-02-20T19:12:43Z</time>
      </trkpt>
      <trkpt lat="62.635979933789" lon="17.979511111276">
        <ele>73.8</ele>
        <time>2018-02-20T19:12:44Z</time>
      </trkpt>
      <trkpt lat="62.635979598513" lon="17.9795778312">
        <ele>73.8</ele>
        <time>2018-02-20T19:12:45Z</time>
      </trkpt>
      <trkpt lat="62.635980520522" lon="17.97966584115">
        <ele>73.6</ele>
        <time>2018-02-20T19:12:46Z</time>
      </trkpt>
      <trkpt lat="62.635977503038" lon="17.97979408422">
        <ele>73.4</ele>
        <time>2018-02-20T19:12:47Z</time>
      </trkpt>
      <trkpt lat="62.635974653192" lon="17.979944874601">
        <ele>73</ele>
        <time>2018-02-20T19:12:48Z</time>
      </trkpt>
      <trkpt lat="62.635977838314" lon="17.980088121272">
        <ele>72</ele>
        <time>2018-02-20T19:12:49Z</time>
      </trkpt>
      <trkpt lat="62.6359857173" lon="17.980229691563">
        <ele>71</ele>
        <time>2018-02-20T19:12:50Z</time>
      </trkpt>
      <trkpt lat="62.635999715073" lon="17.980361035936">
        <ele>69.8</ele>
        <time>2018-02-20T19:12:51Z</time>
      </trkpt>
      <trkpt lat="62.636018490529" lon="17.980496822716">
        <ele>68.8</ele>
        <time>2018-02-20T19:12:52Z</time>
      </trkpt>
      <trkpt lat="62.636040618745" lon="17.980633699143">
        <ele>68</ele>
        <time>2018-02-20T19:12:53Z</time>
      </trkpt>
      <trkpt lat="62.636060651486" lon="17.980757332168">
        <ele>67.4</ele>
        <time>2018-02-20T19:12:54Z</time>
      </trkpt>
      <trkpt lat="62.636079259304" lon="17.980873170026">
        <ele>67.2</ele>
        <time>2018-02-20T19:12:55Z</time>
      </trkpt>
      <trkpt lat="62.636097950941" lon="17.980979955432">
        <ele>67</ele>
        <time>2018-02-20T19:12:56Z</time>
      </trkpt>
      <trkpt lat="62.636119911519" lon="17.981098726955">
        <ele>66.6</ele>
        <time>2018-02-20T19:12:57Z</time>
      </trkpt>
      <trkpt lat="62.636135166577" lon="17.981202746334">
        <ele>66.4</ele>
        <time>2018-02-20T19:12:58Z</time>
      </trkpt>
      <trkpt lat="62.636148829074" lon="17.981308777369">
        <ele>66.4</ele>
        <time>2018-02-20T19:12:59Z</time>
      </trkpt>
      <trkpt lat="62.636158971173" lon="17.98140173264">
        <ele>66.2</ele>
        <time>2018-02-20T19:13:00Z</time>
      </trkpt>
      <trkpt lat="62.636166263426" lon="17.981485886916">
        <ele>66</ele>
        <time>2018-02-20T19:13:01Z</time>
      </trkpt>
      <trkpt lat="62.636172298394" lon="17.981569119183">
        <ele>65.6</ele>
        <time>2018-02-20T19:13:02Z</time>
      </trkpt>
      <trkpt lat="62.636175315878" lon="17.981660817169">
        <ele>65.6</ele>
        <time>2018-02-20T19:13:03Z</time>
      </trkpt>
      <trkpt lat="62.636177243715" lon="17.981746061092">
        <ele>65.4</ele>
        <time>2018-02-20T19:13:04Z</time>
      </trkpt>
      <trkpt lat="62.636186715262" lon="17.981833987223">
        <ele>65.6</ele>
        <time>2018-02-20T19:13:05Z</time>
      </trkpt>
      <trkpt lat="62.636198030827" lon="17.981888804849">
        <ele>66</ele>
        <time>2018-02-20T19:13:06Z</time>
      </trkpt>
      <trkpt lat="62.636211022772" lon="17.981953513117">
        <ele>66.2</ele>
        <time>2018-02-20T19:13:07Z</time>
      </trkpt>
      <trkpt lat="62.636221667785" lon="17.982025848914">
        <ele>66.4</ele>
        <time>2018-02-20T19:13:08Z</time>
      </trkpt>
      <trkpt lat="62.63623298335" lon="17.982087288241">
        <ele>66.6</ele>
        <time>2018-02-20T19:13:09Z</time>
      </trkpt>
      <trkpt lat="62.63623885068" lon="17.982163563531">
        <ele>66.6</ele>
        <time>2018-02-20T19:13:10Z</time>
      </trkpt>
      <trkpt lat="62.636244131277" lon="17.982236821337">
        <ele>66.4</ele>
        <time>2018-02-20T19:13:11Z</time>
      </trkpt>
      <trkpt lat="62.636249328055" lon="17.982298344483">
        <ele>66.2</ele>
        <time>2018-02-20T19:13:12Z</time>
      </trkpt>
      <trkpt lat="62.636252429358" lon="17.98235643105">
        <ele>66.2</ele>
        <time>2018-02-20T19:13:13Z</time>
      </trkpt>
      <trkpt lat="62.636255279204" lon="17.982413595608">
        <ele>66.4</ele>
        <time>2018-02-20T19:13:14Z</time>
      </trkpt>
      <trkpt lat="62.636254860109" lon="17.982478387695">
        <ele>66.2</ele>
        <time>2018-02-20T19:13:15Z</time>
      </trkpt>
      <trkpt lat="62.636254189557" lon="17.982532367131">
        <ele>66.4</ele>
        <time>2018-02-20T19:13:16Z</time>
      </trkpt>
      <trkpt lat="62.636255027747" lon="17.982586765662">
        <ele>66.4</ele>
        <time>2018-02-20T19:13:17Z</time>
      </trkpt>
      <trkpt lat="62.636252764634" lon="17.982657760355">
        <ele>66.4</ele>
        <time>2018-02-20T19:13:18Z</time>
      </trkpt>
      <trkpt lat="62.636253602824" lon="17.982723139175">
        <ele>66.4</ele>
        <time>2018-02-20T19:13:19Z</time>
      </trkpt>
      <trkpt lat="62.636253351367" lon="17.982785081416">
        <ele>66.4</ele>
        <time>2018-02-20T19:13:20Z</time>
      </trkpt>
      <trkpt lat="62.636254189557" lon="17.982838055024">
        <ele>66.4</ele>
        <time>2018-02-20T19:13:21Z</time>
      </trkpt>
      <trkpt lat="62.636257374679" lon="17.982886334768">
        <ele>66.4</ele>
        <time>2018-02-20T19:13:22Z</time>
      </trkpt>
      <trkpt lat="62.636255446842" lon="17.98294567862">
        <ele>66.4</ele>
        <time>2018-02-20T19:13:23Z</time>
      </trkpt>
      <trkpt lat="62.636256871765" lon="17.983001250617">
        <ele>66.4</ele>
        <time>2018-02-20T19:13:24Z</time>
      </trkpt>
      <trkpt lat="62.636259386335" lon="17.983057828442">
        <ele>66.6</ele>
        <time>2018-02-20T19:13:25Z</time>
      </trkpt>
      <trkpt lat="62.63625729086" lon="17.983112813706">
        <ele>66.4</ele>
        <time>2018-02-20T19:13:26Z</time>
      </trkpt>
      <trkpt lat="62.63625812905" lon="17.983165535857">
        <ele>66.6</ele>
        <time>2018-02-20T19:13:27Z</time>
      </trkpt>
      <trkpt lat="62.636258296688" lon="17.983228735383">
        <ele>66.6</ele>
        <time>2018-02-20T19:13:28Z</time>
      </trkpt>
      <trkpt lat="62.636262739095" lon="17.98328766014">
        <ele>66.6</ele>
        <time>2018-02-20T19:13:29Z</time>
      </trkpt>
      <trkpt lat="62.636262739095" lon="17.983341136662">
        <ele>66.6</ele>
        <time>2018-02-20T19:13:30Z</time>
      </trkpt>
      <trkpt lat="62.636261900905" lon="17.983398133582">
        <ele>66.8</ele>
        <time>2018-02-20T19:13:31Z</time>
      </trkpt>
      <trkpt lat="62.636259302516" lon="17.983448927896">
        <ele>66.8</ele>
        <time>2018-02-20T19:13:32Z</time>
      </trkpt>
      <trkpt lat="62.636253686643" lon="17.983497291459">
        <ele>67</ele>
        <time>2018-02-20T19:13:33Z</time>
      </trkpt>
      <trkpt lat="62.63624136525" lon="17.983552695818">
        <ele>67</ele>
        <time>2018-02-20T19:13:34Z</time>
      </trkpt>
      <trkpt lat="62.636235917015" lon="17.983604579779">
        <ele>67</ele>
        <time>2018-02-20T19:13:35Z</time>
      </trkpt>
      <trkpt lat="62.636228373305" lon="17.983641460139">
        <ele>67.2</ele>
        <time>2018-02-20T19:13:36Z</time>
      </trkpt>
      <trkpt lat="62.636214710808" lon="17.983692422091">
        <ele>67.2</ele>
        <time>2018-02-20T19:13:37Z</time>
      </trkpt>
      <trkpt lat="62.63620448489" lon="17.983755286341">
        <ele>67.4</ele>
        <time>2018-02-20T19:13:38Z</time>
      </trkpt>
      <trkpt lat="62.636192498773" lon="17.983804991008">
        <ele>67.6</ele>
        <time>2018-02-20T19:13:39Z</time>
      </trkpt>
      <trkpt lat="62.636181518484" lon="17.983854528037">
        <ele>67.6</ele>
        <time>2018-02-20T19:13:40Z</time>
      </trkpt>
      <trkpt lat="62.63617179548" lon="17.983913201337">
        <ele>67.8</ele>
        <time>2018-02-20T19:13:41Z</time>
      </trkpt>
      <trkpt lat="62.636167101616" lon="17.983968857153">
        <ele>67.8</ele>
        <time>2018-02-20T19:13:42Z</time>
      </trkpt>
      <trkpt lat="62.636160731372" lon="17.984022585132">
        <ele>67.8</ele>
        <time>2018-02-20T19:13:43Z</time>
      </trkpt>
      <trkpt lat="62.636155786051" lon="17.984083437726">
        <ele>67.8</ele>
        <time>2018-02-20T19:13:44Z</time>
      </trkpt>
      <trkpt lat="62.636152349472" lon="17.984122245923">
        <ele>68</ele>
        <time>2018-02-20T19:13:45Z</time>
      </trkpt>
      <trkpt lat="62.636148912893" lon="17.98418284706">
        <ele>68</ele>
        <time>2018-02-20T19:13:46Z</time>
      </trkpt>
      <trkpt lat="62.63613994426" lon="17.984252752106">
        <ele>68.2</ele>
        <time>2018-02-20T19:13:47Z</time>
      </trkpt>
      <trkpt lat="62.636141117726" lon="17.984304133153">
        <ele>68.2</ele>
        <time>2018-02-20T19:13:48Z</time>
      </trkpt>
      <trkpt lat="62.636139608984" lon="17.984359286055">
        <ele>68.4</ele>
        <time>2018-02-20T19:13:49Z</time>
      </trkpt>
      <trkpt lat="62.636133574016" lon="17.984423742866">
        <ele>68.4</ele>
        <time>2018-02-20T19:13:50Z</time>
      </trkpt>
      <trkpt lat="62.636132065274" lon="17.984467244927">
        <ele>68.4</ele>
        <time>2018-02-20T19:13:51Z</time>
      </trkpt>
      <trkpt lat="62.636128544876" lon="17.984525247675">
        <ele>68.6</ele>
        <time>2018-02-20T19:13:52Z</time>
      </trkpt>
      <trkpt lat="62.636128544876" lon="17.984581909319">
        <ele>68.6</ele>
        <time>2018-02-20T19:13:53Z</time>
      </trkpt>
      <trkpt lat="62.636127622867" lon="17.984624908466">
        <ele>68.6</ele>
        <time>2018-02-20T19:13:54Z</time>
      </trkpt>
      <trkpt lat="62.636123348098" lon="17.984689700553">
        <ele>68.6</ele>
        <time>2018-02-20T19:13:55Z</time>
      </trkpt>
      <trkpt lat="62.636121839356" lon="17.984738399392">
        <ele>68.6</ele>
        <time>2018-02-20T19:13:56Z</time>
      </trkpt>
      <trkpt lat="62.636120330614" lon="17.984789780439">
        <ele>68.8</ele>
        <time>2018-02-20T19:13:57Z</time>
      </trkpt>
      <trkpt lat="62.636116726397" lon="17.984852896146">
        <ele>68.8</ele>
        <time>2018-02-20T19:13:58Z</time>
      </trkpt>
      <trkpt lat="62.636114128008" lon="17.984901259709">
        <ele>69</ele>
        <time>2018-02-20T19:13:59Z</time>
      </trkpt>
      <trkpt lat="62.636111781076" lon="17.984951551109">
        <ele>69</ele>
        <time>2018-02-20T19:14:00Z</time>
      </trkpt>
      <trkpt lat="62.636108176859" lon="17.985007793658">
        <ele>69.2</ele>
        <time>2018-02-20T19:14:01Z</time>
      </trkpt>
      <trkpt lat="62.636105494651" lon="17.985054899936">
        <ele>69.2</ele>
        <time>2018-02-20T19:14:02Z</time>
      </trkpt>
      <trkpt lat="62.63610138752" lon="17.985105023698">
        <ele>69.2</ele>
        <time>2018-02-20T19:14:03Z</time>
      </trkpt>
      <trkpt lat="62.636095771647" lon="17.985166379206">
        <ele>69.4</ele>
        <time>2018-02-20T19:14:04Z</time>
      </trkpt>
      <trkpt lat="62.636092251249" lon="17.985213653122">
        <ele>69.4</ele>
        <time>2018-02-20T19:14:05Z</time>
      </trkpt>
      <trkpt lat="62.636087389747" lon="17.985264698893">
        <ele>69.6</ele>
        <time>2018-02-20T19:14:06Z</time>
      </trkpt>
      <trkpt lat="62.636080935684" lon="17.985321192899">
        <ele>69.6</ele>
        <time>2018-02-20T19:14:07Z</time>
      </trkpt>
      <trkpt lat="62.636077666743" lon="17.985361761295">
        <ele>70</ele>
        <time>2018-02-20T19:14:08Z</time>
      </trkpt>
      <trkpt lat="62.636075487449" lon="17.985418674396">
        <ele>70</ele>
        <time>2018-02-20T19:14:09Z</time>
      </trkpt>
      <trkpt lat="62.636072134689" lon="17.985469217253">
        <ele>70.2</ele>
        <time>2018-02-20T19:14:10Z</time>
      </trkpt>
      <trkpt lat="62.636068530472" lon="17.985518251368">
        <ele>70.2</ele>
        <time>2018-02-20T19:14:11Z</time>
      </trkpt>
      <trkpt lat="62.636059058925" lon="17.985580528885">
        <ele>70.4</ele>
        <time>2018-02-20T19:14:12Z</time>
      </trkpt>
      <trkpt lat="62.636051850491" lon="17.985625204412">
        <ele>70.2</ele>
        <time>2018-02-20T19:14:13Z</time>
      </trkpt>
      <trkpt lat="62.636040367288" lon="17.985676753097">
        <ele>70.4</ele>
        <time>2018-02-20T19:14:14Z</time>
      </trkpt>
      <trkpt lat="62.636027794438" lon="17.985729223791">
        <ele>70.4</ele>
        <time>2018-02-20T19:14:15Z</time>
      </trkpt>
      <trkpt lat="62.63602008309" lon="17.98576618797">
        <ele>70.6</ele>
        <time>2018-02-20T19:14:16Z</time>
      </trkpt>
      <trkpt lat="62.636004911851" lon="17.985815724999">
        <ele>70.6</ele>
        <time>2018-02-20T19:14:17Z</time>
      </trkpt>
      <trkpt lat="62.635985130567" lon="17.985864004743">
        <ele>70.8</ele>
        <time>2018-02-20T19:14:18Z</time>
      </trkpt>
      <trkpt lat="62.635973898821" lon="17.985897532343">
        <ele>70.8</ele>
        <time>2018-02-20T19:14:19Z</time>
      </trkpt>
      <trkpt lat="62.635958811401" lon="17.98593047321">
        <ele>70.8</ele>
        <time>2018-02-20T19:14:20Z</time>
      </trkpt>
      <trkpt lat="62.635942382877" lon="17.985961737697">
        <ele>71</ele>
        <time>2018-02-20T19:14:21Z</time>
      </trkpt>
      <trkpt lat="62.635931570226" lon="17.985989397967">
        <ele>71</ele>
        <time>2018-02-20T19:14:22Z</time>
      </trkpt>
      <trkpt lat="62.635913381503" lon="17.986020746273">
        <ele>71.2</ele>
        <time>2018-02-20T19:14:23Z</time>
      </trkpt>
      <trkpt lat="62.635891588563" lon="17.986044969964">
        <ele>71.2</ele>
        <time>2018-02-20T19:14:24Z</time>
      </trkpt>
      <trkpt lat="62.635874740944" lon="17.986060895574">
        <ele>71.4</ele>
        <time>2018-02-20T19:14:25Z</time>
      </trkpt>
      <trkpt lat="62.635853953832" lon="17.986079084297">
        <ele>71.4</ele>
        <time>2018-02-20T19:14:26Z</time>
      </trkpt>
      <trkpt lat="62.635836184204" lon="17.986101547789">
        <ele>71.6</ele>
        <time>2018-02-20T19:14:27Z</time>
      </trkpt>
      <trkpt lat="62.635820929146" lon="17.986117138123">
        <ele>71.6</ele>
        <time>2018-02-20T19:14:28Z</time>
      </trkpt>
      <trkpt lat="62.635803997708" lon="17.986126358213">
        <ele>71.8</ele>
        <time>2018-02-20T19:14:29Z</time>
      </trkpt>
      <trkpt lat="62.635789245564" lon="17.986150581904">
        <ele>71.8</ele>
        <time>2018-02-20T19:14:30Z</time>
      </trkpt>
      <trkpt lat="62.635773822868" lon="17.986179583278">
        <ele>72</ele>
        <time>2018-02-20T19:14:31Z</time>
      </trkpt>
      <trkpt lat="62.635750940281" lon="17.986213865249">
        <ele>72</ele>
        <time>2018-02-20T19:14:32Z</time>
      </trkpt>
      <trkpt lat="62.635734595576" lon="17.986240352053">
        <ele>72.2</ele>
        <time>2018-02-20T19:14:33Z</time>
      </trkpt>
      <trkpt lat="62.635723615287" lon="17.986267174133">
        <ele>72.2</ele>
        <time>2018-02-20T19:14:34Z</time>
      </trkpt>
      <trkpt lat="62.635715317206" lon="17.986301288466">
        <ele>72.2</ele>
        <time>2018-02-20T19:14:35Z</time>
      </trkpt>
      <trkpt lat="62.635701319433" lon="17.986335738075">
        <ele>72.6</ele>
        <time>2018-02-20T19:14:36Z</time>
      </trkpt>
      <trkpt lat="62.635686148194" lon="17.986368176028">
        <ele>72.8</ele>
        <time>2018-02-20T19:14:37Z</time>
      </trkpt>
      <trkpt lat="62.635670222584" lon="17.986405307845">
        <ele>73</ele>
        <time>2018-02-20T19:14:38Z</time>
      </trkpt>
      <trkpt lat="62.635660080485" lon="17.986439086902">
        <ele>73.2</ele>
        <time>2018-02-20T19:14:39Z</time>
      </trkpt>
      <trkpt lat="62.635644238694" lon="17.986484181524">
        <ele>73.4</ele>
        <time>2018-02-20T19:14:40Z</time>
      </trkpt>
      <trkpt lat="62.635631246749" lon="17.986516451839">
        <ele>73.4</ele>
        <time>2018-02-20T19:14:41Z</time>
      </trkpt>
      <trkpt lat="62.63561356094" lon="17.986560540633">
        <ele>73.4</ele>
        <time>2018-02-20T19:14:42Z</time>
      </trkpt>
      <trkpt lat="62.635594953122" lon="17.986613262784">
        <ele>73.4</ele>
        <time>2018-02-20T19:14:43Z</time>
      </trkpt>
      <trkpt lat="62.635586319765" lon="17.986653663542">
        <ele>73.6</ele>
        <time>2018-02-20T19:14:44Z</time>
      </trkpt>
      <trkpt lat="62.635571986716" lon="17.986703116752">
        <ele>73.6</ele>
        <time>2018-02-20T19:14:45Z</time>
      </trkpt>
      <trkpt lat="62.635556899296" lon="17.986752402324">
        <ele>73.6</ele>
        <time>2018-02-20T19:14:46Z</time>
      </trkpt>
      <trkpt lat="62.635543488256" lon="17.986792216349">
        <ele>73.6</ele>
        <time>2018-02-20T19:14:47Z</time>
      </trkpt>
      <trkpt lat="62.635531669777" lon="17.986826665958">
        <ele>73.6</ele>
        <time>2018-02-20T19:14:48Z</time>
      </trkpt>
      <trkpt lat="62.635513900149" lon="17.986876286806">
        <ele>73.8</ele>
        <time>2018-02-20T19:14:49Z</time>
      </trkpt>
      <trkpt lat="62.635503087498" lon="17.986916436107">
        <ele>74</ele>
        <time>2018-02-20T19:14:50Z</time>
      </trkpt>
      <trkpt lat="62.635488251535" lon="17.986960692539">
        <ele>74.2</ele>
        <time>2018-02-20T19:14:51Z</time>
      </trkpt>
      <trkpt lat="62.635470481907" lon="17.987014001423">
        <ele>74.4</ele>
        <time>2018-02-20T19:14:52Z</time>
      </trkpt>
      <trkpt lat="62.635456987048" lon="17.987053228715">
        <ele>74.6</ele>
        <time>2018-02-20T19:14:53Z</time>
      </trkpt>
      <trkpt lat="62.635437373402" lon="17.987091785455">
        <ele>74.6</ele>
        <time>2018-02-20T19:14:54Z</time>
      </trkpt>
      <trkpt lat="62.635417592118" lon="17.987132353851">
        <ele>74.6</ele>
        <time>2018-02-20T19:14:55Z</time>
      </trkpt>
      <trkpt lat="62.635402923793" lon="17.987164624166">
        <ele>74.6</ele>
        <time>2018-02-20T19:14:56Z</time>
      </trkpt>
      <trkpt lat="62.635384148337" lon="17.987195721015">
        <ele>74.8</ele>
        <time>2018-02-20T19:14:57Z</time>
      </trkpt>
      <trkpt lat="62.635362355397" lon="17.987234277755">
        <ele>75</ele>
        <time>2018-02-20T19:14:58Z</time>
      </trkpt>
      <trkpt lat="62.635348944357" lon="17.987266380432">
        <ele>75</ele>
        <time>2018-02-20T19:14:59Z</time>
      </trkpt>
      <trkpt lat="62.635332180557" lon="17.987303763706">
        <ele>75.2</ele>
        <time>2018-02-20T19:15:00Z</time>
      </trkpt>
      <trkpt lat="62.635311980178" lon="17.987344835016">
        <ele>75.4</ele>
        <time>2018-02-20T19:15:01Z</time>
      </trkpt>
      <trkpt lat="62.635295384016" lon="17.987384229946">
        <ele>75.4</ele>
        <time>2018-02-20T19:15:02Z</time>
      </trkpt>
      <trkpt lat="62.635276273284" lon="17.987419266288">
        <ele>75.4</ele>
        <time>2018-02-20T19:15:03Z</time>
      </trkpt>
      <trkpt lat="62.635252971602" lon="17.987463606539">
        <ele>75.6</ele>
        <time>2018-02-20T19:15:04Z</time>
      </trkpt>
      <trkpt lat="62.635234866698" lon="17.987496631225">
        <ele>75.6</ele>
        <time>2018-02-20T19:15:05Z</time>
      </trkpt>
      <trkpt lat="62.635219360183" lon="17.987525129685">
        <ele>75.8</ele>
        <time>2018-02-20T19:15:06Z</time>
      </trkpt>
      <trkpt lat="62.635198740709" lon="17.987562764416">
        <ele>75.8</ele>
        <time>2018-02-20T19:15:07Z</time>
      </trkpt>
      <trkpt lat="62.63518021671" lon="17.987598974224">
        <ele>76</ele>
        <time>2018-02-20T19:15:08Z</time>
      </trkpt>
      <trkpt lat="62.635168314412" lon="17.987625041933">
        <ele>76.2</ele>
        <time>2018-02-20T19:15:09Z</time>
      </trkpt>
      <trkpt lat="62.635151634431" lon="17.987664772139">
        <ele>76.2</ele>
        <time>2018-02-20T19:15:10Z</time>
      </trkpt>
      <trkpt lat="62.635130512043" lon="17.987703328879">
        <ele>76.4</ele>
        <time>2018-02-20T19:15:11Z</time>
      </trkpt>
      <trkpt lat="62.635116346632" lon="17.98773509628">
        <ele>76.6</ele>
        <time>2018-02-20T19:15:12Z</time>
      </trkpt>
      <trkpt lat="62.635103019411" lon="17.987762672731">
        <ele>76.6</ele>
        <time>2018-02-20T19:15:13Z</time>
      </trkpt>
      <trkpt lat="62.635083321946" lon="17.987796367969">
        <ele>76.8</ele>
        <time>2018-02-20T19:15:14Z</time>
      </trkpt>
      <trkpt lat="62.635065636137" lon="17.987828722103">
        <ele>77</ele>
        <time>2018-02-20T19:15:15Z</time>
      </trkpt>
      <trkpt lat="62.635052560373" lon="17.987852610518">
        <ele>77</ele>
        <time>2018-02-20T19:15:16Z</time>
      </trkpt>
      <trkpt lat="62.635030013062" lon="17.987887227765">
        <ele>77.2</ele>
        <time>2018-02-20T19:15:17Z</time>
      </trkpt>
      <trkpt lat="62.635008974493" lon="17.987922599383">
        <ele>77.2</ele>
        <time>2018-02-20T19:15:18Z</time>
      </trkpt>
      <trkpt lat="62.63499497672" lon="17.987952355128">
        <ele>77.4</ele>
        <time>2018-02-20T19:15:19Z</time>
      </trkpt>
      <trkpt lat="62.634974608703" lon="17.98798236233">
        <ele>77.4</ele>
        <time>2018-02-20T19:15:20Z</time>
      </trkpt>
      <trkpt lat="62.634952648125" lon="17.988002311252">
        <ele>77.4</ele>
        <time>2018-02-20T19:15:21Z</time>
      </trkpt>
      <trkpt lat="62.63493378885" lon="17.988028043685">
        <ele>77.6</ele>
        <time>2018-02-20T19:15:22Z</time>
      </trkpt>
      <trkpt lat="62.634913420833" lon="17.988055536317">
        <ele>77.6</ele>
        <time>2018-02-20T19:15:23Z</time>
      </trkpt>
      <trkpt lat="62.634892298445" lon="17.988076491067">
        <ele>77.8</ele>
        <time>2018-02-20T19:15:24Z</time>
      </trkpt>
      <trkpt lat="62.634866649831" lon="17.98810389988">
        <ele>78</ele>
        <time>2018-02-20T19:15:25Z</time>
      </trkpt>
      <trkpt lat="62.634848964022" lon="17.988122591517">
        <ele>78</ele>
        <time>2018-02-20T19:15:26Z</time>
      </trkpt>
      <trkpt lat="62.634827590177" lon="17.988140864059">
        <ele>78.2</ele>
        <time>2018-02-20T19:15:27Z</time>
      </trkpt>
      <trkpt lat="62.634806551608" lon="17.988152766357">
        <ele>78.4</ele>
        <time>2018-02-20T19:15:28Z</time>
      </trkpt>
      <trkpt lat="62.634788446704" lon="17.988167267044">
        <ele>78.4</ele>
        <time>2018-02-20T19:15:29Z</time>
      </trkpt>
      <trkpt lat="62.634765899393" lon="17.988174643116">
        <ele>78.6</ele>
        <time>2018-02-20T19:15:30Z</time>
      </trkpt>
      <trkpt lat="62.634747878308" lon="17.988171374175">
        <ele>78.6</ele>
        <time>2018-02-20T19:15:31Z</time>
      </trkpt>
      <trkpt lat="62.634731449784" lon="17.988167686139">
        <ele>78.8</ele>
        <time>2018-02-20T19:15:32Z</time>
      </trkpt>
      <trkpt lat="62.634707393731" lon="17.988163998103">
        <ele>78.8</ele>
        <time>2018-02-20T19:15:33Z</time>
      </trkpt>
      <trkpt lat="62.634687947723" lon="17.988167853777">
        <ele>79</ele>
        <time>2018-02-20T19:15:34Z</time>
      </trkpt>
      <trkpt lat="62.634667160611" lon="17.988169027243">
        <ele>79</ele>
        <time>2018-02-20T19:15:35Z</time>
      </trkpt>
      <trkpt lat="62.634643858929" lon="17.988173553469">
        <ele>79.2</ele>
        <time>2018-02-20T19:15:36Z</time>
      </trkpt>
      <trkpt lat="62.634621563075" lon="17.988183108835">
        <ele>79.2</ele>
        <time>2018-02-20T19:15:37Z</time>
      </trkpt>
      <trkpt lat="62.634589628036" lon="17.988184449939">
        <ele>79.4</ele>
        <time>2018-02-20T19:15:38Z</time>
      </trkpt>
      <trkpt lat="62.634568757105" lon="17.98818436612">
        <ele>79.4</ele>
        <time>2018-02-20T19:15:39Z</time>
      </trkpt>
      <trkpt lat="62.634546628889" lon="17.988191406916">
        <ele>79.6</ele>
        <time>2018-02-20T19:15:40Z</time>
      </trkpt>
      <trkpt lat="62.634522153741" lon="17.988191658373">
        <ele>79.6</ele>
        <time>2018-02-20T19:15:41Z</time>
      </trkpt>
      <trkpt lat="62.634492146539" lon="17.98819693897">
        <ele>79.6</ele>
        <time>2018-02-20T19:15:42Z</time>
      </trkpt>
      <trkpt lat="62.634474796006" lon="17.988201632834">
        <ele>79.8</ele>
        <time>2018-02-20T19:15:43Z</time>
      </trkpt>
      <trkpt lat="62.634449985582" lon="17.988204398861">
        <ele>79.8</ele>
        <time>2018-02-20T19:15:44Z</time>
      </trkpt>
      <trkpt lat="62.634427019176" lon="17.988204315042">
        <ele>79.8</ele>
        <time>2018-02-20T19:15:45Z</time>
      </trkpt>
      <trkpt lat="62.634407908444" lon="17.988206913431">
        <ele>79.8</ele>
        <time>2018-02-20T19:15:46Z</time>
      </trkpt>
      <trkpt lat="62.634377817423" lon="17.988210098553">
        <ele>80</ele>
        <time>2018-02-20T19:15:47Z</time>
      </trkpt>
      <trkpt lat="62.634353342275" lon="17.988215462969">
        <ele>80</ele>
        <time>2018-02-20T19:15:48Z</time>
      </trkpt>
      <trkpt lat="62.634326184919" lon="17.988219067186">
        <ele>80.2</ele>
        <time>2018-02-20T19:15:49Z</time>
      </trkpt>
      <trkpt lat="62.634298273192" lon="17.988225185973">
        <ele>80.2</ele>
        <time>2018-02-20T19:15:50Z</time>
      </trkpt>
      <trkpt lat="62.634278659546" lon="17.988230298932">
        <ele>80.4</ele>
        <time>2018-02-20T19:15:51Z</time>
      </trkpt>
      <trkpt lat="62.634253765303" lon="17.988229879837">
        <ele>80.4</ele>
        <time>2018-02-20T19:15:52Z</time>
      </trkpt>
      <trkpt lat="62.634230128345" lon="17.988237842642">
        <ele>80.6</ele>
        <time>2018-02-20T19:15:53Z</time>
      </trkpt>
      <trkpt lat="62.634198277125" lon="17.988231807674">
        <ele>80.6</ele>
        <time>2018-02-20T19:15:54Z</time>
      </trkpt>
      <trkpt lat="62.63417019776" lon="17.988223677231">
        <ele>80.6</ele>
        <time>2018-02-20T19:15:55Z</time>
      </trkpt>
      <trkpt lat="62.634149662105" lon="17.988220324471">
        <ele>80.8</ele>
        <time>2018-02-20T19:15:56Z</time>
      </trkpt>
      <trkpt lat="62.634120073998" lon="17.988211272019">
        <ele>80.8</ele>
        <time>2018-02-20T19:15:57Z</time>
      </trkpt>
      <trkpt lat="62.634097778144" lon="17.988205572327">
        <ele>80.8</ele>
        <time>2018-02-20T19:15:58Z</time>
      </trkpt>
      <trkpt lat="62.634076823394" lon="17.988197609522">
        <ele>81</ele>
        <time>2018-02-20T19:15:59Z</time>
      </trkpt>
      <trkpt lat="62.6340494984" lon="17.988182103007">
        <ele>81</ele>
        <time>2018-02-20T19:16:00Z</time>
      </trkpt>
      <trkpt lat="62.634029968573" lon="17.988172547641">
        <ele>81</ele>
        <time>2018-02-20T19:16:01Z</time>
      </trkpt>
      <trkpt lat="62.634005325787" lon="17.988161483533">
        <ele>81.2</ele>
        <time>2018-02-20T19:16:02Z</time>
      </trkpt>
      <trkpt lat="62.633979760992" lon="17.988144719733">
        <ele>81.2</ele>
        <time>2018-02-20T19:16:03Z</time>
      </trkpt>
      <trkpt lat="62.633957716595" lon="17.988131308693">
        <ele>81.2</ele>
        <time>2018-02-20T19:16:04Z</time>
      </trkpt>
      <trkpt lat="62.633932067981" lon="17.988113455246">
        <ele>81.4</ele>
        <time>2018-02-20T19:16:05Z</time>
      </trkpt>
      <trkpt lat="62.633904072435" lon="17.988097445817">
        <ele>81.4</ele>
        <time>2018-02-20T19:16:06Z</time>
      </trkpt>
      <trkpt lat="62.633883452961" lon="17.98808210694">
        <ele>81.4</ele>
        <time>2018-02-20T19:16:07Z</time>
      </trkpt>
      <trkpt lat="62.633861576202" lon="17.988055201041">
        <ele>81.6</ele>
        <time>2018-02-20T19:16:08Z</time>
      </trkpt>
      <trkpt lat="62.633843136022" lon="17.988035419757">
        <ele>81.6</ele>
        <time>2018-02-20T19:16:09Z</time>
      </trkpt>
      <trkpt lat="62.633815559571" lon="17.988018572138">
        <ele>81.6</ele>
        <time>2018-02-20T19:16:10Z</time>
      </trkpt>
      <trkpt lat="62.633791754975" lon="17.987991917696">
        <ele>81.6</ele>
        <time>2018-02-20T19:16:11Z</time>
      </trkpt>
      <trkpt lat="62.633767698922" lon="17.987963503055">
        <ele>81.8</ele>
        <time>2018-02-20T19:16:12Z</time>
      </trkpt>
      <trkpt lat="62.63374523543" lon="17.987946990712">
        <ele>81.8</ele>
        <time>2018-02-20T19:16:13Z</time>
      </trkpt>
      <trkpt lat="62.633715647323" lon="17.987918492252">
        <ele>82</ele>
        <time>2018-02-20T19:16:14Z</time>
      </trkpt>
      <trkpt lat="62.633688070872" lon="17.987892173086">
        <ele>82</ele>
        <time>2018-02-20T19:16:15Z</time>
      </trkpt>
      <trkpt lat="62.633671390891" lon="17.987871302155">
        <ele>82</ele>
        <time>2018-02-20T19:16:16Z</time>
      </trkpt>
      <trkpt lat="62.633648759761" lon="17.987843893342">
        <ele>82.2</ele>
        <time>2018-02-20T19:16:17Z</time>
      </trkpt>
      <trkpt lat="62.633626044812" lon="17.987817490357">
        <ele>82.4</ele>
        <time>2018-02-20T19:16:18Z</time>
      </trkpt>
      <trkpt lat="62.633604084234" lon="17.987789243354">
        <ele>82.6</ele>
        <time>2018-02-20T19:16:19Z</time>
      </trkpt>
      <trkpt lat="62.633582375113" lon="17.987766779862">
        <ele>82.8</ele>
        <time>2018-02-20T19:16:20Z</time>
      </trkpt>
      <trkpt lat="62.633564102571" lon="17.987741382705">
        <ele>83</ele>
        <time>2018-02-20T19:16:21Z</time>
      </trkpt>
      <trkpt lat="62.633546835857" lon="17.987721769059">
        <ele>83.2</ele>
        <time>2018-02-20T19:16:22Z</time>
      </trkpt>
      <trkpt lat="62.633528563315" lon="17.987692013314">
        <ele>83.6</ele>
        <time>2018-02-20T19:16:23Z</time>
      </trkpt>
      <trkpt lat="62.633504926357" lon="17.987664520682">
        <ele>83.6</ele>
        <time>2018-02-20T19:16:24Z</time>
      </trkpt>
      <trkpt lat="62.63348204377" lon="17.987638369154">
        <ele>83.8</ele>
        <time>2018-02-20T19:16:25Z</time>
      </trkpt>
      <trkpt lat="62.633457987717" lon="17.987602075527">
        <ele>83.8</ele>
        <time>2018-02-20T19:16:26Z</time>
      </trkpt>
      <trkpt lat="62.633437032967" lon="17.987563099692">
        <ele>83.8</ele>
        <time>2018-02-20T19:16:27Z</time>
      </trkpt>
      <trkpt lat="62.633417167864" lon="17.987533260128">
        <ele>83.8</ele>
        <time>2018-02-20T19:16:28Z</time>
      </trkpt>
      <trkpt lat="62.633400990797" lon="17.987504761668">
        <ele>83.8</ele>
        <time>2018-02-20T19:16:29Z</time>
      </trkpt>
      <trkpt lat="62.633384562273" lon="17.987476682303">
        <ele>84</ele>
        <time>2018-02-20T19:16:30Z</time>
      </trkpt>
      <trkpt lat="62.633372827613" lon="17.987458158304">
        <ele>84</ele>
        <time>2018-02-20T19:16:31Z</time>
      </trkpt>
      <trkpt lat="62.63335128613" lon="17.987414823881">
        <ele>84.2</ele>
        <time>2018-02-20T19:16:32Z</time>
      </trkpt>
      <trkpt lat="62.633335025244" lon="17.987373165838">
        <ele>84.4</ele>
        <time>2018-02-20T19:16:33Z</time>
      </trkpt>
      <trkpt lat="62.633314070494" lon="17.987317342384">
        <ele>84.8</ele>
        <time>2018-02-20T19:16:34Z</time>
      </trkpt>
      <trkpt lat="62.633293953934" lon="17.987260429283">
        <ele>85.2</ele>
        <time>2018-02-20T19:16:35Z</time>
      </trkpt>
      <trkpt lat="62.633271574261" lon="17.987181974699">
        <ele>85.4</ele>
        <time>2018-02-20T19:16:36Z</time>
      </trkpt>
      <trkpt lat="62.633247182932" lon="17.987067394126">
        <ele>85.2</ele>
        <time>2018-02-20T19:16:37Z</time>
      </trkpt>
      <trkpt lat="62.633227317829" lon="17.986960273444">
        <ele>84.6</ele>
        <time>2018-02-20T19:16:38Z</time>
      </trkpt>
      <trkpt lat="62.633210218753" lon="17.986857092255">
        <ele>83.6</ele>
        <time>2018-02-20T19:16:39Z</time>
      </trkpt>
      <trkpt lat="62.633195550428" lon="17.986759862215">
        <ele>82.8</ele>
        <time>2018-02-20T19:16:40Z</time>
      </trkpt>
      <trkpt lat="62.633192281487" lon="17.986661039614">
        <ele>82</ele>
        <time>2018-02-20T19:16:41Z</time>
      </trkpt>
      <trkpt lat="62.633187503804" lon="17.986548135421">
        <ele>81.6</ele>
        <time>2018-02-20T19:16:42Z</time>
      </trkpt>
      <trkpt lat="62.633168141615" lon="17.986458952005">
        <ele>81.6</ele>
        <time>2018-02-20T19:16:43Z</time>
      </trkpt>
      <trkpt lat="62.633160262629" lon="17.986371277331">
        <ele>81.8</ele>
        <time>2018-02-20T19:16:44Z</time>
      </trkpt>
      <trkpt lat="62.633154730575" lon="17.986271532721">
        <ele>81.8</ele>
        <time>2018-02-20T19:16:45Z</time>
      </trkpt>
      <trkpt lat="62.633153221833" lon="17.986175895242">
        <ele>82</ele>
        <time>2018-02-20T19:16:46Z</time>
      </trkpt>
      <trkpt lat="62.633153389471" lon="17.986050669656">
        <ele>82</ele>
        <time>2018-02-20T19:16:47Z</time>
      </trkpt>
      <trkpt lat="62.633157161326" lon="17.98594053149">
        <ele>81.4</ele>
        <time>2018-02-20T19:16:48Z</time>
      </trkpt>
      <trkpt lat="62.633157999516" lon="17.985828297849">
        <ele>80.8</ele>
        <time>2018-02-20T19:16:49Z</time>
      </trkpt>
      <trkpt lat="62.633153892385" lon="17.985717908226">
        <ele>80.2</ele>
        <time>2018-02-20T19:16:50Z</time>
      </trkpt>
      <trkpt lat="62.633152886557" lon="17.985625874964">
        <ele>79.8</ele>
        <time>2018-02-20T19:16:51Z</time>
      </trkpt>
      <trkpt lat="62.633143247372" lon="17.985522945232">
        <ele>79.6</ele>
        <time>2018-02-20T19:16:52Z</time>
      </trkpt>
      <trkpt lat="62.633131847988" lon="17.985441976078">
        <ele>79.6</ele>
        <time>2018-02-20T19:16:53Z</time>
      </trkpt>
      <trkpt lat="62.633131261255" lon="17.985345751866">
        <ele>79.8</ele>
        <time>2018-02-20T19:16:54Z</time>
      </trkpt>
      <trkpt lat="62.633144839933" lon="17.985222537936">
        <ele>79.8</ele>
        <time>2018-02-20T19:16:55Z</time>
      </trkpt>
      <trkpt lat="62.633158418611" lon="17.985101670938">
        <ele>79.8</ele>
        <time>2018-02-20T19:16:56Z</time>
      </trkpt>
      <trkpt lat="62.633172667841" lon="17.984964207778">
        <ele>79.4</ele>
        <time>2018-02-20T19:16:57Z</time>
      </trkpt>
      <trkpt lat="62.63319035365" lon="17.984843089323">
        <ele>78.2</ele>
        <time>2018-02-20T19:16:58Z</time>
      </trkpt>
      <trkpt lat="62.633213655332" lon="17.984732364424">
        <ele>77.2</ele>
        <time>2018-02-20T19:16:59Z</time>
      </trkpt>
      <trkpt lat="62.633237795204" lon="17.984625830475">
        <ele>76.4</ele>
        <time>2018-02-20T19:17:00Z</time>
      </trkpt>
      <trkpt lat="62.63325824704" lon="17.984530863548">
        <ele>75.8</ele>
        <time>2018-02-20T19:17:01Z</time>
      </trkpt>
      <trkpt lat="62.633269814062" lon="17.984419635735">
        <ele>76</ele>
        <time>2018-02-20T19:17:02Z</time>
      </trkpt>
      <trkpt lat="62.633284733844" lon="17.984335230002">
        <ele>76.2</ele>
        <time>2018-02-20T19:17:03Z</time>
      </trkpt>
      <trkpt lat="62.633296384685" lon="17.984254009391">
        <ele>76.4</ele>
        <time>2018-02-20T19:17:04Z</time>
      </trkpt>
      <trkpt lat="62.633305101861" lon="17.984178237015">
        <ele>76.6</ele>
        <time>2018-02-20T19:17:06Z</time>
      </trkpt>
      <trkpt lat="62.63330434749" lon="17.984112942014">
        <ele>76.8</ele>
        <time>2018-02-20T19:17:07Z</time>
      </trkpt>
      <trkpt lat="62.633308622259" lon="17.984021579304">
        <ele>77.2</ele>
        <time>2018-02-20T19:17:08Z</time>
      </trkpt>
      <trkpt lat="62.633312394114" lon="17.983957206312">
        <ele>77.2</ele>
        <time>2018-02-20T19:17:09Z</time>
      </trkpt>
      <trkpt lat="62.633322368575" lon="17.983885121972">
        <ele>77.2</ele>
        <time>2018-02-20T19:17:10Z</time>
      </trkpt>
      <trkpt lat="62.633327649172" lon="17.983818569686">
        <ele>77.2</ele>
        <time>2018-02-20T19:17:11Z</time>
      </trkpt>
      <trkpt lat="62.63333033138" lon="17.983766769544">
        <ele>77.2</ele>
        <time>2018-02-20T19:17:12Z</time>
      </trkpt>
      <trkpt lat="62.63333871328" lon="17.98370424057">
        <ele>77.2</ele>
        <time>2018-02-20T19:17:13Z</time>
      </trkpt>
      <trkpt lat="62.633343239506" lon="17.983642130691">
        <ele>77.2</ele>
        <time>2018-02-20T19:17:14Z</time>
      </trkpt>
      <trkpt lat="62.633354387433" lon="17.983586391056">
        <ele>77.2</ele>
        <time>2018-02-20T19:17:15Z</time>
      </trkpt>
      <trkpt lat="62.633366876464" lon="17.983528639765">
        <ele>77.2</ele>
        <time>2018-02-20T19:17:16Z</time>
      </trkpt>
      <trkpt lat="62.633379114038" lon="17.983478348365">
        <ele>77.4</ele>
        <time>2018-02-20T19:17:17Z</time>
      </trkpt>
      <trkpt lat="62.633397051304" lon="17.983411628441">
        <ele>77.4</ele>
        <time>2018-02-20T19:17:18Z</time>
      </trkpt>
      <trkpt lat="62.633410210887" lon="17.983350775847">
        <ele>77.4</ele>
        <time>2018-02-20T19:17:19Z</time>
      </trkpt>
      <trkpt lat="62.63342420866" lon="17.983297634601">
        <ele>77.6</ele>
        <time>2018-02-20T19:17:20Z</time>
      </trkpt>
      <trkpt lat="62.633441726831" lon="17.983236865826">
        <ele>77.6</ele>
        <time>2018-02-20T19:17:21Z</time>
      </trkpt>
      <trkpt lat="62.633454970233" lon="17.983182299657">
        <ele>77.6</ele>
        <time>2018-02-20T19:17:22Z</time>
      </trkpt>
      <trkpt lat="62.633469219463" lon="17.983128487859">
        <ele>77.6</ele>
        <time>2018-02-20T19:17:23Z</time>
      </trkpt>
      <trkpt lat="62.633483384874" lon="17.983069479283">
        <ele>77.6</ele>
        <time>2018-02-20T19:17:24Z</time>
      </trkpt>
      <trkpt lat="62.633489755118" lon="17.983012650001">
        <ele>77.6</ele>
        <time>2018-02-20T19:17:25Z</time>
      </trkpt>
      <trkpt lat="62.633502076511" lon="17.98294903138">
        <ele>77.6</ele>
        <time>2018-02-20T19:17:26Z</time>
      </trkpt>
      <trkpt lat="62.633517163931" lon="17.982893207926">
        <ele>77.6</ele>
        <time>2018-02-20T19:17:27Z</time>
      </trkpt>
      <trkpt lat="62.633529317686" lon="17.982834786083">
        <ele>77.6</ele>
        <time>2018-02-20T19:17:28Z</time>
      </trkpt>
      <trkpt lat="62.633544153649" lon="17.982770161634">
        <ele>77.6</ele>
        <time>2018-02-20T19:17:29Z</time>
      </trkpt>
      <trkpt lat="62.633556810318" lon="17.98270008895">
        <ele>77.6</ele>
        <time>2018-02-20T19:17:30Z</time>
      </trkpt>
      <trkpt lat="62.633567036236" lon="17.982645522781">
        <ele>77.6</ele>
        <time>2018-02-20T19:17:31Z</time>
      </trkpt>
      <trkpt lat="62.633576843059" lon="17.98259280063">
        <ele>77.6</ele>
        <time>2018-02-20T19:17:32Z</time>
      </trkpt>
      <trkpt lat="62.633578100344" lon="17.982530690751">
        <ele>77.6</ele>
        <time>2018-02-20T19:17:33Z</time>
      </trkpt>
      <trkpt lat="62.633580112" lon="17.982475034935">
        <ele>77.6</ele>
        <time>2018-02-20T19:17:34Z</time>
      </trkpt>
      <trkpt lat="62.63359017028" lon="17.982412086866">
        <ele>77.6</ele>
        <time>2018-02-20T19:17:35Z</time>
      </trkpt>
      <trkpt lat="62.633598887456" lon="17.98235391648">
        <ele>77.6</ele>
        <time>2018-02-20T19:17:36Z</time>
      </trkpt>
      <trkpt lat="62.633610119202" lon="17.982289962583">
        <ele>77.6</ele>
        <time>2018-02-20T19:17:37Z</time>
      </trkpt>
      <trkpt lat="62.633610705935" lon="17.98221310056">
        <ele>77.6</ele>
        <time>2018-02-20T19:17:38Z</time>
      </trkpt>
      <trkpt lat="62.633613136686" lon="17.982141686772">
        <ele>77.6</ele>
        <time>2018-02-20T19:17:39Z</time>
      </trkpt>
      <trkpt lat="62.63361699236" lon="17.982081672368">
        <ele>77.6</ele>
        <time>2018-02-20T19:17:40Z</time>
      </trkpt>
      <trkpt lat="62.633621770043" lon="17.982015622996">
        <ele>77.6</ele>
        <time>2018-02-20T19:17:41Z</time>
      </trkpt>
      <trkpt lat="62.633626715364" lon="17.981945550312">
        <ele>77.6</ele>
        <time>2018-02-20T19:17:42Z</time>
      </trkpt>
      <trkpt lat="62.63362872702" lon="17.981871705773">
        <ele>77.8</ele>
        <time>2018-02-20T19:17:43Z</time>
      </trkpt>
      <trkpt lat="62.63363543254" lon="17.981805404944">
        <ele>77.8</ele>
        <time>2018-02-20T19:17:44Z</time>
      </trkpt>
      <trkpt lat="62.633637025101" lon="17.981735248441">
        <ele>77.8</ele>
        <time>2018-02-20T19:17:45Z</time>
      </trkpt>
      <trkpt lat="62.633634510531" lon="17.981664672843">
        <ele>78</ele>
        <time>2018-02-20T19:17:46Z</time>
      </trkpt>
      <trkpt lat="62.633647251019" lon="17.981615806366">
        <ele>78</ele>
        <time>2018-02-20T19:17:47Z</time>
      </trkpt>
      <trkpt lat="62.633656806385" lon="17.981538273791">
        <ele>78.2</ele>
        <time>2018-02-20T19:17:48Z</time>
      </trkpt>
      <trkpt lat="62.633662589896" lon="17.981477588835">
        <ele>78.2</ele>
        <time>2018-02-20T19:17:49Z</time>
      </trkpt>
      <trkpt lat="62.633671726167" lon="17.981417071517">
        <ele>78</ele>
        <time>2018-02-20T19:17:50Z</time>
      </trkpt>
      <trkpt lat="62.633688070872" lon="17.981348339937">
        <ele>78.2</ele>
        <time>2018-02-20T19:17:51Z</time>
      </trkpt>
      <trkpt lat="62.633703912663" lon="17.981288912266">
        <ele>78</ele>
        <time>2018-02-20T19:17:52Z</time>
      </trkpt>
      <trkpt lat="62.63371757516" lon="17.981227137663">
        <ele>78</ele>
        <time>2018-02-20T19:17:53Z</time>
      </trkpt>
      <trkpt lat="62.633735428607" lon="17.981167626173">
        <ele>78</ele>
        <time>2018-02-20T19:17:54Z</time>
      </trkpt>
      <trkpt lat="62.633751270398" lon="17.981114987841">
        <ele>78</ele>
        <time>2018-02-20T19:17:55Z</time>
      </trkpt>
      <trkpt lat="62.633761915411" lon="17.981064025889">
        <ele>78</ele>
        <time>2018-02-20T19:17:56Z</time>
      </trkpt>
      <trkpt lat="62.633777254288" lon="17.981022367846">
        <ele>78</ele>
        <time>2018-02-20T19:17:57Z</time>
      </trkpt>
      <trkpt lat="62.633792676984" lon="17.980978111414">
        <ele>78.2</ele>
        <time>2018-02-20T19:17:58Z</time>
      </trkpt>
      <trkpt lat="62.633814469924" lon="17.980927652376">
        <ele>78.2</ele>
        <time>2018-02-20T19:17:59Z</time>
      </trkpt>
      <trkpt lat="62.63383911271" lon="17.98088205484">
        <ele>78.4</ele>
        <time>2018-02-20T19:18:00Z</time>
      </trkpt>
      <trkpt lat="62.633867024437" lon="17.980834529467">
        <ele>78.6</ele>
        <time>2018-02-20T19:18:01Z</time>
      </trkpt>
      <trkpt lat="62.633885967531" lon="17.980784489524">
        <ele>79</ele>
        <time>2018-02-20T19:18:02Z</time>
      </trkpt>
      <trkpt lat="62.633901474046" lon="17.980724139844">
        <ele>79</ele>
        <time>2018-02-20T19:18:03Z</time>
      </trkpt>
      <trkpt lat="62.633921087692" lon="17.980665131268">
        <ele>79</ele>
        <time>2018-02-20T19:18:04Z</time>
      </trkpt>
      <trkpt lat="62.633939863148" lon="17.980610397461">
        <ele>79</ele>
        <time>2018-02-20T19:18:05Z</time>
      </trkpt>
      <trkpt lat="62.633955956396" lon="17.980555496016">
        <ele>79</ele>
        <time>2018-02-20T19:18:06Z</time>
      </trkpt>
      <trkpt lat="62.6339740613" lon="17.980501851856">
        <ele>79</ele>
        <time>2018-02-20T19:18:07Z</time>
      </trkpt>
      <trkpt lat="62.633994345498" lon="17.980447118049">
        <ele>79.2</ele>
        <time>2018-02-20T19:18:08Z</time>
      </trkpt>
      <trkpt lat="62.634017730999" lon="17.980395988459">
        <ele>79</ele>
        <time>2018-02-20T19:18:09Z</time>
      </trkpt>
      <trkpt lat="62.634044720717" lon="17.980343266308">
        <ele>79.2</ele>
        <time>2018-02-20T19:18:10Z</time>
      </trkpt>
      <trkpt lat="62.634067687123" lon="17.980294735107">
        <ele>79.2</ele>
        <time>2018-02-20T19:18:11Z</time>
      </trkpt>
      <trkpt lat="62.634093000461" lon="17.980249891942">
        <ele>79.2</ele>
        <time>2018-02-20T19:18:12Z</time>
      </trkpt>
      <trkpt lat="62.634118900532" lon="17.980211921935">
        <ele>79.4</ele>
        <time>2018-02-20T19:18:13Z</time>
      </trkpt>
      <trkpt lat="62.634139268549" lon="17.98017210791">
        <ele>79.4</ele>
        <time>2018-02-20T19:18:14Z</time>
      </trkpt>
      <trkpt lat="62.634164498068" lon="17.980124582537">
        <ele>79.4</ele>
        <time>2018-02-20T19:18:15Z</time>
      </trkpt>
      <trkpt lat="62.634177406194" lon="17.980080577562">
        <ele>79.6</ele>
        <time>2018-02-20T19:18:16Z</time>
      </trkpt>
      <trkpt lat="62.634179585488" lon="17.980039338614">
        <ele>79.6</ele>
        <time>2018-02-20T19:18:17Z</time>
      </trkpt>
      <trkpt lat="62.63421881278" lon="17.979974378889">
        <ele>79.6</ele>
        <time>2018-02-20T19:18:18Z</time>
      </trkpt>
      <trkpt lat="62.634237169141" lon="17.979912436648">
        <ele>79.6</ele>
        <time>2018-02-20T19:18:19Z</time>
      </trkpt>
      <trkpt lat="62.634255944597" lon="17.9798544339">
        <ele>79.6</ele>
        <time>2018-02-20T19:18:20Z</time>
      </trkpt>
      <trkpt lat="62.634273630406" lon="17.979788971261">
        <ele>79.4</ele>
        <time>2018-02-20T19:18:21Z</time>
      </trkpt>
      <trkpt lat="62.634281509392" lon="17.979729375952">
        <ele>79.4</ele>
        <time>2018-02-20T19:18:22Z</time>
      </trkpt>
      <trkpt lat="62.634303134694" lon="17.979655363775">
        <ele>79.4</ele>
        <time>2018-02-20T19:18:23Z</time>
      </trkpt>
      <trkpt lat="62.634313025336" lon="17.979584704358">
        <ele>79.4</ele>
        <time>2018-02-20T19:18:24Z</time>
      </trkpt>
      <trkpt lat="62.634322580702" lon="17.979525779601">
        <ele>79.4</ele>
        <time>2018-02-20T19:18:25Z</time>
      </trkpt>
      <trkpt lat="62.634334063905" lon="17.979461490428">
        <ele>79.6</ele>
        <time>2018-02-20T19:18:26Z</time>
      </trkpt>
      <trkpt lat="62.63434454128" lon="17.979405834612">
        <ele>79.4</ele>
        <time>2018-02-20T19:18:27Z</time>
      </trkpt>
      <trkpt lat="62.634361388899" lon="17.979345149656">
        <ele>79.6</ele>
        <time>2018-02-20T19:18:28Z</time>
      </trkpt>
      <trkpt lat="62.634373375016" lon="17.979293517152">
        <ele>79.4</ele>
        <time>2018-02-20T19:18:29Z</time>
      </trkpt>
      <trkpt lat="62.63438225983" lon="17.979245488865">
        <ele>79.4</ele>
        <time>2018-02-20T19:18:30Z</time>
      </trkpt>
      <trkpt lat="62.634396341422" lon="17.979181702606">
        <ele>79.4</ele>
        <time>2018-02-20T19:18:31Z</time>
      </trkpt>
      <trkpt lat="62.634404304227" lon="17.979131578844">
        <ele>79.4</ele>
        <time>2018-02-20T19:18:32Z</time>
      </trkpt>
      <trkpt lat="62.634417966724" lon="17.979061589979">
        <ele>79.4</ele>
        <time>2018-02-20T19:18:33Z</time>
      </trkpt>
      <trkpt lat="62.634428611737" lon="17.978997971358">
        <ele>79.4</ele>
        <time>2018-02-20T19:18:34Z</time>
      </trkpt>
      <trkpt lat="62.634441855139" lon="17.97893745404">
        <ele>79.4</ele>
        <time>2018-02-20T19:18:35Z</time>
      </trkpt>
      <trkpt lat="62.634453589799" lon="17.978871069392">
        <ele>79.4</ele>
        <time>2018-02-20T19:18:36Z</time>
      </trkpt>
      <trkpt lat="62.634463396622" lon="17.978818179603">
        <ele>79.4</ele>
        <time>2018-02-20T19:18:37Z</time>
      </trkpt>
      <trkpt lat="62.634476220929" lon="17.978751292041">
        <ele>79.4</ele>
        <time>2018-02-20T19:18:38Z</time>
      </trkpt>
      <trkpt lat="62.634487955589" lon="17.978684488298">
        <ele>79.4</ele>
        <time>2018-02-20T19:18:39Z</time>
      </trkpt>
      <trkpt lat="62.634499522611" lon="17.978625898817">
        <ele>79.4</ele>
        <time>2018-02-20T19:18:40Z</time>
      </trkpt>
      <trkpt lat="62.634513268927" lon="17.978548114785">
        <ele>79.4</ele>
        <time>2018-02-20T19:18:41Z</time>
      </trkpt>
      <trkpt lat="62.634520812637" lon="17.978475695169">
        <ele>79.2</ele>
        <time>2018-02-20T19:18:42Z</time>
      </trkpt>
      <trkpt lat="62.634534139858" lon="17.978392295264">
        <ele>79</ele>
        <time>2018-02-20T19:18:43Z</time>
      </trkpt>
      <trkpt lat="62.634550987477" lon="17.978305207323">
        <ele>79</ele>
        <time>2018-02-20T19:18:44Z</time>
      </trkpt>
      <trkpt lat="62.634565991078" lon="17.978227004196">
        <ele>78.8</ele>
        <time>2018-02-20T19:18:45Z</time>
      </trkpt>
      <trkpt lat="62.634582084326" lon="17.978140754445">
        <ele>78.6</ele>
        <time>2018-02-20T19:18:46Z</time>
      </trkpt>
      <trkpt lat="62.634595411547" lon="17.978062635137">
        <ele>78.6</ele>
        <time>2018-02-20T19:18:47Z</time>
      </trkpt>
      <trkpt lat="62.634608487311" lon="17.977969009314">
        <ele>78.4</ele>
        <time>2018-02-20T19:18:48Z</time>
      </trkpt>
      <trkpt lat="62.634619635238" lon="17.977902959942">
        <ele>78.2</ele>
        <time>2018-02-20T19:18:49Z</time>
      </trkpt>
      <trkpt lat="62.634631034622" lon="17.977825930281">
        <ele>78</ele>
        <time>2018-02-20T19:18:50Z</time>
      </trkpt>
      <trkpt lat="62.634642517825" lon="17.977746637507">
        <ele>77.8</ele>
        <time>2018-02-20T19:18:51Z</time>
      </trkpt>
      <trkpt lat="62.634654587761" lon="17.977678073565">
        <ele>77.8</ele>
        <time>2018-02-20T19:18:52Z</time>
      </trkpt>
      <trkpt lat="62.634670681009" lon="17.977599116067">
        <ele>77.8</ele>
        <time>2018-02-20T19:18:53Z</time>
      </trkpt>
      <trkpt lat="62.634681828936" lon="17.977527283184">
        <ele>77.8</ele>
        <time>2018-02-20T19:18:54Z</time>
      </trkpt>
      <trkpt lat="62.634694150329" lon="17.977456539948">
        <ele>77.8</ele>
        <time>2018-02-20T19:18:55Z</time>
      </trkpt>
      <trkpt lat="62.634706136446" lon="17.977389903843">
        <ele>77.6</ele>
        <time>2018-02-20T19:18:56Z</time>
      </trkpt>
      <trkpt lat="62.634716110907" lon="17.977338271339">
        <ele>77.6</ele>
        <time>2018-02-20T19:18:57Z</time>
      </trkpt>
      <trkpt lat="62.634731868879" lon="17.977268701569">
        <ele>77.6</ele>
        <time>2018-02-20T19:18:58Z</time>
      </trkpt>
      <trkpt lat="62.634743603539" lon="17.977198880342">
        <ele>77.6</ele>
        <time>2018-02-20T19:18:59Z</time>
      </trkpt>
      <trkpt lat="62.634755589656" lon="17.977126879821">
        <ele>77.6</ele>
        <time>2018-02-20T19:19:00Z</time>
      </trkpt>
      <trkpt lat="62.63476950361" lon="17.9770464974">
        <ele>77.4</ele>
        <time>2018-02-20T19:19:01Z</time>
      </trkpt>
      <trkpt lat="62.634778807519" lon="17.976981621494">
        <ele>77.4</ele>
        <time>2018-02-20T19:19:02Z</time>
      </trkpt>
      <trkpt lat="62.634792470016" lon="17.976897048123">
        <ele>77.6</ele>
        <time>2018-02-20T19:19:03Z</time>
      </trkpt>
      <trkpt lat="62.634807725074" lon="17.976826807801">
        <ele>77.6</ele>
        <time>2018-02-20T19:19:04Z</time>
      </trkpt>
      <trkpt lat="62.634819543553" lon="17.97676402737">
        <ele>77.6</ele>
        <time>2018-02-20T19:19:05Z</time>
      </trkpt>
      <trkpt lat="62.634835385344" lon="17.976678029076">
        <ele>77.6</ele>
        <time>2018-02-20T19:19:06Z</time>
      </trkpt>
      <trkpt lat="62.634850556583" lon="17.976607956392">
        <ele>77.4</ele>
        <time>2018-02-20T19:19:07Z</time>
      </trkpt>
      <trkpt lat="62.634864554356" lon="17.976539140993">
        <ele>77.2</ele>
        <time>2018-02-20T19:19:08Z</time>
      </trkpt>
      <trkpt lat="62.634878887405" lon="17.976466302282">
        <ele>77</ele>
        <time>2018-02-20T19:19:09Z</time>
      </trkpt>
      <trkpt lat="62.634893471911" lon="17.976394050304">
        <ele>77</ele>
        <time>2018-02-20T19:19:10Z</time>
      </trkpt>
      <trkpt lat="62.634913169376" lon="17.976320541041">
        <ele>76.8</ele>
        <time>2018-02-20T19:19:11Z</time>
      </trkpt>
      <trkpt lat="62.634935716687" lon="17.976243762837">
        <ele>76.8</ele>
        <time>2018-02-20T19:19:12Z</time>
      </trkpt>
      <trkpt lat="62.6349547436" lon="17.976162961321">
        <ele>76.8</ele>
        <time>2018-02-20T19:19:13Z</time>
      </trkpt>
      <trkpt lat="62.634976033626" lon="17.976079729054">
        <ele>76.6</ele>
        <time>2018-02-20T19:19:14Z</time>
      </trkpt>
      <trkpt lat="62.634992545969" lon="17.975999430452">
        <ele>76.6</ele>
        <time>2018-02-20T19:19:15Z</time>
      </trkpt>
      <trkpt lat="62.635008723036" lon="17.975905804629">
        <ele>76.4</ele>
        <time>2018-02-20T19:19:16Z</time>
      </trkpt>
      <trkpt lat="62.635022050257" lon="17.975819722516">
        <ele>76.2</ele>
        <time>2018-02-20T19:19:17Z</time>
      </trkpt>
      <trkpt lat="62.635036215668" lon="17.97572467177">
        <ele>76</ele>
        <time>2018-02-20T19:19:18Z</time>
      </trkpt>
      <trkpt lat="62.63504862088" lon="17.975639427847">
        <ele>76</ele>
        <time>2018-02-20T19:19:19Z</time>
      </trkpt>
      <trkpt lat="62.63505951735" lon="17.975555525028">
        <ele>75.8</ele>
        <time>2018-02-20T19:19:20Z</time>
      </trkpt>
      <trkpt lat="62.635068234526" lon="17.975476818987">
        <ele>75.6</ele>
        <time>2018-02-20T19:19:21Z</time>
      </trkpt>
      <trkpt lat="62.63507460477" lon="17.975391994159">
        <ele>75.2</ele>
        <time>2018-02-20T19:19:22Z</time>
      </trkpt>
      <trkpt lat="62.635077370797" lon="17.975288310056">
        <ele>75.4</ele>
        <time>2018-02-20T19:19:23Z</time>
      </trkpt>
      <trkpt lat="62.635075191503" lon="17.975185128867">
        <ele>75</ele>
        <time>2018-02-20T19:19:24Z</time>
      </trkpt>
      <trkpt lat="62.635064630309" lon="17.975085216619">
        <ele>74.6</ele>
        <time>2018-02-20T19:19:25Z</time>
      </trkpt>
      <trkpt lat="62.635045519577" lon="17.974990752606">
        <ele>74.2</ele>
        <time>2018-02-20T19:19:26Z</time>
      </trkpt>
      <trkpt lat="62.63502598975" lon="17.974907939434">
        <ele>73.8</ele>
        <time>2018-02-20T19:19:27Z</time>
      </trkpt>
      <trkpt lat="62.635007130475" lon="17.974826802642">
        <ele>73.2</ele>
        <time>2018-02-20T19:19:28Z</time>
      </trkpt>
      <trkpt lat="62.634986343363" lon="17.974732673905">
        <ele>73.2</ele>
        <time>2018-02-20T19:19:29Z</time>
      </trkpt>
      <trkpt lat="62.634959102188" lon="17.974633264571">
        <ele>73</ele>
        <time>2018-02-20T19:19:30Z</time>
      </trkpt>
      <trkpt lat="62.634943930949" lon="17.974544081155">
        <ele>72.6</ele>
        <time>2018-02-20T19:19:31Z</time>
      </trkpt>
      <trkpt lat="62.634924233484" lon="17.974457412309">
        <ele>72.2</ele>
        <time>2018-02-20T19:19:32Z</time>
      </trkpt>
      <trkpt lat="62.634894142463" lon="17.97436177483">
        <ele>72.2</ele>
        <time>2018-02-20T19:19:33Z</time>
      </trkpt>
      <trkpt lat="62.634874109722" lon="17.974283990798">
        <ele>72</ele>
        <time>2018-02-20T19:19:34Z</time>
      </trkpt>
      <trkpt lat="62.634852735877" lon="17.974198663056">
        <ele>71.8</ele>
        <time>2018-02-20T19:19:35Z</time>
      </trkpt>
      <trkpt lat="62.634832032584" lon="17.974117945359">
        <ele>72</ele>
        <time>2018-02-20T19:19:36Z</time>
      </trkpt>
      <trkpt lat="62.634815520241" lon="17.97404912996">
        <ele>72.2</ele>
        <time>2018-02-20T19:19:37Z</time>
      </trkpt>
      <trkpt lat="62.634796074233" lon="17.97396950191">
        <ele>72.2</ele>
        <time>2018-02-20T19:19:38Z</time>
      </trkpt>
      <trkpt lat="62.634770593257" lon="17.973905548013">
        <ele>72.2</ele>
        <time>2018-02-20T19:19:39Z</time>
      </trkpt>
      <trkpt lat="62.634748632679" lon="17.973824159764">
        <ele>72.2</ele>
        <time>2018-02-20T19:19:40Z</time>
      </trkpt>
      <trkpt lat="62.634731114508" lon="17.97375492527">
        <ele>72</ele>
        <time>2018-02-20T19:19:41Z</time>
      </trkpt>
      <trkpt lat="62.634715188898" lon="17.973684014396">
        <ele>72</ele>
        <time>2018-02-20T19:19:42Z</time>
      </trkpt>
      <trkpt lat="62.634702951324" lon="17.973590137116">
        <ele>72</ele>
        <time>2018-02-20T19:19:43Z</time>
      </trkpt>
      <trkpt lat="62.634689456465" lon="17.973510257609">
        <ele>71.8</ele>
        <time>2018-02-20T19:19:44Z</time>
      </trkpt>
      <trkpt lat="62.634682164212" lon="17.973424426953">
        <ele>71.8</ele>
        <time>2018-02-20T19:19:45Z</time>
      </trkpt>
      <trkpt lat="62.634673027941" lon="17.973355024821">
        <ele>71.6</ele>
        <time>2018-02-20T19:19:46Z</time>
      </trkpt>
      <trkpt lat="62.634677973262" lon="17.973282856662">
        <ele>71.6</ele>
        <time>2018-02-20T19:19:47Z</time>
      </trkpt>
      <trkpt lat="62.634688702094" lon="17.97319166159">
        <ele>71.4</ele>
        <time>2018-02-20T19:19:48Z</time>
      </trkpt>
      <trkpt lat="62.634695072338" lon="17.973117146499">
        <ele>71.4</ele>
        <time>2018-02-20T19:19:49Z</time>
      </trkpt>
      <trkpt lat="62.634712925785" lon="17.973028968911">
        <ele>71.4</ele>
        <time>2018-02-20T19:19:50Z</time>
      </trkpt>
      <trkpt lat="62.63473262325" lon="17.972945401368">
        <ele>71.2</ele>
        <time>2018-02-20T19:19:51Z</time>
      </trkpt>
      <trkpt lat="62.634754500009" lon="17.972870886277">
        <ele>71.2</ele>
        <time>2018-02-20T19:19:52Z</time>
      </trkpt>
      <trkpt lat="62.634780316261" lon="17.972777679549">
        <ele>71.2</ele>
        <time>2018-02-20T19:19:53Z</time>
      </trkpt>
      <trkpt lat="62.634801271011" lon="17.97270215863">
        <ele>70.8</ele>
        <time>2018-02-20T19:19:54Z</time>
      </trkpt>
      <trkpt lat="62.63483152967" lon="17.97261414868">
        <ele>70.8</ele>
        <time>2018-02-20T19:19:55Z</time>
      </trkpt>
      <trkpt lat="62.634860531044" lon="17.97253368244">
        <ele>70.8</ele>
        <time>2018-02-20T19:19:56Z</time>
      </trkpt>
      <trkpt lat="62.634884419459" lon="17.972467297792">
        <ele>70.8</ele>
        <time>2018-02-20T19:19:57Z</time>
      </trkpt>
      <trkpt lat="62.634913085557" lon="17.972386077181">
        <ele>70.6</ele>
        <time>2018-02-20T19:19:58Z</time>
      </trkpt>
      <trkpt lat="62.634933705031" lon="17.972310807719">
        <ele>70.4</ele>
        <time>2018-02-20T19:19:59Z</time>
      </trkpt>
      <trkpt lat="62.634961952034" lon="17.972228413642">
        <ele>70.4</ele>
        <time>2018-02-20T19:20:00Z</time>
      </trkpt>
      <trkpt lat="62.63499413853" lon="17.972144594642">
        <ele>70.4</ele>
        <time>2018-02-20T19:20:01Z</time>
      </trkpt>
      <trkpt lat="62.635020876791" lon="17.972053064294">
        <ele>70.2</ele>
        <time>2018-02-20T19:20:02Z</time>
      </trkpt>
      <trkpt lat="62.635045351939" lon="17.9719335384">
        <ele>70.2</ele>
        <time>2018-02-20T19:20:03Z</time>
      </trkpt>
      <trkpt lat="62.63506287011" lon="17.971810659746">
        <ele>70.2</ele>
        <time>2018-02-20T19:20:04Z</time>
      </trkpt>
      <trkpt lat="62.635077706073" lon="17.971696498268">
        <ele>69.8</ele>
        <time>2018-02-20T19:20:05Z</time>
      </trkpt>
      <trkpt lat="62.635092290579" lon="17.97157646946">
        <ele>69.6</ele>
        <time>2018-02-20T19:20:06Z</time>
      </trkpt>
      <trkpt lat="62.635105450162" lon="17.971467253303">
        <ele>68.6</ele>
        <time>2018-02-20T19:20:07Z</time>
      </trkpt>
      <trkpt lat="62.63512070522" lon="17.97134512902">
        <ele>67.2</ele>
        <time>2018-02-20T19:20:08Z</time>
      </trkpt>
      <trkpt lat="62.635132942794" lon="17.971233817388">
        <ele>66.4</ele>
        <time>2018-02-20T19:20:09Z</time>
      </trkpt>
      <trkpt lat="62.635147611119" lon="17.971108675621">
        <ele>65.2</ele>
        <time>2018-02-20T19:20:10Z</time>
      </trkpt>
      <trkpt lat="62.635162698539" lon="17.970991329021">
        <ele>64.6</ele>
        <time>2018-02-20T19:20:11Z</time>
      </trkpt>
      <trkpt lat="62.63517686395" lon="17.970876832267">
        <ele>64.4</ele>
        <time>2018-02-20T19:20:12Z</time>
      </trkpt>
      <trkpt lat="62.63519195137" lon="17.970754372708">
        <ele>64</ele>
        <time>2018-02-20T19:20:13Z</time>
      </trkpt>
      <trkpt lat="62.635206871152" lon="17.970638786307">
        <ele>63.6</ele>
        <time>2018-02-20T19:20:14Z</time>
      </trkpt>
      <trkpt lat="62.635220701287" lon="17.970517584033">
        <ele>63.4</ele>
        <time>2018-02-20T19:20:15Z</time>
      </trkpt>
      <trkpt lat="62.635232771223" lon="17.970399231605">
        <ele>63.2</ele>
        <time>2018-02-20T19:20:16Z</time>
      </trkpt>
      <trkpt lat="62.635247104272" lon="17.97029320057">
        <ele>63</ele>
        <time>2018-02-20T19:20:17Z</time>
      </trkpt>
      <trkpt lat="62.635268729574" lon="17.970163867853">
        <ele>62.8</ele>
        <time>2018-02-20T19:20:18Z</time>
      </trkpt>
      <trkpt lat="62.635292785627" lon="17.970043336131">
        <ele>62.4</ele>
        <time>2018-02-20T19:20:19Z</time>
      </trkpt>
      <trkpt lat="62.635319272431" lon="17.969927330635">
        <ele>62.4</ele>
        <time>2018-02-20T19:20:20Z</time>
      </trkpt>
      <trkpt lat="62.635347267977" lon="17.969815935184">
        <ele>62.2</ele>
        <time>2018-02-20T19:20:21Z</time>
      </trkpt>
      <trkpt lat="62.635373251867" lon="17.969716609669">
        <ele>62.2</ele>
        <time>2018-02-20T19:20:22Z</time>
      </trkpt>
      <trkpt lat="62.635403929621" lon="17.969601358544">
        <ele>62</ele>
        <time>2018-02-20T19:20:23Z</time>
      </trkpt>
      <trkpt lat="62.63542915914" lon="17.969505721065">
        <ele>61.8</ele>
        <time>2018-02-20T19:20:24Z</time>
      </trkpt>
      <trkpt lat="62.635458160514" lon="17.969394912347">
        <ele>61.8</ele>
        <time>2018-02-20T19:20:25Z</time>
      </trkpt>
      <trkpt lat="62.635486323698" lon="17.969290222416">
        <ele>61.4</ele>
        <time>2018-02-20T19:20:26Z</time>
      </trkpt>
      <trkpt lat="62.63551465452" lon="17.969188214693">
        <ele>60.6</ele>
        <time>2018-02-20T19:20:27Z</time>
      </trkpt>
      <trkpt lat="62.635547427749" lon="17.969073466482">
        <ele>59.8</ele>
        <time>2018-02-20T19:20:28Z</time>
      </trkpt>
      <trkpt lat="62.635580536254" lon="17.968967351628">
        <ele>58.6</ele>
        <time>2018-02-20T19:20:29Z</time>
      </trkpt>
      <trkpt lat="62.6356169137" lon="17.968867271742">
        <ele>57.6</ele>
        <time>2018-02-20T19:20:30Z</time>
      </trkpt>
      <trkpt lat="62.635656224811" lon="17.968771466625">
        <ele>56.8</ele>
        <time>2018-02-20T19:20:31Z</time>
      </trkpt>
      <trkpt lat="62.635694697732" lon="17.968685971245">
        <ele>56</ele>
        <time>2018-02-20T19:20:32Z</time>
      </trkpt>
      <trkpt lat="62.635742809838" lon="17.968601397874">
        <ele>55.4</ele>
        <time>2018-02-20T19:20:33Z</time>
      </trkpt>
      <trkpt lat="62.635790502849" lon="17.968542976031">
        <ele>54.8</ele>
        <time>2018-02-20T19:20:34Z</time>
      </trkpt>
      <trkpt lat="62.635844817561" lon="17.968503245825">
        <ele>54.6</ele>
        <time>2018-02-20T19:20:35Z</time>
      </trkpt>
      <trkpt lat="62.635945567999" lon="17.968467036017">
        <ele>54</ele>
        <time>2018-02-20T19:20:37Z</time>
      </trkpt>
      <trkpt lat="62.635991836087" lon="17.968452283873">
        <ele>53.8</ele>
        <time>2018-02-20T19:20:38Z</time>
      </trkpt>
      <trkpt lat="62.636030811922" lon="17.968446584181">
        <ele>53.8</ele>
        <time>2018-02-20T19:20:39Z</time>
      </trkpt>
      <trkpt lat="62.63607288906" lon="17.968458570298">
        <ele>53.8</ele>
        <time>2018-02-20T19:20:40Z</time>
      </trkpt>
      <trkpt lat="62.636113457456" lon="17.968470388777">
        <ele>53.8</ele>
        <time>2018-02-20T19:20:41Z</time>
      </trkpt>
      <trkpt lat="62.636144638124" lon="17.968480614695">
        <ele>54</ele>
        <time>2018-02-20T19:20:42Z</time>
      </trkpt>
      <trkpt lat="62.636184452149" lon="17.968502323816">
        <ele>54</ele>
        <time>2018-02-20T19:20:43Z</time>
      </trkpt>
      <trkpt lat="62.636223847079" lon="17.968530067905">
        <ele>54.2</ele>
        <time>2018-02-20T19:20:44Z</time>
      </trkpt>
      <trkpt lat="62.636257709955" lon="17.968549849189">
        <ele>54.4</ele>
        <time>2018-02-20T19:20:45Z</time>
      </trkpt>
      <trkpt lat="62.636288220071" lon="17.968565942437">
        <ele>54.2</ele>
        <time>2018-02-20T19:20:46Z</time>
      </trkpt>
      <trkpt lat="62.636327531182" lon="17.968611372335">
        <ele>54.6</ele>
        <time>2018-02-20T19:20:47Z</time>
      </trkpt>
      <trkpt lat="62.63635871185" lon="17.968646241039">
        <ele>54.4</ele>
        <time>2018-02-20T19:20:48Z</time>
      </trkpt>
      <trkpt lat="62.636386623577" lon="17.968692760584">
        <ele>54.4</ele>
        <time>2018-02-20T19:20:49Z</time>
      </trkpt>
      <trkpt lat="62.636415624951" lon="17.968739028672">
        <ele>54.2</ele>
        <time>2018-02-20T19:20:50Z</time>
      </trkpt>
      <trkpt lat="62.636439345728" lon="17.968777082498">
        <ele>54.4</ele>
        <time>2018-02-20T19:20:51Z</time>
      </trkpt>
      <trkpt lat="62.636460468116" lon="17.968825194604">
        <ele>54.2</ele>
        <time>2018-02-20T19:20:52Z</time>
      </trkpt>
      <trkpt lat="62.63648527854" lon="17.96888420318">
        <ele>54.4</ele>
        <time>2018-02-20T19:20:53Z</time>
      </trkpt>
      <trkpt lat="62.636504137815" lon="17.968926783232">
        <ele>54.4</ele>
        <time>2018-02-20T19:20:54Z</time>
      </trkpt>
      <trkpt lat="62.636526098393" lon="17.968979505383">
        <ele>54.4</ele>
        <time>2018-02-20T19:20:55Z</time>
      </trkpt>
      <trkpt lat="62.636548897161" lon="17.969027030756">
        <ele>54.4</ele>
        <time>2018-02-20T19:20:56Z</time>
      </trkpt>
      <trkpt lat="62.636565325685" lon="17.969069862265">
        <ele>54.4</ele>
        <time>2018-02-20T19:20:57Z</time>
      </trkpt>
      <trkpt lat="62.636585945159" lon="17.969125266624">
        <ele>54.4</ele>
        <time>2018-02-20T19:20:58Z</time>
      </trkpt>
      <trkpt lat="62.636605055891" lon="17.969183101734">
        <ele>54.4</ele>
        <time>2018-02-20T19:20:59Z</time>
      </trkpt>
      <trkpt lat="62.636620646225" lon="17.969233896048">
        <ele>54.4</ele>
        <time>2018-02-20T19:21:00Z</time>
      </trkpt>
      <trkpt lat="62.636635063093" lon="17.969291982615">
        <ele>54.4</ele>
        <time>2018-02-20T19:21:01Z</time>
      </trkpt>
      <trkpt lat="62.636650485789" lon="17.969343698938">
        <ele>54.4</ele>
        <time>2018-02-20T19:21:02Z</time>
      </trkpt>
      <trkpt lat="62.636664902657" lon="17.969403797161">
        <ele>54.4</ele>
        <time>2018-02-20T19:21:03Z</time>
      </trkpt>
      <trkpt lat="62.636681079724" lon="17.969473366931">
        <ele>54.2</ele>
        <time>2018-02-20T19:21:04Z</time>
      </trkpt>
      <trkpt lat="62.636706057786" lon="17.969577805405">
        <ele>54.4</ele>
        <time>2018-02-20T19:21:06Z</time>
      </trkpt>
      <trkpt lat="62.636716199885" lon="17.969631617203">
        <ele>54.4</ele>
        <time>2018-02-20T19:21:07Z</time>
      </trkpt>
      <trkpt lat="62.636731287305" lon="17.969670844495">
        <ele>54.6</ele>
        <time>2018-02-20T19:21:08Z</time>
      </trkpt>
      <trkpt lat="62.636741680861" lon="17.969726416492">
        <ele>54.8</ele>
        <time>2018-02-20T19:21:09Z</time>
      </trkpt>
      <trkpt lat="62.636754588987" lon="17.969773606589">
        <ele>54.8</ele>
        <time>2018-02-20T19:21:10Z</time>
      </trkpt>
      <trkpt lat="62.63676858676" lon="17.969811660415">
        <ele>54.8</ele>
        <time>2018-02-20T19:21:11Z</time>
      </trkpt>
      <trkpt lat="62.636784428551" lon="17.969860526892">
        <ele>54.8</ele>
        <time>2018-02-20T19:21:12Z</time>
      </trkpt>
      <trkpt lat="62.636809825708" lon="17.969906040609">
        <ele>55</ele>
        <time>2018-02-20T19:21:13Z</time>
      </trkpt>
      <trkpt lat="62.63682726006" lon="17.969943591521">
        <ele>55</ele>
        <time>2018-02-20T19:21:14Z</time>
      </trkpt>
      <trkpt lat="62.636848885362" lon="17.969990697799">
        <ele>55.2</ele>
        <time>2018-02-20T19:21:15Z</time>
      </trkpt>
      <trkpt lat="62.636872103225" lon="17.970018609526">
        <ele>55.2</ele>
        <time>2018-02-20T19:21:16Z</time>
      </trkpt>
      <trkpt lat="62.636894399079" lon="17.970054986972">
        <ele>55.4</ele>
        <time>2018-02-20T19:21:17Z</time>
      </trkpt>
      <trkpt lat="62.636921221159" lon="17.97008868221">
        <ele>55.4</ele>
        <time>2018-02-20T19:21:18Z</time>
      </trkpt>
      <trkpt lat="62.636945947764" lon="17.970116258661">
        <ele>55.4</ele>
        <time>2018-02-20T19:21:19Z</time>
      </trkpt>
      <trkpt lat="62.636966986333" lon="17.970128831511">
        <ele>55.4</ele>
        <time>2018-02-20T19:21:20Z</time>
      </trkpt>
      <trkpt lat="62.63699825082" lon="17.970148277519">
        <ele>55.4</ele>
        <time>2018-02-20T19:21:21Z</time>
      </trkpt>
      <trkpt lat="62.637026833099" lon="17.970157749066">
        <ele>55.6</ele>
        <time>2018-02-20T19:21:22Z</time>
      </trkpt>
      <trkpt lat="62.637064719287" lon="17.97016411931">
        <ele>55.4</ele>
        <time>2018-02-20T19:21:23Z</time>
      </trkpt>
      <trkpt lat="62.637097324878" lon="17.970156827057">
        <ele>55.4</ele>
        <time>2018-02-20T19:21:24Z</time>
      </trkpt>
      <trkpt lat="62.637139653473" lon="17.970139057429">
        <ele>55.4</ele>
        <time>2018-02-20T19:21:25Z</time>
      </trkpt>
      <trkpt lat="62.637170163589" lon="17.970118773231">
        <ele>55.2</ele>
        <time>2018-02-20T19:21:26Z</time>
      </trkpt>
      <trkpt lat="62.637209223243" lon="17.970096980291">
        <ele>55</ele>
        <time>2018-02-20T19:21:27Z</time>
      </trkpt>
      <trkpt lat="62.637251719476" lon="17.970074684437">
        <ele>55</ele>
        <time>2018-02-20T19:21:28Z</time>
      </trkpt>
      <trkpt lat="62.637295053899" lon="17.970055573705">
        <ele>54.6</ele>
        <time>2018-02-20T19:21:29Z</time>
      </trkpt>
      <trkpt lat="62.637337550132" lon="17.970040402466">
        <ele>54.4</ele>
        <time>2018-02-20T19:21:30Z</time>
      </trkpt>
      <trkpt lat="62.637376609786" lon="17.970030344186">
        <ele>54.2</ele>
        <time>2018-02-20T19:21:31Z</time>
      </trkpt>
      <trkpt lat="62.637417848734" lon="17.970021040277">
        <ele>54</ele>
        <time>2018-02-20T19:21:32Z</time>
      </trkpt>
      <trkpt lat="62.637462272804" lon="17.970010395264">
        <ele>53.6</ele>
        <time>2018-02-20T19:21:33Z</time>
      </trkpt>
      <trkpt lat="62.637489849255" lon="17.970021040277">
        <ele>53.4</ele>
        <time>2018-02-20T19:21:34Z</time>
      </trkpt>
      <trkpt lat="62.637533183678" lon="17.970050796022">
        <ele>53.2</ele>
        <time>2018-02-20T19:21:35Z</time>
      </trkpt>
      <trkpt lat="62.637562604147" lon="17.970090107133">
        <ele>52.8</ele>
        <time>2018-02-20T19:21:36Z</time>
      </trkpt>
      <trkpt lat="62.637594790643" lon="17.97013059171">
        <ele>52.8</ele>
        <time>2018-02-20T19:21:37Z</time>
      </trkpt>
      <trkpt lat="62.637621947999" lon="17.970183984413">
        <ele>52.8</ele>
        <time>2018-02-20T19:21:38Z</time>
      </trkpt>
      <trkpt lat="62.637644914405" lon="17.970225558637">
        <ele>52.8</ele>
        <time>2018-02-20T19:21:39Z</time>
      </trkpt>
      <trkpt lat="62.63767131739" lon="17.970292027104">
        <ele>52.6</ele>
        <time>2018-02-20T19:21:40Z</time>
      </trkpt>
      <trkpt lat="62.637699899669" lon="17.970347599101">
        <ele>52.6</ele>
        <time>2018-02-20T19:21:41Z</time>
      </trkpt>
      <trkpt lat="62.637715992917" lon="17.97039462156">
        <ele>52.6</ele>
        <time>2018-02-20T19:21:42Z</time>
      </trkpt>
      <trkpt lat="62.637737702038" lon="17.970459329828">
        <ele>52.6</ele>
        <time>2018-02-20T19:21:43Z</time>
      </trkpt>
      <trkpt lat="62.637753543829" lon="17.970518757499">
        <ele>52.4</ele>
        <time>2018-02-20T19:21:44Z</time>
      </trkpt>
      <trkpt lat="62.637769134163" lon="17.970583298129">
        <ele>52.2</ele>
        <time>2018-02-20T19:21:45Z</time>
      </trkpt>
      <trkpt lat="62.6377794439" lon="17.970638953945">
        <ele>52.2</ele>
        <time>2018-02-20T19:21:46Z</time>
      </trkpt>
      <trkpt lat="62.637790172732" lon="17.970697459607">
        <ele>52</ele>
        <time>2018-02-20T19:21:47Z</time>
      </trkpt>
      <trkpt lat="62.637799644279" lon="17.970746074627">
        <ele>51.8</ele>
        <time>2018-02-20T19:21:48Z</time>
      </trkpt>
      <trkpt lat="62.637808109998" lon="17.970804077375">
        <ele>52</ele>
        <time>2018-02-20T19:21:49Z</time>
      </trkpt>
      <trkpt lat="62.637822862142" lon="17.970867025444">
        <ele>52.2</ele>
        <time>2018-02-20T19:21:50Z</time>
      </trkpt>
      <trkpt lat="62.637836776096" lon="17.970916562473">
        <ele>52.4</ele>
        <time>2018-02-20T19:21:51Z</time>
      </trkpt>
      <trkpt lat="62.6378464991" lon="17.97096459076">
        <ele>52.4</ele>
        <time>2018-02-20T19:21:52Z</time>
      </trkpt>
      <trkpt lat="62.637855467733" lon="17.971018486377">
        <ele>52.4</ele>
        <time>2018-02-20T19:21:53Z</time>
      </trkpt>
      <trkpt lat="62.637873991732" lon="17.971101634825">
        <ele>52.6</ele>
        <time>2018-02-20T19:21:54Z</time>
      </trkpt>
      <trkpt lat="62.637888240962" lon="17.971150082207">
        <ele>52.4</ele>
        <time>2018-02-20T19:21:55Z</time>
      </trkpt>
      <trkpt lat="62.637899891803" lon="17.971223759108">
        <ele>52.4</ele>
        <time>2018-02-20T19:21:56Z</time>
      </trkpt>
      <trkpt lat="62.637912297015" lon="17.9712797502">
        <ele>52.6</ele>
        <time>2018-02-20T19:21:57Z</time>
      </trkpt>
      <trkpt lat="62.637926294788" lon="17.971326269745">
        <ele>52.6</ele>
        <time>2018-02-20T19:21:58Z</time>
      </trkpt>
      <trkpt lat="62.637939202914" lon="17.971376728783">
        <ele>52.6</ele>
        <time>2018-02-20T19:21:59Z</time>
      </trkpt>
      <trkpt lat="62.637951524307" lon="17.971443281069">
        <ele>52.8</ele>
        <time>2018-02-20T19:22:00Z</time>
      </trkpt>
      <trkpt lat="62.637962756053" lon="17.971498266333">
        <ele>52.8</ele>
        <time>2018-02-20T19:22:01Z</time>
      </trkpt>
      <trkpt lat="62.637970970315" lon="17.971541097842">
        <ele>53</ele>
        <time>2018-02-20T19:22:02Z</time>
      </trkpt>
      <trkpt lat="62.637978765482" lon="17.97161754077">
        <ele>53</ele>
        <time>2018-02-20T19:22:03Z</time>
      </trkpt>
      <trkpt lat="62.637989410495" lon="17.971681494667">
        <ele>53.2</ele>
        <time>2018-02-20T19:22:04Z</time>
      </trkpt>
      <trkpt lat="62.637997960033" lon="17.9717323728">
        <ele>53.2</ele>
        <time>2018-02-20T19:22:05Z</time>
      </trkpt>
      <trkpt lat="62.638001312793" lon="17.971810575927">
        <ele>53.2</ele>
        <time>2018-02-20T19:22:06Z</time>
      </trkpt>
      <trkpt lat="62.638003911182" lon="17.97188492338">
        <ele>53.2</ele>
        <time>2018-02-20T19:22:07Z</time>
      </trkpt>
      <trkpt lat="62.638007012485" lon="17.971943345223">
        <ele>53.2</ele>
        <time>2018-02-20T19:22:08Z</time>
      </trkpt>
      <trkpt lat="62.63800240244" lon="17.97201651921">
        <ele>53.2</ele>
        <time>2018-02-20T19:22:09Z</time>
      </trkpt>
      <trkpt lat="62.638002821535" lon="17.972099416201">
        <ele>53.6</ele>
        <time>2018-02-20T19:22:10Z</time>
      </trkpt>
      <trkpt lat="62.638007012485" lon="17.972158005682">
        <ele>53.6</ele>
        <time>2018-02-20T19:22:11Z</time>
      </trkpt>
      <trkpt lat="62.638008102132" lon="17.972226318167">
        <ele>53.6</ele>
        <time>2018-02-20T19:22:12Z</time>
      </trkpt>
      <trkpt lat="62.638008605046" lon="17.972312148823">
        <ele>53.6</ele>
        <time>2018-02-20T19:22:13Z</time>
      </trkpt>
      <trkpt lat="62.638012628358" lon="17.972357159626">
        <ele>53.6</ele>
        <time>2018-02-20T19:22:14Z</time>
      </trkpt>
      <trkpt lat="62.638015059109" lon="17.972406948112">
        <ele>53.6</ele>
        <time>2018-02-20T19:22:15Z</time>
      </trkpt>
      <trkpt lat="62.638016903127" lon="17.972472662208">
        <ele>53.6</ele>
        <time>2018-02-20T19:22:16Z</time>
      </trkpt>
      <trkpt lat="62.638021764629" lon="17.972531922241">
        <ele>53.8</ele>
        <time>2018-02-20T19:22:17Z</time>
      </trkpt>
      <trkpt lat="62.638028134873" lon="17.972574418474">
        <ele>54</ele>
        <time>2018-02-20T19:22:18Z</time>
      </trkpt>
      <trkpt lat="62.638027296683" lon="17.972646670452">
        <ele>54</ele>
        <time>2018-02-20T19:22:19Z</time>
      </trkpt>
      <trkpt lat="62.638029895072" lon="17.97270886415">
        <ele>54.2</ele>
        <time>2018-02-20T19:22:20Z</time>
      </trkpt>
      <trkpt lat="62.638033583108" lon="17.97274993546">
        <ele>54.4</ele>
        <time>2018-02-20T19:22:21Z</time>
      </trkpt>
      <trkpt lat="62.63803425366" lon="17.972802489973">
        <ele>54.4</ele>
        <time>2018-02-20T19:22:22Z</time>
      </trkpt>
      <trkpt lat="62.638036265316" lon="17.972881028376">
        <ele>54.6</ele>
        <time>2018-02-20T19:22:23Z</time>
      </trkpt>
      <trkpt lat="62.638037857877" lon="17.972928721387">
        <ele>54.6</ele>
        <time>2018-02-20T19:22:24Z</time>
      </trkpt>
      <trkpt lat="62.638047999976" lon="17.97298043771">
        <ele>54.6</ele>
        <time>2018-02-20T19:22:25Z</time>
      </trkpt>
      <trkpt lat="62.638049424899" lon="17.973045397435">
        <ele>54.6</ele>
        <time>2018-02-20T19:22:26Z</time>
      </trkpt>
      <trkpt lat="62.638049424899" lon="17.973106920581">
        <ele>54.8</ele>
        <time>2018-02-20T19:22:27Z</time>
      </trkpt>
      <trkpt lat="62.638052190926" lon="17.973159475094">
        <ele>55</ele>
        <time>2018-02-20T19:22:28Z</time>
      </trkpt>
      <trkpt lat="62.638053783487" lon="17.973214208901">
        <ele>55</ele>
        <time>2018-02-20T19:22:29Z</time>
      </trkpt>
      <trkpt lat="62.638052023288" lon="17.97327548059">
        <ele>55.4</ele>
        <time>2018-02-20T19:22:30Z</time>
      </trkpt>
      <trkpt lat="62.638051185098" lon="17.97334085941">
        <ele>55.6</ele>
        <time>2018-02-20T19:22:31Z</time>
      </trkpt>
      <trkpt lat="62.638048419071" lon="17.973394000656">
        <ele>55.8</ele>
        <time>2018-02-20T19:22:32Z</time>
      </trkpt>
      <trkpt lat="62.638050682184" lon="17.97343725126">
        <ele>56</ele>
        <time>2018-02-20T19:22:33Z</time>
      </trkpt>
      <trkpt lat="62.63804682651" lon="17.973503803546">
        <ele>56.2</ele>
        <time>2018-02-20T19:22:34Z</time>
      </trkpt>
      <trkpt lat="62.638043557569" lon="17.973572283669">
        <ele>56.4</ele>
        <time>2018-02-20T19:22:35Z</time>
      </trkpt>
      <trkpt lat="62.63804598832" lon="17.973618887033">
        <ele>56.6</ele>
        <time>2018-02-20T19:22:36Z</time>
      </trkpt>
      <trkpt lat="62.638041042999" lon="17.973690133183">
        <ele>56.6</ele>
        <time>2018-02-20T19:22:37Z</time>
      </trkpt>
      <trkpt lat="62.638042467922" lon="17.973749560854">
        <ele>56.8</ele>
        <time>2018-02-20T19:22:38Z</time>
      </trkpt>
      <trkpt lat="62.638042467922" lon="17.973809575258">
        <ele>56.8</ele>
        <time>2018-02-20T19:22:39Z</time>
      </trkpt>
      <trkpt lat="62.638045736863" lon="17.973861040124">
        <ele>57</ele>
        <time>2018-02-20T19:22:40Z</time>
      </trkpt>
      <trkpt lat="62.638049173442" lon="17.97393010698">
        <ele>57</ele>
        <time>2018-02-20T19:22:41Z</time>
      </trkpt>
      <trkpt lat="62.638054118763" lon="17.973984086416">
        <ele>57</ele>
        <time>2018-02-20T19:22:42Z</time>
      </trkpt>
      <trkpt lat="62.638058393532" lon="17.974033623445">
        <ele>57</ele>
        <time>2018-02-20T19:22:43Z</time>
      </trkpt>
      <trkpt lat="62.638062584482" lon="17.97408349575">
        <ele>57</ele>
        <time>2018-02-20T19:22:44Z</time>
      </trkpt>
      <trkpt lat="62.638069709097" lon="17.974133368055">
        <ele>56.8</ele>
        <time>2018-02-20T19:22:45Z</time>
      </trkpt>
      <trkpt lat="62.638073229495" lon="17.974198914513">
        <ele>57</ele>
        <time>2018-02-20T19:22:46Z</time>
      </trkpt>
      <trkpt lat="62.638074738237" lon="17.974259599469">
        <ele>57</ele>
        <time>2018-02-20T19:22:47Z</time>
      </trkpt>
      <trkpt lat="62.638076246979" lon="17.974317434579">
        <ele>56.8</ele>
        <time>2018-02-20T19:22:48Z</time>
      </trkpt>
      <trkpt lat="62.638074151504" lon="17.97438692053">
        <ele>56.8</ele>
        <time>2018-02-20T19:22:49Z</time>
      </trkpt>
      <trkpt lat="62.638072642762" lon="17.974435787007">
        <ele>56.8</ele>
        <time>2018-02-20T19:22:50Z</time>
      </trkpt>
      <trkpt lat="62.638068451812" lon="17.974500998189">
        <ele>56.8</ele>
        <time>2018-02-20T19:22:51Z</time>
      </trkpt>
      <trkpt lat="62.638065099052" lon="17.974557492195">
        <ele>56.6</ele>
        <time>2018-02-20T19:22:52Z</time>
      </trkpt>
      <trkpt lat="62.638060489007" lon="17.974616836047">
        <ele>56.8</ele>
        <time>2018-02-20T19:22:53Z</time>
      </trkpt>
      <trkpt lat="62.638052107107" lon="17.974676682813">
        <ele>56.8</ele>
        <time>2018-02-20T19:22:54Z</time>
      </trkpt>
      <trkpt lat="62.63804598832" lon="17.974728566774">
        <ele>56.8</ele>
        <time>2018-02-20T19:22:55Z</time>
      </trkpt>
      <trkpt lat="62.638033499289" lon="17.974786318065">
        <ele>57</ele>
        <time>2018-02-20T19:22:56Z</time>
      </trkpt>
      <trkpt lat="62.638017657498" lon="17.974843482623">
        <ele>57</ele>
        <time>2018-02-20T19:22:57Z</time>
      </trkpt>
      <trkpt lat="62.638001731888" lon="17.974891762367">
        <ele>57</ele>
        <time>2018-02-20T19:22:58Z</time>
      </trkpt>
      <trkpt lat="62.637987985572" lon="17.974934090962">
        <ele>57.2</ele>
        <time>2018-02-20T19:22:59Z</time>
      </trkpt>
      <trkpt lat="62.63796887484" lon="17.974976754833">
        <ele>57.2</ele>
        <time>2018-02-20T19:23:00Z</time>
      </trkpt>
      <trkpt lat="62.637946076072" lon="17.975017323229">
        <ele>57.2</ele>
        <time>2018-02-20T19:23:01Z</time>
      </trkpt>
      <trkpt lat="62.637926043331" lon="17.975058143082">
        <ele>57.6</ele>
        <time>2018-02-20T19:23:02Z</time>
      </trkpt>
      <trkpt lat="62.637906681142" lon="17.975093598519">
        <ele>57.6</ele>
        <time>2018-02-20T19:23:03Z</time>
      </trkpt>
      <trkpt lat="62.637891090808" lon="17.975121510246">
        <ele>57.6</ele>
        <time>2018-02-20T19:23:04Z</time>
      </trkpt>
      <trkpt lat="62.637870387515" lon="17.97515973171">
        <ele>57.8</ele>
        <time>2018-02-20T19:23:05Z</time>
      </trkpt>
      <trkpt lat="62.637846582919" lon="17.975205748341">
        <ele>58</ele>
        <time>2018-02-20T19:23:06Z</time>
      </trkpt>
      <trkpt lat="62.637829819119" lon="17.975238773027">
        <ele>58</ele>
        <time>2018-02-20T19:23:07Z</time>
      </trkpt>
      <trkpt lat="62.637813306776" lon="17.975276491577">
        <ele>58</ele>
        <time>2018-02-20T19:23:08Z</time>
      </trkpt>
      <trkpt lat="62.637789585999" lon="17.975320831828">
        <ele>58.2</ele>
        <time>2018-02-20T19:23:09Z</time>
      </trkpt>
      <trkpt lat="62.637767373964" lon="17.975357125455">
        <ele>58.2</ele>
        <time>2018-02-20T19:23:10Z</time>
      </trkpt>
      <trkpt lat="62.63775010725" lon="17.975381432965">
        <ele>58.4</ele>
        <time>2018-02-20T19:23:11Z</time>
      </trkpt>
      <trkpt lat="62.637734097821" lon="17.975407416855">
        <ele>58.6</ele>
        <time>2018-02-20T19:23:12Z</time>
      </trkpt>
      <trkpt lat="62.637713478347" lon="17.975431472908">
        <ele>58.8</ele>
        <time>2018-02-20T19:23:13Z</time>
      </trkpt>
      <trkpt lat="62.637698223289" lon="17.975450164545">
        <ele>59</ele>
        <time>2018-02-20T19:23:14Z</time>
      </trkpt>
      <trkpt lat="62.637680286023" lon="17.975467263621">
        <ele>59.2</ele>
        <time>2018-02-20T19:23:15Z</time>
      </trkpt>
      <trkpt lat="62.63766545006" lon="17.97548914038">
        <ele>59.6</ele>
        <time>2018-02-20T19:23:16Z</time>
      </trkpt>
      <trkpt lat="62.637646423147" lon="17.975502635239">
        <ele>59.8</ele>
        <time>2018-02-20T19:23:17Z</time>
      </trkpt>
      <trkpt lat="62.637627144777" lon="17.975518979944">
        <ele>60.2</ele>
        <time>2018-02-20T19:23:18Z</time>
      </trkpt>
      <trkpt lat="62.637599316869" lon="17.97553524083">
        <ele>60.4</ele>
        <time>2018-02-20T19:23:19Z</time>
      </trkpt>
      <trkpt lat="62.637572997703" lon="17.97554529911">
        <ele>60.6</ele>
        <time>2018-02-20T19:23:20Z</time>
      </trkpt>
      <trkpt lat="62.637555144256" lon="17.975560973263">
        <ele>60.8</ele>
        <time>2018-02-20T19:23:21Z</time>
      </trkpt>
      <trkpt lat="62.637533518954" lon="17.97557547395">
        <ele>60.8</ele>
        <time>2018-02-20T19:23:22Z</time>
      </trkpt>
      <trkpt lat="62.637507954159" lon="17.97559307594">
        <ele>61</ele>
        <time>2018-02-20T19:23:23Z</time>
      </trkpt>
      <trkpt lat="62.63748440102" lon="17.975605062057">
        <ele>60.8</ele>
        <time>2018-02-20T19:23:24Z</time>
      </trkpt>
      <trkpt lat="62.637459758234" lon="17.975618389278">
        <ele>61</ele>
        <time>2018-02-20T19:23:25Z</time>
      </trkpt>
      <trkpt lat="62.637439893131" lon="17.975636745639">
        <ele>61.2</ele>
        <time>2018-02-20T19:23:26Z</time>
      </trkpt>
      <trkpt lat="62.637425224806" lon="17.975647055376">
        <ele>61.2</ele>
        <time>2018-02-20T19:23:27Z</time>
      </trkpt>
      <trkpt lat="62.637405275884" lon="17.975662561891">
        <ele>61.4</ele>
        <time>2018-02-20T19:23:28Z</time>
      </trkpt>
      <trkpt lat="62.637383482944" lon="17.975673877456">
        <ele>61.6</ele>
        <time>2018-02-20T19:23:29Z</time>
      </trkpt>
      <trkpt lat="62.637356325588" lon="17.97569784969">
        <ele>62</ele>
        <time>2018-02-20T19:23:30Z</time>
      </trkpt>
      <trkpt lat="62.637334951743" lon="17.975716038413">
        <ele>62.2</ele>
        <time>2018-02-20T19:23:31Z</time>
      </trkpt>
      <trkpt lat="62.637317433572" lon="17.975739088638">
        <ele>62.4</ele>
        <time>2018-02-20T19:23:32Z</time>
      </trkpt>
      <trkpt lat="62.637292958424" lon="17.975763815243">
        <ele>62.4</ele>
        <time>2018-02-20T19:23:33Z</time>
      </trkpt>
      <trkpt lat="62.637269908199" lon="17.975786194916">
        <ele>62.6</ele>
        <time>2018-02-20T19:23:34Z</time>
      </trkpt>
      <trkpt lat="62.637247696164" lon="17.975812597901">
        <ele>62.8</ele>
        <time>2018-02-20T19:23:35Z</time>
      </trkpt>
      <trkpt lat="62.637230680907" lon="17.975836486316">
        <ele>63</ele>
        <time>2018-02-20T19:23:36Z</time>
      </trkpt>
      <trkpt lat="62.637215509668" lon="17.975860961464">
        <ele>63.2</ele>
        <time>2018-02-20T19:23:37Z</time>
      </trkpt>
      <trkpt lat="62.637200757524" lon="17.97588728063">
        <ele>63.4</ele>
        <time>2018-02-20T19:23:38Z</time>
      </trkpt>
      <trkpt lat="62.637186340656" lon="17.975919886221">
        <ele>63.6</ele>
        <time>2018-02-20T19:23:39Z</time>
      </trkpt>
      <trkpt lat="62.637171420874" lon="17.975952743269">
        <ele>63.8</ele>
        <time>2018-02-20T19:23:40Z</time>
      </trkpt>
      <trkpt lat="62.637158512748" lon="17.975987276697">
        <ele>64</ele>
        <time>2018-02-20T19:23:41Z</time>
      </trkpt>
      <trkpt lat="62.637145101708" lon="17.976021558668">
        <ele>64.2</ele>
        <time>2018-02-20T19:23:42Z</time>
      </trkpt>
      <trkpt lat="62.63713068484" lon="17.976071095697">
        <ele>64.4</ele>
        <time>2018-02-20T19:23:43Z</time>
      </trkpt>
      <trkpt lat="62.637121129474" lon="17.976119794536">
        <ele>64.8</ele>
        <time>2018-02-20T19:23:44Z</time>
      </trkpt>
      <trkpt lat="62.637117692895" lon="17.976161704036">
        <ele>64.8</ele>
        <time>2018-02-20T19:23:45Z</time>
      </trkpt>
      <trkpt lat="62.637103527484" lon="17.976228843055">
        <ele>65</ele>
        <time>2018-02-20T19:23:46Z</time>
      </trkpt>
      <trkpt lat="62.637097324878" lon="17.976269998184">
        <ele>65</ele>
        <time>2018-02-20T19:23:47Z</time>
      </trkpt>
      <trkpt lat="62.637092463376" lon="17.976314003159">
        <ele>65.2</ele>
        <time>2018-02-20T19:23:48Z</time>
      </trkpt>
      <trkpt lat="62.637084835847" lon="17.976363288731">
        <ele>65.4</ele>
        <time>2018-02-20T19:23:49Z</time>
      </trkpt>
      <trkpt lat="62.637073185006" lon="17.976420118013">
        <ele>65.4</ele>
        <time>2018-02-20T19:23:50Z</time>
      </trkpt>
      <trkpt lat="62.637072262997" lon="17.976464961178">
        <ele>65.4</ele>
        <time>2018-02-20T19:23:51Z</time>
      </trkpt>
      <trkpt lat="62.637068910237" lon="17.976498488778">
        <ele>65.4</ele>
        <time>2018-02-20T19:23:52Z</time>
      </trkpt>
      <trkpt lat="62.637058349043" lon="17.976574177335">
        <ele>65.4</ele>
        <time>2018-02-20T19:23:53Z</time>
      </trkpt>
      <trkpt lat="62.63705273317" lon="17.976615500102">
        <ele>65.6</ele>
        <time>2018-02-20T19:23:54Z</time>
      </trkpt>
      <trkpt lat="62.637043345442" lon="17.976677861438">
        <ele>65.8</ele>
        <time>2018-02-20T19:23:55Z</time>
      </trkpt>
      <trkpt lat="62.637040579415" lon="17.976739300765">
        <ele>66</ele>
        <time>2018-02-20T19:23:56Z</time>
      </trkpt>
      <trkpt lat="62.637040495596" lon="17.976776935496">
        <ele>66</ele>
        <time>2018-02-20T19:23:57Z</time>
      </trkpt>
      <trkpt lat="62.637036137008" lon="17.976841392307">
        <ele>66.2</ele>
        <time>2018-02-20T19:23:58Z</time>
      </trkpt>
      <trkpt lat="62.637038400121" lon="17.97689729958">
        <ele>66.2</ele>
        <time>2018-02-20T19:23:59Z</time>
      </trkpt>
      <trkpt lat="62.63704099851" lon="17.976943064754">
        <ele>66.2</ele>
        <time>2018-02-20T19:24:00Z</time>
      </trkpt>
      <trkpt lat="62.637040747053" lon="17.977006683375">
        <ele>66.2</ele>
        <time>2018-02-20T19:24:01Z</time>
      </trkpt>
      <trkpt lat="62.637047368754" lon="17.97704565921">
        <ele>66.2</ele>
        <time>2018-02-20T19:24:02Z</time>
      </trkpt>
      <trkpt lat="62.637047787849" lon="17.977118162645">
        <ele>66.2</ele>
        <time>2018-02-20T19:24:03Z</time>
      </trkpt>
      <trkpt lat="62.637045440917" lon="17.977180775438">
        <ele>66.2</ele>
        <time>2018-02-20T19:24:04Z</time>
      </trkpt>
      <trkpt lat="62.63704770403" lon="17.977225618603">
        <ele>66.4</ele>
        <time>2018-02-20T19:24:05Z</time>
      </trkpt>
      <trkpt lat="62.637041501424" lon="17.977305833386">
        <ele>66.4</ele>
        <time>2018-02-20T19:24:06Z</time>
      </trkpt>
      <trkpt lat="62.63703596937" lon="17.977359729003">
        <ele>66.4</ele>
        <time>2018-02-20T19:24:07Z</time>
      </trkpt>
      <trkpt lat="62.637029347669" lon="17.977408511661">
        <ele>66.4</ele>
        <time>2018-02-20T19:24:08Z</time>
      </trkpt>
      <trkpt lat="62.637013673516" lon="17.977476656508">
        <ele>66.4</ele>
        <time>2018-02-20T19:24:09Z</time>
      </trkpt>
      <trkpt lat="62.637006129806" lon="17.977526109718">
        <ele>66.4</ele>
        <time>2018-02-20T19:24:10Z</time>
      </trkpt>
      <trkpt lat="62.636993473137" lon="17.977577239308">
        <ele>66.6</ele>
        <time>2018-02-20T19:24:11Z</time>
      </trkpt>
      <trkpt lat="62.636977379889" lon="17.977638678635">
        <ele>66.4</ele>
        <time>2018-02-20T19:24:12Z</time>
      </trkpt>
      <trkpt lat="62.636967153971" lon="17.977691149329">
        <ele>66.6</ele>
        <time>2018-02-20T19:24:13Z</time>
      </trkpt>
      <trkpt lat="62.636954581121" lon="17.977747727154">
        <ele>66.6</ele>
        <time>2018-02-20T19:24:14Z</time>
      </trkpt>
      <trkpt lat="62.636940499529" lon="17.977813860345">
        <ele>66.6</ele>
        <time>2018-02-20T19:24:15Z</time>
      </trkpt>
      <trkpt lat="62.636936476217" lon="17.977855099293">
        <ele>66.6</ele>
        <time>2018-02-20T19:24:16Z</time>
      </trkpt>
      <trkpt lat="62.636930105973" lon="17.977906312702">
        <ele>66.6</ele>
        <time>2018-02-20T19:24:17Z</time>
      </trkpt>
      <trkpt lat="62.63692113734" lon="17.977984180553">
        <ele>66.8</ele>
        <time>2018-02-20T19:24:18Z</time>
      </trkpt>
      <trkpt lat="62.6369244901" lon="17.978018294886">
        <ele>66.8</ele>
        <time>2018-02-20T19:24:19Z</time>
      </trkpt>
      <trkpt lat="62.636911162879" lon="17.978086020638">
        <ele>66.8</ele>
        <time>2018-02-20T19:24:20Z</time>
      </trkpt>
      <trkpt lat="62.636907391024" lon="17.978154333123">
        <ele>66.8</ele>
        <time>2018-02-20T19:24:21Z</time>
      </trkpt>
      <trkpt lat="62.636905463187" lon="17.978194650062">
        <ele>67</ele>
        <time>2018-02-20T19:24:22Z</time>
      </trkpt>
      <trkpt lat="62.636892135966" lon="17.978266231488">
        <ele>67</ele>
        <time>2018-02-20T19:24:23Z</time>
      </trkpt>
      <trkpt lat="62.636883251152" lon="17.97832222258">
        <ele>67</ele>
        <time>2018-02-20T19:24:24Z</time>
      </trkpt>
      <trkpt lat="62.636877802917" lon="17.978362874795">
        <ele>67</ele>
        <time>2018-02-20T19:24:25Z</time>
      </trkpt>
      <trkpt lat="62.636859278918" lon="17.978425906683">
        <ele>67</ele>
        <time>2018-02-20T19:24:26Z</time>
      </trkpt>
      <trkpt lat="62.636844442955" lon="17.978476700997">
        <ele>67.2</ele>
        <time>2018-02-20T19:24:27Z</time>
      </trkpt>
      <trkpt lat="62.63683312739" lon="17.978516850298">
        <ele>67.2</ele>
        <time>2018-02-20T19:24:28Z</time>
      </trkpt>
      <trkpt lat="62.636810244803" lon="17.978575439779">
        <ele>67.4</ele>
        <time>2018-02-20T19:24:29Z</time>
      </trkpt>
      <trkpt lat="62.636794486831" lon="17.978619025659">
        <ele>67.4</ele>
        <time>2018-02-20T19:24:30Z</time>
      </trkpt>
      <trkpt lat="62.63677613047" lon="17.978659677874">
        <ele>67.4</ele>
        <time>2018-02-20T19:24:31Z</time>
      </trkpt>
      <trkpt lat="62.636750062761" lon="17.978704521039">
        <ele>67.4</ele>
        <time>2018-02-20T19:24:32Z</time>
      </trkpt>
      <trkpt lat="62.636731203486" lon="17.978727822721">
        <ele>67.4</ele>
        <time>2018-02-20T19:24:33Z</time>
      </trkpt>
      <trkpt lat="62.636712930944" lon="17.978748274557">
        <ele>67.4</ele>
        <time>2018-02-20T19:24:34Z</time>
      </trkpt>
      <trkpt lat="62.636684097208" lon="17.978776605379">
        <ele>67.4</ele>
        <time>2018-02-20T19:24:35Z</time>
      </trkpt>
      <trkpt lat="62.636660041155" lon="17.978791525161">
        <ele>67.6</ele>
        <time>2018-02-20T19:24:36Z</time>
      </trkpt>
      <trkpt lat="62.636644031726" lon="17.978799404147">
        <ele>67.8</ele>
        <time>2018-02-20T19:24:37Z</time>
      </trkpt>
      <trkpt lat="62.636617796379" lon="17.978801331984">
        <ele>67.8</ele>
        <time>2018-02-20T19:24:38Z</time>
      </trkpt>
      <trkpt lat="62.636588124453" lon="17.978802002536">
        <ele>68</ele>
        <time>2018-02-20T19:24:39Z</time>
      </trkpt>
      <trkpt lat="62.636567253522" lon="17.978800912889">
        <ele>68.2</ele>
        <time>2018-02-20T19:24:40Z</time>
      </trkpt>
      <trkpt lat="62.636544454754" lon="17.978803511278">
        <ele>68.2</ele>
        <time>2018-02-20T19:24:41Z</time>
      </trkpt>
      <trkpt lat="62.636520147244" lon="17.978800745251">
        <ele>68.4</ele>
        <time>2018-02-20T19:24:42Z</time>
      </trkpt>
      <trkpt lat="62.636497264657" lon="17.9787983145">
        <ele>68.6</ele>
        <time>2018-02-20T19:24:43Z</time>
      </trkpt>
      <trkpt lat="62.636478824477" lon="17.978789764962">
        <ele>68.8</ele>
        <time>2018-02-20T19:24:44Z</time>
      </trkpt>
      <trkpt lat="62.636459546107" lon="17.97878657984">
        <ele>68.8</ele>
        <time>2018-02-20T19:24:45Z</time>
      </trkpt>
      <trkpt lat="62.636437920805" lon="17.978785071098">
        <ele>69</ele>
        <time>2018-02-20T19:24:46Z</time>
      </trkpt>
      <trkpt lat="62.636412691286" lon="17.97878406527">
        <ele>69.2</ele>
        <time>2018-02-20T19:24:47Z</time>
      </trkpt>
      <trkpt lat="62.636387545586" lon="17.97878490346">
        <ele>69.2</ele>
        <time>2018-02-20T19:24:48Z</time>
      </trkpt>
      <trkpt lat="62.636366171741" lon="17.978789010591">
        <ele>69.4</ele>
        <time>2018-02-20T19:24:49Z</time>
      </trkpt>
      <trkpt lat="62.636344546439" lon="17.978797308672">
        <ele>69.6</ele>
        <time>2018-02-20T19:24:50Z</time>
      </trkpt>
      <trkpt lat="62.636326106259" lon="17.978804349468">
        <ele>69.8</ele>
        <time>2018-02-20T19:24:51Z</time>
      </trkpt>
      <trkpt lat="62.636309929192" lon="17.978809797703">
        <ele>69.8</ele>
        <time>2018-02-20T19:24:52Z</time>
      </trkpt>
      <trkpt lat="62.636294003582" lon="17.978819101612">
        <ele>70</ele>
        <time>2018-02-20T19:24:53Z</time>
      </trkpt>
      <trkpt lat="62.636280341085" lon="17.978827986426">
        <ele>70.2</ele>
        <time>2018-02-20T19:24:54Z</time>
      </trkpt>
      <trkpt lat="62.636255195385" lon="17.978849024995">
        <ele>70.4</ele>
        <time>2018-02-20T19:24:55Z</time>
      </trkpt>
      <trkpt lat="62.636232815712" lon="17.978865285881">
        <ele>71</ele>
        <time>2018-02-20T19:24:56Z</time>
      </trkpt>
      <trkpt lat="62.636210436039" lon="17.978884815708">
        <ele>71.2</ele>
        <time>2018-02-20T19:24:57Z</time>
      </trkpt>
      <trkpt lat="62.636187888728" lon="17.978907865933">
        <ele>71.6</ele>
        <time>2018-02-20T19:24:58Z</time>
      </trkpt>
      <trkpt lat="62.636169448548" lon="17.978927563398">
        <ele>72</ele>
        <time>2018-02-20T19:24:59Z</time>
      </trkpt>
      <trkpt lat="62.636153690576" lon="17.978950445985">
        <ele>72.2</ele>
        <time>2018-02-20T19:25:00Z</time>
      </trkpt>
      <trkpt lat="62.636144470486" lon="17.978966539233">
        <ele>72.2</ele>
        <time>2018-02-20T19:25:01Z</time>
      </trkpt>
      <trkpt lat="62.636134244568" lon="17.978990762924">
        <ele>72.4</ele>
        <time>2018-02-20T19:25:02Z</time>
      </trkpt>
      <trkpt lat="62.636121587899" lon="17.979019764298">
        <ele>72.8</ele>
        <time>2018-02-20T19:25:03Z</time>
      </trkpt>
      <trkpt lat="62.636107506307" lon="17.979047508387">
        <ele>73</ele>
        <time>2018-02-20T19:25:04Z</time>
      </trkpt>
      <trkpt lat="62.636099878778" lon="17.979056225563">
        <ele>73.4</ele>
        <time>2018-02-20T19:25:05Z</time>
      </trkpt>
      <trkpt lat="62.636084288444" lon="17.97908162272">
        <ele>73.8</ele>
        <time>2018-02-20T19:25:06Z</time>
      </trkpt>
      <trkpt lat="62.636069452481" lon="17.979104170031">
        <ele>74</ele>
        <time>2018-02-20T19:25:07Z</time>
      </trkpt>
      <trkpt lat="62.636056544355" lon="17.979134009595">
        <ele>74.2</ele>
        <time>2018-02-20T19:25:08Z</time>
      </trkpt>
      <trkpt lat="62.636042127487" lon="17.979163010969">
        <ele>74.6</ele>
        <time>2018-02-20T19:25:09Z</time>
      </trkpt>
      <trkpt lat="62.636028045895" lon="17.979189581592">
        <ele>74.8</ele>
        <time>2018-02-20T19:25:10Z</time>
      </trkpt>
      <trkpt lat="62.636018490529" lon="17.979217996233">
        <ele>75</ele>
        <time>2018-02-20T19:25:11Z</time>
      </trkpt>
      <trkpt lat="62.636009521896" lon="17.979252864937">
        <ele>75.2</ele>
        <time>2018-02-20T19:25:12Z</time>
      </trkpt>
      <trkpt lat="62.635993512467" lon="17.979311538237">
        <ele>75.4</ele>
        <time>2018-02-20T19:25:13Z</time>
      </trkpt>
      <trkpt lat="62.635987812775" lon="17.979358895972">
        <ele>75.6</ele>
        <time>2018-02-20T19:25:14Z</time>
      </trkpt>
      <trkpt lat="62.635980101427" lon="17.979423436602">
        <ele>76</ele>
        <time>2018-02-20T19:25:15Z</time>
      </trkpt>
      <trkpt lat="62.635978844142" lon="17.979483786282">
        <ele>76</ele>
        <time>2018-02-20T19:25:16Z</time>
      </trkpt>
      <trkpt lat="62.635971887165" lon="17.979567437644">
        <ele>76.2</ele>
        <time>2018-02-20T19:25:17Z</time>
      </trkpt>
      <trkpt lat="62.63596476255" lon="17.979673971593">
        <ele>76</ele>
        <time>2018-02-20T19:25:18Z</time>
      </trkpt>
      <trkpt lat="62.635961577428" lon="17.979793581306">
        <ele>75.4</ele>
        <time>2018-02-20T19:25:19Z</time>
      </trkpt>
      <trkpt lat="62.635963505265" lon="17.979932972303">
        <ele>74.6</ele>
        <time>2018-02-20T19:25:20Z</time>
      </trkpt>
      <trkpt lat="62.635969624052" lon="17.98007152511">
        <ele>73.8</ele>
        <time>2018-02-20T19:25:21Z</time>
      </trkpt>
      <trkpt lat="62.635981945445" lon="17.980188201158">
        <ele>72.6</ele>
        <time>2018-02-20T19:25:22Z</time>
      </trkpt>
      <trkpt lat="62.636000469444" lon="17.980327256879">
        <ele>71.6</ele>
        <time>2018-02-20T19:25:23Z</time>
      </trkpt>
      <trkpt lat="62.636023184393" lon="17.980458265976">
        <ele>70.8</ele>
        <time>2018-02-20T19:25:24Z</time>
      </trkpt>
      <trkpt lat="62.636045396428" lon="17.980584916485">
        <ele>70</ele>
        <time>2018-02-20T19:25:25Z</time>
      </trkpt>
      <trkpt lat="62.636066518816" lon="17.98070268218">
        <ele>69.8</ele>
        <time>2018-02-20T19:25:26Z</time>
      </trkpt>
      <trkpt lat="62.636085881005" lon="17.980805192817">
        <ele>69.4</ele>
        <time>2018-02-20T19:25:27Z</time>
      </trkpt>
      <trkpt lat="62.636105075556" lon="17.98091558244">
        <ele>69.2</ele>
        <time>2018-02-20T19:25:28Z</time>
      </trkpt>
      <trkpt lat="62.636125862668" lon="17.981016584335">
        <ele>69</ele>
        <time>2018-02-20T19:25:29Z</time>
      </trkpt>
      <trkpt lat="62.636142542649" lon="17.981127476872">
        <ele>68.8</ele>
        <time>2018-02-20T19:25:30Z</time>
      </trkpt>
      <trkpt lat="62.636155199318" lon="17.981222695256">
        <ele>68.6</ele>
        <time>2018-02-20T19:25:31Z</time>
      </trkpt>
      <trkpt lat="62.636157965345" lon="17.981322607504">
        <ele>68.6</ele>
        <time>2018-02-20T19:25:32Z</time>
      </trkpt>
      <trkpt lat="62.636168107444" lon="17.981414556947">
        <ele>68.2</ele>
        <time>2018-02-20T19:25:33Z</time>
      </trkpt>
      <trkpt lat="62.636178165724" lon="17.981488233848">
        <ele>68.4</ele>
        <time>2018-02-20T19:25:34Z</time>
      </trkpt>
      <trkpt lat="62.636190822393" lon="17.981571633753">
        <ele>68.4</ele>
        <time>2018-02-20T19:25:35Z</time>
      </trkpt>
      <trkpt lat="62.636205490718" lon="17.981654698382">
        <ele>68.6</ele>
        <time>2018-02-20T19:25:36Z</time>
      </trkpt>
      <trkpt lat="62.636216471007" lon="17.981729129654">
        <ele>68.6</ele>
        <time>2018-02-20T19:25:37Z</time>
      </trkpt>
      <trkpt lat="62.636229714409" lon="17.981799369976">
        <ele>68.8</ele>
        <time>2018-02-20T19:25:38Z</time>
      </trkpt>
      <trkpt lat="62.636252429358" lon="17.981853349412">
        <ele>68.8</ele>
        <time>2018-02-20T19:25:39Z</time>
      </trkpt>
      <trkpt lat="62.636263074371" lon="17.981931049625">
        <ele>69</ele>
        <time>2018-02-20T19:25:40Z</time>
      </trkpt>
      <trkpt lat="62.636277826515" lon="17.981998272463">
        <ele>69</ele>
        <time>2018-02-20T19:25:41Z</time>
      </trkpt>
      <trkpt lat="62.63628578932" lon="17.982067339319">
        <ele>68.8</ele>
        <time>2018-02-20T19:25:42Z</time>
      </trkpt>
      <trkpt lat="62.636291069917" lon="17.982147218826">
        <ele>68.6</ele>
        <time>2018-02-20T19:25:43Z</time>
      </trkpt>
      <trkpt lat="62.63629836217" lon="17.982214190207">
        <ele>68.6</ele>
        <time>2018-02-20T19:25:44Z</time>
      </trkpt>
      <trkpt lat="62.636297104885" lon="17.982281999778">
        <ele>68.6</ele>
        <time>2018-02-20T19:25:45Z</time>
      </trkpt>
      <trkpt lat="62.636303894224" lon="17.982334470472">
        <ele>68.6</ele>
        <time>2018-02-20T19:25:46Z</time>
      </trkpt>
      <trkpt lat="62.636309174821" lon="17.982391048297">
        <ele>68.6</ele>
        <time>2018-02-20T19:25:47Z</time>
      </trkpt>
      <trkpt lat="62.636307414622" lon="17.982464306103">
        <ele>68.6</ele>
        <time>2018-02-20T19:25:48Z</time>
      </trkpt>
      <trkpt lat="62.636300541464" lon="17.982527086534">
        <ele>68.6</ele>
        <time>2018-02-20T19:25:49Z</time>
      </trkpt>
      <trkpt lat="62.636299954731" lon="17.982580898332">
        <ele>68.6</ele>
        <time>2018-02-20T19:25:50Z</time>
      </trkpt>
      <trkpt lat="62.636292913935" lon="17.982651976844">
        <ele>68.6</ele>
        <time>2018-02-20T19:25:51Z</time>
      </trkpt>
      <trkpt lat="62.636288639166" lon="17.982720121691">
        <ele>68.6</ele>
        <time>2018-02-20T19:25:52Z</time>
      </trkpt>
      <trkpt lat="62.636289225899" lon="17.982790026737">
        <ele>68.6</ele>
        <time>2018-02-20T19:25:53Z</time>
      </trkpt>
      <trkpt lat="62.636284364397" lon="17.982859009774">
        <ele>68.6</ele>
        <time>2018-02-20T19:25:54Z</time>
      </trkpt>
      <trkpt lat="62.636281682189" lon="17.982935368883">
        <ele>68.6</ele>
        <time>2018-02-20T19:25:55Z</time>
      </trkpt>
      <trkpt lat="62.636283023293" lon="17.982992533441">
        <ele>68.6</ele>
        <time>2018-02-20T19:25:56Z</time>
      </trkpt>
      <trkpt lat="62.636281766008" lon="17.983045004135">
        <ele>68.6</ele>
        <time>2018-02-20T19:25:57Z</time>
      </trkpt>
      <trkpt lat="62.636276233954" lon="17.983129912782">
        <ele>68.4</ele>
        <time>2018-02-20T19:25:58Z</time>
      </trkpt>
      <trkpt lat="62.636279586714" lon="17.983190849195">
        <ele>68.6</ele>
        <time>2018-02-20T19:25:59Z</time>
      </trkpt>
      <trkpt lat="62.636283693845" lon="17.983266621571">
        <ele>68.6</ele>
        <time>2018-02-20T19:26:00Z</time>
      </trkpt>
      <trkpt lat="62.636280005809" lon="17.983339208825">
        <ele>68.6</ele>
        <time>2018-02-20T19:26:01Z</time>
      </trkpt>
      <trkpt lat="62.636277742696" lon="17.983391428062">
        <ele>68.6</ele>
        <time>2018-02-20T19:26:02Z</time>
      </trkpt>
      <trkpt lat="62.636275311945" lon="17.983445072222">
        <ele>68.8</ele>
        <time>2018-02-20T19:26:03Z</time>
      </trkpt>
      <trkpt lat="62.636267432959" lon="17.983508020291">
        <ele>68.8</ele>
        <time>2018-02-20T19:26:04Z</time>
      </trkpt>
      <trkpt lat="62.636260895077" lon="17.983571555093">
        <ele>68.8</ele>
        <time>2018-02-20T19:26:05Z</time>
      </trkpt>
      <trkpt lat="62.636252429358" lon="17.983633916429">
        <ele>69</ele>
        <time>2018-02-20T19:26:06Z</time>
      </trkpt>
      <trkpt lat="62.636247651675" lon="17.983676831757">
        <ele>69.2</ele>
        <time>2018-02-20T19:26:07Z</time>
      </trkpt>
      <trkpt lat="62.636237258119" lon="17.983743970776">
        <ele>69.2</ele>
        <time>2018-02-20T19:26:08Z</time>
      </trkpt>
      <trkpt lat="62.636226361649" lon="17.983807757035">
        <ele>69.4</ele>
        <time>2018-02-20T19:26:09Z</time>
      </trkpt>
      <trkpt lat="62.636220494319" lon="17.983851594372">
        <ele>69.6</ele>
        <time>2018-02-20T19:26:10Z</time>
      </trkpt>
      <trkpt lat="62.636212615333" lon="17.983909261844">
        <ele>69.6</ele>
        <time>2018-02-20T19:26:11Z</time>
      </trkpt>
      <trkpt lat="62.636199707207" lon="17.983963744194">
        <ele>69.8</ele>
        <time>2018-02-20T19:26:12Z</time>
      </trkpt>
      <trkpt lat="62.636195432438" lon="17.984012862128">
        <ele>69.8</ele>
        <time>2018-02-20T19:26:13Z</time>
      </trkpt>
      <trkpt lat="62.636185625615" lon="17.984083856821">
        <ele>69.8</ele>
        <time>2018-02-20T19:26:14Z</time>
      </trkpt>
      <trkpt lat="62.636177998086" lon="17.984138255352">
        <ele>70</ele>
        <time>2018-02-20T19:26:15Z</time>
      </trkpt>
      <trkpt lat="62.636176070249" lon="17.98417530335">
        <ele>70</ele>
        <time>2018-02-20T19:26:16Z</time>
      </trkpt>
      <trkpt lat="62.636169364729" lon="17.984241687998">
        <ele>70.2</ele>
        <time>2018-02-20T19:26:17Z</time>
      </trkpt>
      <trkpt lat="62.636162323933" lon="17.984295667434">
        <ele>70.2</ele>
        <time>2018-02-20T19:26:18Z</time>
      </trkpt>
      <trkpt lat="62.636161066648" lon="17.98434294135">
        <ele>70.2</ele>
        <time>2018-02-20T19:26:19Z</time>
      </trkpt>
      <trkpt lat="62.636155450775" lon="17.984413852224">
        <ele>70.4</ele>
        <time>2018-02-20T19:26:20Z</time>
      </trkpt>
      <trkpt lat="62.636150756911" lon="17.984457521923">
        <ele>70.4</ele>
        <time>2018-02-20T19:26:21Z</time>
      </trkpt>
      <trkpt lat="62.63614916435" lon="17.984507897142">
        <ele>70.4</ele>
        <time>2018-02-20T19:26:22Z</time>
      </trkpt>
      <trkpt lat="62.636142961744" lon="17.984576712541">
        <ele>70.6</ele>
        <time>2018-02-20T19:26:23Z</time>
      </trkpt>
      <trkpt lat="62.636140530993" lon="17.984623148267">
        <ele>70.6</ele>
        <time>2018-02-20T19:26:24Z</time>
      </trkpt>
      <trkpt lat="62.6361365915" lon="17.984684336137">
        <ele>70.8</ele>
        <time>2018-02-20T19:26:25Z</time>
      </trkpt>
      <trkpt lat="62.636128628695" lon="17.984750050233">
        <ele>70.8</ele>
        <time>2018-02-20T19:26:26Z</time>
      </trkpt>
      <trkpt lat="62.6361282096" lon="17.984795983045">
        <ele>71</ele>
        <time>2018-02-20T19:26:27Z</time>
      </trkpt>
      <trkpt lat="62.63612485684" lon="17.984848537558">
        <ele>71.2</ele>
        <time>2018-02-20T19:26:28Z</time>
      </trkpt>
      <trkpt lat="62.63612150408" lon="17.98491542512">
        <ele>71.2</ele>
        <time>2018-02-20T19:26:29Z</time>
      </trkpt>
      <trkpt lat="62.636116642578" lon="17.984972086764">
        <ele>71.4</ele>
        <time>2018-02-20T19:26:30Z</time>
      </trkpt>
      <trkpt lat="62.636116307302" lon="17.985012571341">
        <ele>71.4</ele>
        <time>2018-02-20T19:26:31Z</time>
      </trkpt>
      <trkpt lat="62.636116558759" lon="17.985083733672">
        <ele>71.4</ele>
        <time>2018-02-20T19:26:32Z</time>
      </trkpt>
      <trkpt lat="62.636111278162" lon="17.985146514103">
        <ele>71.6</ele>
        <time>2018-02-20T19:26:33Z</time>
      </trkpt>
      <trkpt lat="62.636111948714" lon="17.985186244309">
        <ele>71.6</ele>
        <time>2018-02-20T19:26:34Z</time>
      </trkpt>
      <trkpt lat="62.63610976942" lon="17.98525573026">
        <ele>71.6</ele>
        <time>2018-02-20T19:26:35Z</time>
      </trkpt>
      <trkpt lat="62.636105243194" lon="17.985313900646">
        <ele>71.8</ele>
        <time>2018-02-20T19:26:36Z</time>
      </trkpt>
      <trkpt lat="62.636106835755" lon="17.985350361911">
        <ele>72</ele>
        <time>2018-02-20T19:26:37Z</time>
      </trkpt>
      <trkpt lat="62.636103147719" lon="17.985420686052">
        <ele>72</ele>
        <time>2018-02-20T19:26:38Z</time>
      </trkpt>
      <trkpt lat="62.636096442199" lon="17.985478018248">
        <ele>72</ele>
        <time>2018-02-20T19:26:39Z</time>
      </trkpt>
      <trkpt lat="62.636095436371" lon="17.985521017395">
        <ele>72.2</ele>
        <time>2018-02-20T19:26:40Z</time>
      </trkpt>
      <trkpt lat="62.636086383919" lon="17.985591676812">
        <ele>72.4</ele>
        <time>2018-02-20T19:26:41Z</time>
      </trkpt>
      <trkpt lat="62.636076912372" lon="17.985645069515">
        <ele>72.4</ele>
        <time>2018-02-20T19:26:42Z</time>
      </trkpt>
      <trkpt lat="62.636076158001" lon="17.985695528553">
        <ele>72.4</ele>
        <time>2018-02-20T19:26:43Z</time>
      </trkpt>
      <trkpt lat="62.636066518816" lon="17.985759063355">
        <ele>72.4</ele>
        <time>2018-02-20T19:26:44Z</time>
      </trkpt>
      <trkpt lat="62.636056544355" lon="17.985810276764">
        <ele>72.6</ele>
        <time>2018-02-20T19:26:45Z</time>
      </trkpt>
      <trkpt lat="62.636047994817" lon="17.985847995314">
        <ele>72.6</ele>
        <time>2018-02-20T19:26:46Z</time>
      </trkpt>
      <trkpt lat="62.636032991216" lon="17.985896694153">
        <ele>72.6</ele>
        <time>2018-02-20T19:26:47Z</time>
      </trkpt>
      <trkpt lat="62.636015808321" lon="17.98594053149">
        <ele>72.8</ele>
        <time>2018-02-20T19:26:48Z</time>
      </trkpt>
      <trkpt lat="62.636003654566" lon="17.985968107941">
        <ele>72.8</ele>
        <time>2018-02-20T19:26:49Z</time>
      </trkpt>
      <trkpt lat="62.63598152635" lon="17.985997696048">
        <ele>73</ele>
        <time>2018-02-20T19:26:50Z</time>
      </trkpt>
      <trkpt lat="62.63595638065" lon="17.986020830092">
        <ele>73.2</ele>
        <time>2018-02-20T19:26:51Z</time>
      </trkpt>
      <trkpt lat="62.635941796144" lon="17.986040779014">
        <ele>73.2</ele>
        <time>2018-02-20T19:26:52Z</time>
      </trkpt>
      <trkpt lat="62.63591782391" lon="17.986053603321">
        <ele>73.4</ele>
        <time>2018-02-20T19:26:53Z</time>
      </trkpt>
      <trkpt lat="62.635891756201" lon="17.986069528931">
        <ele>73.4</ele>
        <time>2018-02-20T19:26:54Z</time>
      </trkpt>
      <trkpt lat="62.63587423803" lon="17.986084783989">
        <ele>73.6</ele>
        <time>2018-02-20T19:26:55Z</time>
      </trkpt>
      <trkpt lat="62.635852528909" lon="17.986099452314">
        <ele>73.6</ele>
        <time>2018-02-20T19:26:56Z</time>
      </trkpt>
      <trkpt lat="62.63582729939" lon="17.986110767879">
        <ele>73.8</ele>
        <time>2018-02-20T19:26:57Z</time>
      </trkpt>
      <trkpt lat="62.63581388835" lon="17.986133063733">
        <ele>73.8</ele>
        <time>2018-02-20T19:26:58Z</time>
      </trkpt>
      <trkpt lat="62.635791927772" lon="17.986163825306">
        <ele>73.8</ele>
        <time>2018-02-20T19:26:59Z</time>
      </trkpt>
      <trkpt lat="62.635770889203" lon="17.986199280743">
        <ele>73.8</ele>
        <time>2018-02-20T19:27:00Z</time>
      </trkpt>
      <trkpt lat="62.635748090435" lon="17.986225096995">
        <ele>74</ele>
        <time>2018-02-20T19:27:01Z</time>
      </trkpt>
      <trkpt lat="62.635731661911" lon="17.986250829428">
        <ele>74</ele>
        <time>2018-02-20T19:27:02Z</time>
      </trkpt>
      <trkpt lat="62.63571162917" lon="17.986284608485">
        <ele>74.2</ele>
        <time>2018-02-20T19:27:03Z</time>
      </trkpt>
      <trkpt lat="62.635694530094" lon="17.986317549352">
        <ele>74.4</ele>
        <time>2018-02-20T19:27:04Z</time>
      </trkpt>
      <trkpt lat="62.635683801262" lon="17.98634873002">
        <ele>74.6</ele>
        <time>2018-02-20T19:27:05Z</time>
      </trkpt>
      <trkpt lat="62.635665193444" lon="17.986391896805">
        <ele>74.8</ele>
        <time>2018-02-20T19:27:06Z</time>
      </trkpt>
      <trkpt lat="62.635650944214" lon="17.986434057762">
        <ele>75.2</ele>
        <time>2018-02-20T19:27:07Z</time>
      </trkpt>
      <trkpt lat="62.635638455183" lon="17.986471776312">
        <ele>75.4</ele>
        <time>2018-02-20T19:27:08Z</time>
      </trkpt>
      <trkpt lat="62.63561356094" lon="17.986527851223">
        <ele>75.4</ele>
        <time>2018-02-20T19:27:09Z</time>
      </trkpt>
      <trkpt lat="62.635600904271" lon="17.986568838714">
        <ele>75.6</ele>
        <time>2018-02-20T19:27:10Z</time>
      </trkpt>
      <trkpt lat="62.635587157955" lon="17.986610832033">
        <ele>75.6</ele>
        <time>2018-02-20T19:27:11Z</time>
      </trkpt>
      <trkpt lat="62.635574082191" lon="17.986651400429">
        <ele>75.6</ele>
        <time>2018-02-20T19:27:12Z</time>
      </trkpt>
      <trkpt lat="62.635554636183" lon="17.98671501905">
        <ele>75.8</ele>
        <time>2018-02-20T19:27:13Z</time>
      </trkpt>
      <trkpt lat="62.635542650066" lon="17.986759191663">
        <ele>75.8</ele>
        <time>2018-02-20T19:27:14Z</time>
      </trkpt>
      <trkpt lat="62.635526472999" lon="17.986797413127">
        <ele>75.8</ele>
        <time>2018-02-20T19:27:15Z</time>
      </trkpt>
      <trkpt lat="62.635508535733" lon="17.986846279604">
        <ele>76</ele>
        <time>2018-02-20T19:27:16Z</time>
      </trkpt>
      <trkpt lat="62.635499231824" lon="17.986885339258">
        <ele>76</ele>
        <time>2018-02-20T19:27:17Z</time>
      </trkpt>
      <trkpt lat="62.63547861235" lon="17.986939151056">
        <ele>76.2</ele>
        <time>2018-02-20T19:27:18Z</time>
      </trkpt>
      <trkpt lat="62.635463944025" lon="17.986985167687">
        <ele>76.2</ele>
        <time>2018-02-20T19:27:19Z</time>
      </trkpt>
      <trkpt lat="62.635448940424" lon="17.98703185487">
        <ele>76.4</ele>
        <time>2018-02-20T19:27:20Z</time>
      </trkpt>
      <trkpt lat="62.63543335009" lon="17.987073177637">
        <ele>76.4</ele>
        <time>2018-02-20T19:27:21Z</time>
      </trkpt>
      <trkpt lat="62.635415831919" lon="17.987112153472">
        <ele>76.4</ele>
        <time>2018-02-20T19:27:22Z</time>
      </trkpt>
      <trkpt lat="62.635401079775" lon="17.987143166502">
        <ele>76.4</ele>
        <time>2018-02-20T19:27:23Z</time>
      </trkpt>
      <trkpt lat="62.635384315975" lon="17.987181220328">
        <ele>76.4</ele>
        <time>2018-02-20T19:27:24Z</time>
      </trkpt>
      <trkpt lat="62.635361768664" lon="17.987228997158">
        <ele>76.4</ele>
        <time>2018-02-20T19:27:25Z</time>
      </trkpt>
      <trkpt lat="62.635348944357" lon="17.987258501446">
        <ele>76.6</ele>
        <time>2018-02-20T19:27:26Z</time>
      </trkpt>
      <trkpt lat="62.635340897733" lon="17.987291442313">
        <ele>76.8</ele>
        <time>2018-02-20T19:27:27Z</time>
      </trkpt>
      <trkpt lat="62.635310890531" lon="17.987339051505">
        <ele>76.8</ele>
        <time>2018-02-20T19:27:28Z</time>
      </trkpt>
      <trkpt lat="62.635289265229" lon="17.98737467458">
        <ele>77</ele>
        <time>2018-02-20T19:27:29Z</time>
      </trkpt>
      <trkpt lat="62.635277698207" lon="17.987403256859">
        <ele>77.2</ele>
        <time>2018-02-20T19:27:30Z</time>
      </trkpt>
      <trkpt lat="62.635256072905" lon="17.987444076712">
        <ele>77.2</ele>
        <time>2018-02-20T19:27:31Z</time>
      </trkpt>
      <trkpt lat="62.635239812019" lon="17.987476598484">
        <ele>77.4</ele>
        <time>2018-02-20T19:27:32Z</time>
      </trkpt>
      <trkpt lat="62.635224305504" lon="17.987513143568">
        <ele>77.4</ele>
        <time>2018-02-20T19:27:33Z</time>
      </trkpt>
      <trkpt lat="62.635207457885" lon="17.987541642028">
        <ele>77.6</ele>
        <time>2018-02-20T19:27:34Z</time>
      </trkpt>
      <trkpt lat="62.635191029361" lon="17.987568715565">
        <ele>77.6</ele>
        <time>2018-02-20T19:27:35Z</time>
      </trkpt>
      <trkpt lat="62.635168649688" lon="17.987606769391">
        <ele>77.8</ele>
        <time>2018-02-20T19:27:36Z</time>
      </trkpt>
      <trkpt lat="62.635153813725" lon="17.987634010566">
        <ele>77.8</ele>
        <time>2018-02-20T19:27:37Z</time>
      </trkpt>
      <trkpt lat="62.635130344405" lon="17.987669466003">
        <ele>78</ele>
        <time>2018-02-20T19:27:38Z</time>
      </trkpt>
      <trkpt lat="62.635107880913" lon="17.987707938924">
        <ele>78.2</ele>
        <time>2018-02-20T19:27:39Z</time>
      </trkpt>
      <trkpt lat="62.635094972787" lon="17.987738532859">
        <ele>78.2</ele>
        <time>2018-02-20T19:27:40Z</time>
      </trkpt>
      <trkpt lat="62.635078544263" lon="17.987767366595">
        <ele>78.2</ele>
        <time>2018-02-20T19:27:41Z</time>
      </trkpt>
      <trkpt lat="62.63505951735" lon="17.987796619426">
        <ele>78.4</ele>
        <time>2018-02-20T19:27:42Z</time>
      </trkpt>
      <trkpt lat="62.635038981695" lon="17.98782478261">
        <ele>78.4</ele>
        <time>2018-02-20T19:27:43Z</time>
      </trkpt>
      <trkpt lat="62.635023307542" lon="17.98785747202">
        <ele>78.6</ele>
        <time>2018-02-20T19:27:44Z</time>
      </trkpt>
      <trkpt lat="62.634995898729" lon="17.987891586353">
        <ele>78.6</ele>
        <time>2018-02-20T19:27:45Z</time>
      </trkpt>
      <trkpt lat="62.634974524884" lon="17.987927209428">
        <ele>79</ele>
        <time>2018-02-20T19:27:46Z</time>
      </trkpt>
      <trkpt lat="62.634959605102" lon="17.987955791707">
        <ele>79</ele>
        <time>2018-02-20T19:27:47Z</time>
      </trkpt>
      <trkpt lat="62.634935716687" lon="17.987982110873">
        <ele>79</ele>
        <time>2018-02-20T19:27:48Z</time>
      </trkpt>
      <trkpt lat="62.634915097213" lon="17.987998790854">
        <ele>79.2</ele>
        <time>2018-02-20T19:27:49Z</time>
      </trkpt>
      <trkpt lat="62.634897327585" lon="17.988022511631">
        <ele>79.2</ele>
        <time>2018-02-20T19:27:50Z</time>
      </trkpt>
      <trkpt lat="62.634884670916" lon="17.988038772517">
        <ele>79.4</ele>
        <time>2018-02-20T19:27:51Z</time>
      </trkpt>
      <trkpt lat="62.63486673365" lon="17.988055620136">
        <ele>79.6</ele>
        <time>2018-02-20T19:27:52Z</time>
      </trkpt>
      <trkpt lat="62.634840163027" lon="17.988074730868">
        <ele>79.8</ele>
        <time>2018-02-20T19:27:53Z</time>
      </trkpt>
      <trkpt lat="62.634817783354" lon="17.988087890451">
        <ele>80</ele>
        <time>2018-02-20T19:27:54Z</time>
      </trkpt>
      <trkpt lat="62.634786686505" lon="17.988101133853">
        <ele>80</ele>
        <time>2018-02-20T19:27:55Z</time>
      </trkpt>
      <trkpt lat="62.634756679303" lon="17.988112030323">
        <ele>80.2</ele>
        <time>2018-02-20T19:27:56Z</time>
      </trkpt>
      <trkpt lat="62.634747375394" lon="17.988118400567">
        <ele>80.4</ele>
        <time>2018-02-20T19:27:57Z</time>
      </trkpt>
      <trkpt lat="62.634729857223" lon="17.988108007011">
        <ele>80.4</ele>
        <time>2018-02-20T19:27:58Z</time>
      </trkpt>
      <trkpt lat="62.63470244841" lon="17.988111192133">
        <ele>80.6</ele>
        <time>2018-02-20T19:27:59Z</time>
      </trkpt>
      <trkpt lat="62.6346781409" lon="17.988131895426">
        <ele>80.8</ele>
        <time>2018-02-20T19:28:00Z</time>
      </trkpt>
      <trkpt lat="62.634659281625" lon="17.988137595118">
        <ele>80.8</ele>
        <time>2018-02-20T19:28:01Z</time>
      </trkpt>
      <trkpt lat="62.6346278495" lon="17.988146815208">
        <ele>80.8</ele>
        <time>2018-02-20T19:28:02Z</time>
      </trkpt>
      <trkpt lat="62.634607984397" lon="17.988152431081">
        <ele>80.8</ele>
        <time>2018-02-20T19:28:03Z</time>
      </trkpt>
      <trkpt lat="62.63458594" lon="17.98815922042">
        <ele>81</ele>
        <time>2018-02-20T19:28:04Z</time>
      </trkpt>
      <trkpt lat="62.634558363549" lon="17.988159974791">
        <ele>81</ele>
        <time>2018-02-20T19:28:05Z</time>
      </trkpt>
      <trkpt lat="62.634538582265" lon="17.988171038899">
        <ele>81.2</ele>
        <time>2018-02-20T19:28:06Z</time>
      </trkpt>
      <trkpt lat="62.634515196764" lon="17.988177828238">
        <ele>81.2</ele>
        <time>2018-02-20T19:28:07Z</time>
      </trkpt>
      <trkpt lat="62.63448200444" lon="17.988188808527">
        <ele>81.4</ele>
        <time>2018-02-20T19:28:08Z</time>
      </trkpt>
      <trkpt lat="62.634460714414" lon="17.988203141576">
        <ele>81.6</ele>
        <time>2018-02-20T19:28:09Z</time>
      </trkpt>
      <trkpt lat="62.634435736352" lon="17.988210517648">
        <ele>81.8</ele>
        <time>2018-02-20T19:28:10Z</time>
      </trkpt>
      <trkpt lat="62.634412518489" lon="17.988217809901">
        <ele>81.8</ele>
        <time>2018-02-20T19:28:11Z</time>
      </trkpt>
      <trkpt lat="62.634397011974" lon="17.988227197629">
        <ele>82</ele>
        <time>2018-02-20T19:28:12Z</time>
      </trkpt>
      <trkpt lat="62.634366920953" lon="17.988225185973">
        <ele>82.2</ele>
        <time>2018-02-20T19:28:13Z</time>
      </trkpt>
      <trkpt lat="62.634333393353" lon="17.988224850697">
        <ele>82.4</ele>
        <time>2018-02-20T19:28:14Z</time>
      </trkpt>
      <trkpt lat="62.634311600413" lon="17.988236417719">
        <ele>82.4</ele>
        <time>2018-02-20T19:28:15Z</time>
      </trkpt>
      <trkpt lat="62.634288298731" lon="17.988233986968">
        <ele>82.4</ele>
        <time>2018-02-20T19:28:16Z</time>
      </trkpt>
      <trkpt lat="62.634253010932" lon="17.988232226769">
        <ele>82.6</ele>
        <time>2018-02-20T19:28:17Z</time>
      </trkpt>
      <trkpt lat="62.634225602119" lon="17.988233316416">
        <ele>82.4</ele>
        <time>2018-02-20T19:28:18Z</time>
      </trkpt>
      <trkpt lat="62.634183357343" lon="17.988225185973">
        <ele>82.4</ele>
        <time>2018-02-20T19:28:19Z</time>
      </trkpt>
      <trkpt lat="62.634153853055" lon="17.98822292286">
        <ele>82.4</ele>
        <time>2018-02-20T19:28:20Z</time>
      </trkpt>
      <trkpt lat="62.634132814486" lon="17.988225269792">
        <ele>82.6</ele>
        <time>2018-02-20T19:28:21Z</time>
      </trkpt>
      <trkpt lat="62.63409811342" lon="17.988208338354">
        <ele>82.6</ele>
        <time>2018-02-20T19:28:22Z</time>
      </trkpt>
      <trkpt lat="62.634073386815" lon="17.988206745793">
        <ele>82.6</ele>
        <time>2018-02-20T19:28:23Z</time>
      </trkpt>
      <trkpt lat="62.63405117478" lon="17.988192580382">
        <ele>82.6</ele>
        <time>2018-02-20T19:28:24Z</time>
      </trkpt>
      <trkpt lat="62.634019742655" lon="17.988182438283">
        <ele>82.6</ele>
        <time>2018-02-20T19:28:25Z</time>
      </trkpt>
      <trkpt lat="62.633993926403" lon="17.988161399714">
        <ele>82.8</ele>
        <time>2018-02-20T19:28:26Z</time>
      </trkpt>
      <trkpt lat="62.633985376865" lon="17.988148659226">
        <ele>82.8</ele>
        <time>2018-02-20T19:28:27Z</time>
      </trkpt>
      <trkpt lat="62.633962745735" lon="17.988128291209">
        <ele>82.8</ele>
        <time>2018-02-20T19:28:28Z</time>
      </trkpt>
      <trkpt lat="62.633937264759" lon="17.988107336459">
        <ele>83</ele>
        <time>2018-02-20T19:28:29Z</time>
      </trkpt>
      <trkpt lat="62.633916142371" lon="17.988101804405">
        <ele>83</ele>
        <time>2018-02-20T19:28:30Z</time>
      </trkpt>
      <trkpt lat="62.63389694782" lon="17.98808462151">
        <ele>83.2</ele>
        <time>2018-02-20T19:28:31Z</time>
      </trkpt>
      <trkpt lat="62.633871383025" lon="17.988062577113">
        <ele>83.2</ele>
        <time>2018-02-20T19:28:32Z</time>
      </trkpt>
      <trkpt lat="62.633857636709" lon="17.988049333711">
        <ele>83.2</ele>
        <time>2018-02-20T19:28:33Z</time>
      </trkpt>
      <trkpt lat="62.633834251208" lon="17.988024355649">
        <ele>83.6</ele>
        <time>2018-02-20T19:28:34Z</time>
      </trkpt>
      <trkpt lat="62.633805249834" lon="17.987994432266">
        <ele>83.6</ele>
        <time>2018-02-20T19:28:35Z</time>
      </trkpt>
      <trkpt lat="62.633788402215" lon="17.987974986258">
        <ele>83.6</ele>
        <time>2018-02-20T19:28:36Z</time>
      </trkpt>
      <trkpt lat="62.63375864647" lon="17.987945565789">
        <ele>83.8</ele>
        <time>2018-02-20T19:28:37Z</time>
      </trkpt>
      <trkpt lat="62.633723274852" lon="17.987915642406">
        <ele>83.8</ele>
        <time>2018-02-20T19:28:38Z</time>
      </trkpt>
      <trkpt lat="62.633699051161" lon="17.987890496706">
        <ele>83.8</ele>
        <time>2018-02-20T19:28:39Z</time>
      </trkpt>
      <trkpt lat="62.633678096411" lon="17.987866356834">
        <ele>83.8</ele>
        <time>2018-02-20T19:28:40Z</time>
      </trkpt>
      <trkpt lat="62.633653537444" lon="17.987837523098">
        <ele>83.8</ele>
        <time>2018-02-20T19:28:41Z</time>
      </trkpt>
      <trkpt lat="62.633635013445" lon="17.987807683534">
        <ele>83.8</ele>
        <time>2018-02-20T19:28:42Z</time>
      </trkpt>
      <trkpt lat="62.633608861917" lon="17.987776586685">
        <ele>83.8</ele>
        <time>2018-02-20T19:28:43Z</time>
      </trkpt>
      <trkpt lat="62.63359100847" lon="17.987756134849">
        <ele>84</ele>
        <time>2018-02-20T19:28:44Z</time>
      </trkpt>
      <trkpt lat="62.633567120055" lon="17.987725205638">
        <ele>84.4</ele>
        <time>2018-02-20T19:28:45Z</time>
      </trkpt>
      <trkpt lat="62.633554882481" lon="17.987704586164">
        <ele>84.6</ele>
        <time>2018-02-20T19:28:46Z</time>
      </trkpt>
      <trkpt lat="62.633535352654" lon="17.987676925894">
        <ele>85</ele>
        <time>2018-02-20T19:28:47Z</time>
      </trkpt>
      <trkpt lat="62.633509117307" lon="17.987634010566">
        <ele>85.2</ele>
        <time>2018-02-20T19:28:48Z</time>
      </trkpt>
      <trkpt lat="62.633492269688" lon="17.987609200142">
        <ele>85.4</ele>
        <time>2018-02-20T19:28:49Z</time>
      </trkpt>
      <trkpt lat="62.633470476748" lon="17.987573241791">
        <ele>85.4</ele>
        <time>2018-02-20T19:28:50Z</time>
      </trkpt>
      <trkpt lat="62.633440637184" lon="17.987537367259">
        <ele>85.6</ele>
        <time>2018-02-20T19:28:51Z</time>
      </trkpt>
      <trkpt lat="62.633428986343" lon="17.987508282066">
        <ele>85.6</ele>
        <time>2018-02-20T19:28:52Z</time>
      </trkpt>
      <trkpt lat="62.633409037421" lon="17.98747274281">
        <ele>85.8</ele>
        <time>2018-02-20T19:28:53Z</time>
      </trkpt>
      <trkpt lat="62.633392860354" lon="17.987436113907">
        <ele>85.8</ele>
        <time>2018-02-20T19:28:54Z</time>
      </trkpt>
      <trkpt lat="62.633375258364" lon="17.987400742289">
        <ele>86.2</ele>
        <time>2018-02-20T19:28:55Z</time>
      </trkpt>
      <trkpt lat="62.633358159288" lon="17.98737802734">
        <ele>86.6</ele>
        <time>2018-02-20T19:28:56Z</time>
      </trkpt>
      <trkpt lat="62.633330918113" lon="17.987311307416">
        <ele>86.6</ele>
        <time>2018-02-20T19:28:57Z</time>
      </trkpt>
      <trkpt lat="62.633313064666" lon="17.987252717935">
        <ele>86.8</ele>
        <time>2018-02-20T19:28:58Z</time>
      </trkpt>
      <trkpt lat="62.633282889826" lon="17.987186165649">
        <ele>87</ele>
        <time>2018-02-20T19:28:59Z</time>
      </trkpt>
      <trkpt lat="62.633263192361" lon="17.987083068279">
        <ele>87</ele>
        <time>2018-02-20T19:29:00Z</time>
      </trkpt>
      <trkpt lat="62.633242489068" lon="17.986975779959">
        <ele>86.4</ele>
        <time>2018-02-20T19:29:01Z</time>
      </trkpt>
      <trkpt lat="62.633225809087" lon="17.986864719784">
        <ele>86</ele>
        <time>2018-02-20T19:29:02Z</time>
      </trkpt>
      <trkpt lat="62.633215666988" lon="17.986751480315">
        <ele>85.4</ele>
        <time>2018-02-20T19:29:03Z</time>
      </trkpt>
      <trkpt lat="62.633210134934" lon="17.986667661315">
        <ele>84.8</ele>
        <time>2018-02-20T19:29:04Z</time>
      </trkpt>
      <trkpt lat="62.633193622591" lon="17.98654989562">
        <ele>84</ele>
        <time>2018-02-20T19:29:05Z</time>
      </trkpt>
      <trkpt lat="62.633170488547" lon="17.98648535499">
        <ele>83.4</ele>
        <time>2018-02-20T19:29:06Z</time>
      </trkpt>
      <trkpt lat="62.633169734176" lon="17.986411929546">
        <ele>83.2</ele>
        <time>2018-02-20T19:29:07Z</time>
      </trkpt>
      <trkpt lat="62.633161519914" lon="17.986291565462">
        <ele>83.4</ele>
        <time>2018-02-20T19:29:08Z</time>
      </trkpt>
      <trkpt lat="62.633159508258" lon="17.986207327367">
        <ele>83.4</ele>
        <time>2018-02-20T19:29:09Z</time>
      </trkpt>
      <trkpt lat="62.633162274285" lon="17.986076569727">
        <ele>83.6</ele>
        <time>2018-02-20T19:29:10Z</time>
      </trkpt>
      <trkpt lat="62.633165459407" lon="17.985963665534">
        <ele>83.2</ele>
        <time>2018-02-20T19:29:11Z</time>
      </trkpt>
      <trkpt lat="62.633168728348" lon="17.985855287567">
        <ele>82.6</ele>
        <time>2018-02-20T19:29:12Z</time>
      </trkpt>
      <trkpt lat="62.633164705036" lon="17.985747077238">
        <ele>82</ele>
        <time>2018-02-20T19:29:13Z</time>
      </trkpt>
      <trkpt lat="62.633164705036" lon="17.985647919361">
        <ele>81.4</ele>
        <time>2018-02-20T19:29:14Z</time>
      </trkpt>
      <trkpt lat="62.633170320909" lon="17.985558065393">
        <ele>81</ele>
        <time>2018-02-20T19:29:15Z</time>
      </trkpt>
      <trkpt lat="62.633160262629" lon="17.985490842555">
        <ele>81.2</ele>
        <time>2018-02-20T19:29:16Z</time>
      </trkpt>
      <trkpt lat="62.633174679497" lon="17.98538900247">
        <ele>81.4</ele>
        <time>2018-02-20T19:29:17Z</time>
      </trkpt>
      <trkpt lat="62.633190772745" lon="17.985285569824">
        <ele>81.4</ele>
        <time>2018-02-20T19:29:18Z</time>
      </trkpt>
      <trkpt lat="62.633201333939" lon="17.985152297614">
        <ele>81.8</ele>
        <time>2018-02-20T19:29:19Z</time>
      </trkpt>
      <trkpt lat="62.633220696128" lon="17.98501265516">
        <ele>81.2</ele>
        <time>2018-02-20T19:29:20Z</time>
      </trkpt>
      <trkpt lat="62.633243578715" lon="17.984882400434">
        <ele>80.4</ele>
        <time>2018-02-20T19:29:21Z</time>
      </trkpt>
      <trkpt lat="62.633267802406" lon="17.98477125644">
        <ele>79.8</ele>
        <time>2018-02-20T19:29:22Z</time>
      </trkpt>
      <trkpt lat="62.633291690821" lon="17.984659860989">
        <ele>79.2</ele>
        <time>2018-02-20T19:29:23Z</time>
      </trkpt>
      <trkpt lat="62.633317842349" lon="17.984557015076">
        <ele>78.6</ele>
        <time>2018-02-20T19:29:24Z</time>
      </trkpt>
      <trkpt lat="62.633337204538" lon="17.984470597687">
        <ele>77.8</ele>
        <time>2018-02-20T19:29:25Z</time>
      </trkpt>
      <trkpt lat="62.633355560899" lon="17.984390885818">
        <ele>77.6</ele>
        <time>2018-02-20T19:29:26Z</time>
      </trkpt>
      <trkpt lat="62.633377605296" lon="17.984302372954">
        <ele>77.2</ele>
        <time>2018-02-20T19:29:27Z</time>
      </trkpt>
      <trkpt lat="62.633380036047" lon="17.984235736849">
        <ele>77.2</ele>
        <time>2018-02-20T19:29:28Z</time>
      </trkpt>
      <trkpt lat="62.633386825386" lon="17.984127023606">
        <ele>77.6</ele>
        <time>2018-02-20T19:29:29Z</time>
      </trkpt>
      <trkpt lat="62.633394117639" lon="17.984058208207">
        <ele>77.8</ele>
        <time>2018-02-20T19:29:30Z</time>
      </trkpt>
      <trkpt lat="62.63340576848" lon="17.98400515078">
        <ele>78.2</ele>
        <time>2018-02-20T19:29:31Z</time>
      </trkpt>
      <trkpt lat="62.633409875611" lon="17.983940191055">
        <ele>78.4</ele>
        <time>2018-02-20T19:29:32Z</time>
      </trkpt>
      <trkpt lat="62.633428567248" lon="17.983868944905">
        <ele>78.8</ele>
        <time>2018-02-20T19:29:33Z</time>
      </trkpt>
      <trkpt lat="62.633432339103" lon="17.983799626592">
        <ele>78.8</ele>
        <time>2018-02-20T19:29:34Z</time>
      </trkpt>
      <trkpt lat="62.63344516341" lon="17.983756459807">
        <ele>78.8</ele>
        <time>2018-02-20T19:29:35Z</time>
      </trkpt>
      <trkpt lat="62.633463100676" lon="17.983671299703">
        <ele>79</ele>
        <time>2018-02-20T19:29:36Z</time>
      </trkpt>
      <trkpt lat="62.633467207807" lon="17.983627630004">
        <ele>79</ele>
        <time>2018-02-20T19:29:37Z</time>
      </trkpt>
      <trkpt lat="62.633479780657" lon="17.983568034695">
        <ele>79.2</ele>
        <time>2018-02-20T19:29:38Z</time>
      </trkpt>
      <trkpt lat="62.633492604964" lon="17.98349134031">
        <ele>79</ele>
        <time>2018-02-20T19:29:39Z</time>
      </trkpt>
      <trkpt lat="62.633494951896" lon="17.983446832421">
        <ele>79.2</ele>
        <time>2018-02-20T19:29:40Z</time>
      </trkpt>
      <trkpt lat="62.633517499207" lon="17.98339075751">
        <ele>79.2</ele>
        <time>2018-02-20T19:29:41Z</time>
      </trkpt>
      <trkpt lat="62.633515655189" lon="17.983325043414">
        <ele>79.2</ele>
        <time>2018-02-20T19:29:42Z</time>
      </trkpt>
      <trkpt lat="62.633520935786" lon="17.983275590204">
        <ele>79.2</ele>
        <time>2018-02-20T19:29:43Z</time>
      </trkpt>
      <trkpt lat="62.633536945215" lon="17.983225801718">
        <ele>79.2</ele>
        <time>2018-02-20T19:29:44Z</time>
      </trkpt>
      <trkpt lat="62.633552367911" lon="17.983172409015">
        <ele>79.2</ele>
        <time>2018-02-20T19:29:45Z</time>
      </trkpt>
      <trkpt lat="62.633562426191" lon="17.98310409653">
        <ele>79.2</ele>
        <time>2018-02-20T19:29:46Z</time>
      </trkpt>
      <trkpt lat="62.633580614914" lon="17.983040645547">
        <ele>79.2</ele>
        <time>2018-02-20T19:29:47Z</time>
      </trkpt>
      <trkpt lat="62.633574579946" lon="17.982969818492">
        <ele>79.2</ele>
        <time>2018-02-20T19:29:48Z</time>
      </trkpt>
      <trkpt lat="62.633593355402" lon="17.982934949788">
        <ele>79.2</ele>
        <time>2018-02-20T19:29:49Z</time>
      </trkpt>
      <trkpt lat="62.633609197193" lon="17.98285934505">
        <ele>79.2</ele>
        <time>2018-02-20T19:29:50Z</time>
      </trkpt>
      <trkpt lat="62.633601653483" lon="17.982809221288">
        <ele>79.2</ele>
        <time>2018-02-20T19:29:51Z</time>
      </trkpt>
      <trkpt lat="62.633621434767" lon="17.982759851897">
        <ele>79.2</ele>
        <time>2018-02-20T19:29:52Z</time>
      </trkpt>
      <trkpt lat="62.633640629318" lon="17.982675027069">
        <ele>79.2</ele>
        <time>2018-02-20T19:29:53Z</time>
      </trkpt>
      <trkpt lat="62.63363124159" lon="17.982619203615">
        <ele>79.4</ele>
        <time>2018-02-20T19:29:54Z</time>
      </trkpt>
      <trkpt lat="62.633643730621" lon="17.982551226406">
        <ele>79.4</ele>
        <time>2018-02-20T19:29:55Z</time>
      </trkpt>
      <trkpt lat="62.633651693426" lon="17.982500348273">
        <ele>79.4</ele>
        <time>2018-02-20T19:29:56Z</time>
      </trkpt>
      <trkpt lat="62.633673737823" lon="17.982447626122">
        <ele>79.4</ele>
        <time>2018-02-20T19:29:57Z</time>
      </trkpt>
      <trkpt lat="62.633675917117" lon="17.982364980588">
        <ele>79.4</ele>
        <time>2018-02-20T19:29:58Z</time>
      </trkpt>
      <trkpt lat="62.633673318728" lon="17.982307229297">
        <ele>79.4</ele>
        <time>2018-02-20T19:29:59Z</time>
      </trkpt>
      <trkpt lat="62.633688573786" lon="17.982258195182">
        <ele>79.4</ele>
        <time>2018-02-20T19:30:00Z</time>
      </trkpt>
      <trkpt lat="62.633684718112" lon="17.98218711667">
        <ele>79.2</ele>
        <time>2018-02-20T19:30:01Z</time>
      </trkpt>
      <trkpt lat="62.633676336212" lon="17.98214436898">
        <ele>79.4</ele>
        <time>2018-02-20T19:30:02Z</time>
      </trkpt>
      <trkpt lat="62.633696955686" lon="17.982093323209">
        <ele>79.2</ele>
        <time>2018-02-20T19:30:03Z</time>
      </trkpt>
      <trkpt lat="62.633696452772" lon="17.982005816173">
        <ele>79.2</ele>
        <time>2018-02-20T19:30:04Z</time>
      </trkpt>
      <trkpt lat="62.633687065044" lon="17.981949992719">
        <ele>79.2</ele>
        <time>2018-02-20T19:30:05Z</time>
      </trkpt>
      <trkpt lat="62.633695949858" lon="17.981901461518">
        <ele>79.2</ele>
        <time>2018-02-20T19:30:06Z</time>
      </trkpt>
      <trkpt lat="62.633692345641" lon="17.98182585678">
        <ele>79.2</ele>
        <time>2018-02-20T19:30:07Z</time>
      </trkpt>
      <trkpt lat="62.633706846328" lon="17.981771709706">
        <ele>79.2</ele>
        <time>2018-02-20T19:30:08Z</time>
      </trkpt>
      <trkpt lat="62.633712126925" lon="17.981695602054">
        <ele>79.2</ele>
        <time>2018-02-20T19:30:09Z</time>
      </trkpt>
      <trkpt lat="62.633721011739" lon="17.981637515487">
        <ele>79.2</ele>
        <time>2018-02-20T19:30:10Z</time>
      </trkpt>
      <trkpt lat="62.633735093331" lon="17.981592504684">
        <ele>79.4</ele>
        <time>2018-02-20T19:30:11Z</time>
      </trkpt>
      <trkpt lat="62.633747666181" lon="17.981508937141">
        <ele>79.6</ele>
        <time>2018-02-20T19:30:12Z</time>
      </trkpt>
      <trkpt lat="62.633749342561" lon="17.981468955478">
        <ele>79.4</ele>
        <time>2018-02-20T19:30:13Z</time>
      </trkpt>
      <trkpt lat="62.633761747773" lon="17.981425956331">
        <ele>79.6</ele>
        <time>2018-02-20T19:30:14Z</time>
      </trkpt>
      <trkpt lat="62.633773147157" lon="17.981349597222">
        <ele>79.6</ele>
        <time>2018-02-20T19:30:15Z</time>
      </trkpt>
      <trkpt lat="62.633796784115" lon="17.981296707433">
        <ele>79.6</ele>
        <time>2018-02-20T19:30:16Z</time>
      </trkpt>
      <trkpt lat="62.633801645617" lon="17.981247170404">
        <ele>79.6</ele>
        <time>2018-02-20T19:30:17Z</time>
      </trkpt>
      <trkpt lat="62.633807764404" lon="17.981205428542">
        <ele>79.6</ele>
        <time>2018-02-20T19:30:18Z</time>
      </trkpt>
      <trkpt lat="62.633823270919" lon="17.981153544581">
        <ele>79.6</ele>
        <time>2018-02-20T19:30:19Z</time>
      </trkpt>
      <trkpt lat="62.633839615624" lon="17.981114149651">
        <ele>79.8</ele>
        <time>2018-02-20T19:30:20Z</time>
      </trkpt>
      <trkpt lat="62.633864593686" lon="17.981064696441">
        <ele>79.8</ele>
        <time>2018-02-20T19:30:21Z</time>
      </trkpt>
      <trkpt lat="62.633891164309" lon="17.981022451665">
        <ele>79.8</ele>
        <time>2018-02-20T19:30:22Z</time>
      </trkpt>
      <trkpt lat="62.63391790257" lon="17.980955061189">
        <ele>80</ele>
        <time>2018-02-20T19:30:23Z</time>
      </trkpt>
      <trkpt lat="62.633943299727" lon="17.980903261047">
        <ele>80</ele>
        <time>2018-02-20T19:30:24Z</time>
      </trkpt>
      <trkpt lat="62.633961404631" lon="17.980833188363">
        <ele>80.2</ele>
        <time>2018-02-20T19:30:25Z</time>
      </trkpt>
      <trkpt lat="62.633975570042" lon="17.980777029633">
        <ele>80.2</ele>
        <time>2018-02-20T19:30:26Z</time>
      </trkpt>
      <trkpt lat="62.634001302475" lon="17.980703268913">
        <ele>80.4</ele>
        <time>2018-02-20T19:30:27Z</time>
      </trkpt>
      <trkpt lat="62.634009935832" lon="17.980662784336">
        <ele>80.6</ele>
        <time>2018-02-20T19:30:28Z</time>
      </trkpt>
      <trkpt lat="62.634028292193" lon="17.980603189027">
        <ele>80.6</ele>
        <time>2018-02-20T19:30:29Z</time>
      </trkpt>
      <trkpt lat="62.634050504228" lon="17.980529679764">
        <ele>80.6</ele>
        <time>2018-02-20T19:30:30Z</time>
      </trkpt>
      <trkpt lat="62.634067016571" lon="17.980483998409">
        <ele>80.6</ele>
        <time>2018-02-20T19:30:31Z</time>
      </trkpt>
      <trkpt lat="62.634099622162" lon="17.980427169127">
        <ele>80.6</ele>
        <time>2018-02-20T19:30:32Z</time>
      </trkpt>
      <trkpt lat="62.634104316026" lon="17.980372016225">
        <ele>80.6</ele>
        <time>2018-02-20T19:30:33Z</time>
      </trkpt>
      <trkpt lat="62.634133149762" lon="17.980332369838">
        <ele>80.8</ele>
        <time>2018-02-20T19:30:34Z</time>
      </trkpt>
      <trkpt lat="62.634159552747" lon="17.980292891089">
        <ele>80.8</ele>
        <time>2018-02-20T19:30:35Z</time>
      </trkpt>
      <trkpt lat="62.634182602972" lon="17.980241007128">
        <ele>80.8</ele>
        <time>2018-02-20T19:30:36Z</time>
      </trkpt>
      <trkpt lat="62.634210766156" lon="17.980197085972">
        <ele>80.8</ele>
        <time>2018-02-20T19:30:37Z</time>
      </trkpt>
      <trkpt lat="62.634227949051" lon="17.980153080997">
        <ele>81</ele>
        <time>2018-02-20T19:30:38Z</time>
      </trkpt>
      <trkpt lat="62.634238677883" lon="17.980109746574">
        <ele>81</ele>
        <time>2018-02-20T19:30:39Z</time>
      </trkpt>
      <trkpt lat="62.634269690913" lon="17.980044367754">
        <ele>81</ele>
        <time>2018-02-20T19:30:40Z</time>
      </trkpt>
      <trkpt lat="62.634277905175" lon="17.980004050815">
        <ele>81</ele>
        <time>2018-02-20T19:30:41Z</time>
      </trkpt>
      <trkpt lat="62.634303050875" lon="17.979950741931">
        <ele>81</ele>
        <time>2018-02-20T19:30:42Z</time>
      </trkpt>
      <trkpt lat="62.634322832159" lon="17.979872119709">
        <ele>80.8</ele>
        <time>2018-02-20T19:30:43Z</time>
      </trkpt>
      <trkpt lat="62.634323502711" lon="17.97982342087">
        <ele>80.8</ele>
        <time>2018-02-20T19:30:44Z</time>
      </trkpt>
      <trkpt lat="62.634339763597" lon="17.979771872185">
        <ele>80.8</ele>
        <time>2018-02-20T19:30:45Z</time>
      </trkpt>
      <trkpt lat="62.634345630927" lon="17.979694591067">
        <ele>80.8</ele>
        <time>2018-02-20T19:30:46Z</time>
      </trkpt>
      <trkpt lat="62.634363484374" lon="17.979640863088">
        <ele>80.8</ele>
        <time>2018-02-20T19:30:47Z</time>
      </trkpt>
      <trkpt lat="62.63438393621" lon="17.979553272233">
        <ele>80.8</ele>
        <time>2018-02-20T19:30:48Z</time>
      </trkpt>
      <trkpt lat="62.634387037513" lon="17.979499208978">
        <ele>80.8</ele>
        <time>2018-02-20T19:30:49Z</time>
      </trkpt>
      <trkpt lat="62.634401789657" lon="17.979444391352">
        <ele>80.8</ele>
        <time>2018-02-20T19:30:50Z</time>
      </trkpt>
      <trkpt lat="62.634420229837" lon="17.979367110234">
        <ele>80.8</ele>
        <time>2018-02-20T19:30:51Z</time>
      </trkpt>
      <trkpt lat="62.634435568714" lon="17.979315813006">
        <ele>80.8</ele>
        <time>2018-02-20T19:30:52Z</time>
      </trkpt>
      <trkpt lat="62.634447219555" lon="17.97926686271">
        <ele>80.8</ele>
        <time>2018-02-20T19:30:53Z</time>
      </trkpt>
      <trkpt lat="62.634462223156" lon="17.979175248543">
        <ele>80.8</ele>
        <time>2018-02-20T19:30:54Z</time>
      </trkpt>
      <trkpt lat="62.634468341943" lon="17.979128309903">
        <ele>80.8</ele>
        <time>2018-02-20T19:30:55Z</time>
      </trkpt>
      <trkpt lat="62.634477226757" lon="17.979060500332">
        <ele>80.6</ele>
        <time>2018-02-20T19:30:56Z</time>
      </trkpt>
      <trkpt lat="62.634491643625" lon="17.978995205331">
        <ele>80.6</ele>
        <time>2018-02-20T19:30:57Z</time>
      </trkpt>
      <trkpt lat="62.634505725217" lon="17.978936532031">
        <ele>80.6</ele>
        <time>2018-02-20T19:30:58Z</time>
      </trkpt>
      <trkpt lat="62.634514610031" lon="17.97884525314">
        <ele>80.6</ele>
        <time>2018-02-20T19:30:59Z</time>
      </trkpt>
      <trkpt lat="62.634525841777" lon="17.978786663659">
        <ele>80.4</ele>
        <time>2018-02-20T19:31:00Z</time>
      </trkpt>
      <trkpt lat="62.634537995532" lon="17.978731594576">
        <ele>80.6</ele>
        <time>2018-02-20T19:31:01Z</time>
      </trkpt>
      <trkpt lat="62.634545371604" lon="17.978655989838">
        <ele>80.4</ele>
        <time>2018-02-20T19:31:02Z</time>
      </trkpt>
      <trkpt lat="62.634551406572" lon="17.978583318765">
        <ele>80.4</ele>
        <time>2018-02-20T19:31:03Z</time>
      </trkpt>
      <trkpt lat="62.634563057413" lon="17.978510312416">
        <ele>80.4</ele>
        <time>2018-02-20T19:31:04Z</time>
      </trkpt>
      <trkpt lat="62.63458174905" lon="17.978433618031">
        <ele>80.4</ele>
        <time>2018-02-20T19:31:05Z</time>
      </trkpt>
      <trkpt lat="62.634588957484" lon="17.978357175103">
        <ele>80.4</ele>
        <time>2018-02-20T19:31:06Z</time>
      </trkpt>
      <trkpt lat="62.634602955257" lon="17.978280480718">
        <ele>80.2</ele>
        <time>2018-02-20T19:31:07Z</time>
      </trkpt>
      <trkpt lat="62.63461779122" lon="17.978201774677">
        <ele>80.2</ele>
        <time>2018-02-20T19:31:08Z</time>
      </trkpt>
      <trkpt lat="62.63462701131" lon="17.978111166338">
        <ele>80</ele>
        <time>2018-02-20T19:31:09Z</time>
      </trkpt>
      <trkpt lat="62.634628100957" lon="17.978054253237">
        <ele>80</ele>
        <time>2018-02-20T19:31:10Z</time>
      </trkpt>
      <trkpt lat="62.634641511997" lon="17.977968087305">
        <ele>79.8</ele>
        <time>2018-02-20T19:31:11Z</time>
      </trkpt>
      <trkpt lat="62.634646624956" lon="17.977896254422">
        <ele>79.6</ele>
        <time>2018-02-20T19:31:12Z</time>
      </trkpt>
      <trkpt lat="62.634647714603" lon="17.977842526443">
        <ele>79.4</ele>
        <time>2018-02-20T19:31:13Z</time>
      </trkpt>
      <trkpt lat="62.634661460919" lon="17.977746469869">
        <ele>79.2</ele>
        <time>2018-02-20T19:31:14Z</time>
      </trkpt>
      <trkpt lat="62.634674871959" lon="17.977668350561">
        <ele>79.2</ele>
        <time>2018-02-20T19:31:15Z</time>
      </trkpt>
      <trkpt lat="62.634689456465" lon="17.977599199886">
        <ele>79</ele>
        <time>2018-02-20T19:31:16Z</time>
      </trkpt>
      <trkpt lat="62.634697251632" lon="17.977508591547">
        <ele>79</ele>
        <time>2018-02-20T19:31:17Z</time>
      </trkpt>
      <trkpt lat="62.634715691812" lon="17.977446816944">
        <ele>78.8</ele>
        <time>2018-02-20T19:31:18Z</time>
      </trkpt>
      <trkpt lat="62.634728516119" lon="17.977379510287">
        <ele>78.8</ele>
        <time>2018-02-20T19:31:19Z</time>
      </trkpt>
      <trkpt lat="62.634738155304" lon="17.977325949946">
        <ele>78.6</ele>
        <time>2018-02-20T19:31:20Z</time>
      </trkpt>
      <trkpt lat="62.634752069258" lon="17.977294769278">
        <ele>78.6</ele>
        <time>2018-02-20T19:31:21Z</time>
      </trkpt>
      <trkpt lat="62.634766569945" lon="17.977224780413">
        <ele>78.6</ele>
        <time>2018-02-20T19:31:22Z</time>
      </trkpt>
      <trkpt lat="62.634765061203" lon="17.977159401593">
        <ele>78.8</ele>
        <time>2018-02-20T19:31:23Z</time>
      </trkpt>
      <trkpt lat="62.634780567718" lon="17.977099890103">
        <ele>78.8</ele>
        <time>2018-02-20T19:31:24Z</time>
      </trkpt>
      <trkpt lat="62.634796912423" lon="17.977014981456">
        <ele>79</ele>
        <time>2018-02-20T19:31:25Z</time>
      </trkpt>
      <trkpt lat="62.634805797237" lon="17.976955302328">
        <ele>78.8</ele>
        <time>2018-02-20T19:31:26Z</time>
      </trkpt>
      <trkpt lat="62.634814262956" lon="17.976902915453">
        <ele>78.6</ele>
        <time>2018-02-20T19:31:27Z</time>
      </trkpt>
      <trkpt lat="62.634820214105" lon="17.976819264091">
        <ele>78.6</ele>
        <time>2018-02-20T19:31:28Z</time>
      </trkpt>
      <trkpt lat="62.634835469163" lon="17.976756986574">
        <ele>78.4</ele>
        <time>2018-02-20T19:31:29Z</time>
      </trkpt>
      <trkpt lat="62.634852149144" lon="17.976662103466">
        <ele>78.2</ele>
        <time>2018-02-20T19:31:30Z</time>
      </trkpt>
      <trkpt lat="62.634861536872" lon="17.976583145968">
        <ele>78.2</ele>
        <time>2018-02-20T19:31:31Z</time>
      </trkpt>
      <trkpt lat="62.634875199369" lon="17.976519611166">
        <ele>78.2</ele>
        <time>2018-02-20T19:31:32Z</time>
      </trkpt>
      <trkpt lat="62.63489020297" lon="17.976441827134">
        <ele>78</ele>
        <time>2018-02-20T19:31:33Z</time>
      </trkpt>
      <trkpt lat="62.634906547675" lon="17.976391116639">
        <ele>78</ele>
        <time>2018-02-20T19:31:34Z</time>
      </trkpt>
      <trkpt lat="62.634929346443" lon="17.976298580463">
        <ele>78</ele>
        <time>2018-02-20T19:31:35Z</time>
      </trkpt>
      <trkpt lat="62.634952061392" lon="17.976224568286">
        <ele>77.8</ele>
        <time>2018-02-20T19:31:36Z</time>
      </trkpt>
      <trkpt lat="62.634975111617" lon="17.97614209039">
        <ele>77.6</ele>
        <time>2018-02-20T19:31:37Z</time>
      </trkpt>
      <trkpt lat="62.634989863761" lon="17.976092385723">
        <ele>77.6</ele>
        <time>2018-02-20T19:31:38Z</time>
      </trkpt>
      <trkpt lat="62.635008303941" lon="17.976014014958">
        <ele>77.6</ele>
        <time>2018-02-20T19:31:39Z</time>
      </trkpt>
      <trkpt lat="62.635007298113" lon="17.975924412447">
        <ele>77.4</ele>
        <time>2018-02-20T19:31:40Z</time>
      </trkpt>
      <trkpt lat="62.635035712754" lon="17.975856183781">
        <ele>77.2</ele>
        <time>2018-02-20T19:31:41Z</time>
      </trkpt>
      <trkpt lat="62.635050381079" lon="17.975757696456">
        <ele>77.2</ele>
        <time>2018-02-20T19:31:42Z</time>
      </trkpt>
      <trkpt lat="62.635048537061" lon="17.975693826378">
        <ele>76.8</ele>
        <time>2018-02-20T19:31:43Z</time>
      </trkpt>
      <trkpt lat="62.63505784097" lon="17.975632387051">
        <ele>76.6</ele>
        <time>2018-02-20T19:31:44Z</time>
      </trkpt>
      <trkpt lat="62.63506119373" lon="17.975545885843">
        <ele>76.4</ele>
        <time>2018-02-20T19:31:45Z</time>
      </trkpt>
      <trkpt lat="62.635065552318" lon="17.975489810932">
        <ele>76.4</ele>
        <time>2018-02-20T19:31:46Z</time>
      </trkpt>
      <trkpt lat="62.635074856227" lon="17.97538604301">
        <ele>76.6</ele>
        <time>2018-02-20T19:31:47Z</time>
      </trkpt>
      <trkpt lat="62.635076700245" lon="17.975282694183">
        <ele>76.4</ele>
        <time>2018-02-20T19:31:48Z</time>
      </trkpt>
      <trkpt lat="62.635073347485" lon="17.975189487455">
        <ele>76.2</ele>
        <time>2018-02-20T19:31:49Z</time>
      </trkpt>
      <trkpt lat="62.635066809603" lon="17.975094520528">
        <ele>76</ele>
        <time>2018-02-20T19:31:50Z</time>
      </trkpt>
      <trkpt lat="62.635042921188" lon="17.975002319628">
        <ele>75.8</ele>
        <time>2018-02-20T19:31:51Z</time>
      </trkpt>
      <trkpt lat="62.635023223723" lon="17.974925289967">
        <ele>75.4</ele>
        <time>2018-02-20T19:31:52Z</time>
      </trkpt>
      <trkpt lat="62.635001263145" lon="17.974835855094">
        <ele>75</ele>
        <time>2018-02-20T19:31:53Z</time>
      </trkpt>
      <trkpt lat="62.634978129101" lon="17.974745498212">
        <ele>74.6</ele>
        <time>2018-02-20T19:31:54Z</time>
      </trkpt>
      <trkpt lat="62.634955330333" lon="17.974650531285">
        <ele>74</ele>
        <time>2018-02-20T19:31:55Z</time>
      </trkpt>
      <trkpt lat="62.634938231257" lon="17.974560844955">
        <ele>73.6</ele>
        <time>2018-02-20T19:31:56Z</time>
      </trkpt>
      <trkpt lat="62.63491870143" lon="17.974477528869">
        <ele>73.2</ele>
        <time>2018-02-20T19:31:57Z</time>
      </trkpt>
      <trkpt lat="62.634910990082" lon="17.974414748438">
        <ele>72.8</ele>
        <time>2018-02-20T19:31:58Z</time>
      </trkpt>
      <trkpt lat="62.634898333413" lon="17.974317853674">
        <ele>72.8</ele>
        <time>2018-02-20T19:31:59Z</time>
      </trkpt>
      <trkpt lat="62.634877378663" lon="17.974277369097">
        <ele>72.8</ele>
        <time>2018-02-20T19:32:00Z</time>
      </trkpt>
      <trkpt lat="62.634863967623" lon="17.974226910059">
        <ele>72.8</ele>
        <time>2018-02-20T19:32:01Z</time>
      </trkpt>
      <trkpt lat="62.634850053669" lon="17.974132446046">
        <ele>73</ele>
        <time>2018-02-20T19:32:02Z</time>
      </trkpt>
      <trkpt lat="62.634814933508" lon="17.974072683099">
        <ele>73</ele>
        <time>2018-02-20T19:32:03Z</time>
      </trkpt>
      <trkpt lat="62.634806132513" lon="17.974031444151">
        <ele>73</ele>
        <time>2018-02-20T19:32:04Z</time>
      </trkpt>
      <trkpt lat="62.634779142795" lon="17.973941925459">
        <ele>73</ele>
        <time>2018-02-20T19:32:05Z</time>
      </trkpt>
      <trkpt lat="62.634761456986" lon="17.973885431453">
        <ele>73</ele>
        <time>2018-02-20T19:32:06Z</time>
      </trkpt>
      <trkpt lat="62.634747291575" lon="17.973835559148">
        <ele>73.2</ele>
        <time>2018-02-20T19:32:07Z</time>
      </trkpt>
      <trkpt lat="62.634728264662" lon="17.973723325507">
        <ele>73</ele>
        <time>2018-02-20T19:32:08Z</time>
      </trkpt>
      <trkpt lat="62.634708399559" lon="17.973661299447">
        <ele>73</ele>
        <time>2018-02-20T19:32:09Z</time>
      </trkpt>
      <trkpt lat="62.634700855849" lon="17.973571445479">
        <ele>72.8</ele>
        <time>2018-02-20T19:32:10Z</time>
      </trkpt>
      <trkpt lat="62.634675961606" lon="17.973501540433">
        <ele>72.8</ele>
        <time>2018-02-20T19:32:11Z</time>
      </trkpt>
      <trkpt lat="62.634665903326" lon="17.973427025342">
        <ele>72.8</ele>
        <time>2018-02-20T19:32:12Z</time>
      </trkpt>
      <trkpt lat="62.634668166439" lon="17.973322335411">
        <ele>72.6</ele>
        <time>2018-02-20T19:32:13Z</time>
      </trkpt>
      <trkpt lat="62.634665316593" lon="17.973238348773">
        <ele>72.6</ele>
        <time>2018-02-20T19:32:14Z</time>
      </trkpt>
      <trkpt lat="62.634677386529" lon="17.973155954696">
        <ele>72.6</ele>
        <time>2018-02-20T19:32:15Z</time>
      </trkpt>
      <trkpt lat="62.634696832537" lon="17.973050678032">
        <ele>72.6</ele>
        <time>2018-02-20T19:32:16Z</time>
      </trkpt>
      <trkpt lat="62.634715524174" lon="17.972991166542">
        <ele>72.6</ele>
        <time>2018-02-20T19:32:17Z</time>
      </trkpt>
      <trkpt lat="62.634720469495" lon="17.972888823543">
        <ele>72.2</ele>
        <time>2018-02-20T19:32:18Z</time>
      </trkpt>
      <trkpt lat="62.63475441619" lon="17.972805256">
        <ele>72.2</ele>
        <time>2018-02-20T19:32:19Z</time>
      </trkpt>
      <trkpt lat="62.63478794379" lon="17.972760161378">
        <ele>72</ele>
        <time>2018-02-20T19:32:20Z</time>
      </trkpt>
      <trkpt lat="62.634808144169" lon="17.972654884714">
        <ele>71.8</ele>
        <time>2018-02-20T19:32:21Z</time>
      </trkpt>
      <trkpt lat="62.634831194394" lon="17.972595037948">
        <ele>71.6</ele>
        <time>2018-02-20T19:32:22Z</time>
      </trkpt>
      <trkpt lat="62.634852568239" lon="17.972523037427">
        <ele>71.6</ele>
        <time>2018-02-20T19:32:23Z</time>
      </trkpt>
      <trkpt lat="62.634884754735" lon="17.972442571187">
        <ele>71.4</ele>
        <time>2018-02-20T19:32:24Z</time>
      </trkpt>
      <trkpt lat="62.6349295979" lon="17.972381048041">
        <ele>71.2</ele>
        <time>2018-02-20T19:32:25Z</time>
      </trkpt>
      <trkpt lat="62.634948289537" lon="17.972301168534">
        <ele>71.2</ele>
        <time>2018-02-20T19:32:26Z</time>
      </trkpt>
      <trkpt lat="62.634976620359" lon="17.972213410041">
        <ele>71.2</ele>
        <time>2018-02-20T19:32:27Z</time>
      </trkpt>
      <trkpt lat="62.635007046656" lon="17.972167980143">
        <ele>71</ele>
        <time>2018-02-20T19:32:28Z</time>
      </trkpt>
      <trkpt lat="62.635033030546" lon="17.972077120347">
        <ele>71</ele>
        <time>2018-02-20T19:32:29Z</time>
      </trkpt>
      <trkpt lat="62.635063456843" lon="17.971945356879">
        <ele>71</ele>
        <time>2018-02-20T19:32:30Z</time>
      </trkpt>
      <trkpt lat="62.635077454616" lon="17.971819963655">
        <ele>70.6</ele>
        <time>2018-02-20T19:32:31Z</time>
      </trkpt>
      <trkpt lat="62.635088602543" lon="17.971701778865">
        <ele>70.2</ele>
        <time>2018-02-20T19:32:32Z</time>
      </trkpt>
      <trkpt lat="62.635100923936" lon="17.971585186636">
        <ele>69.6</ele>
        <time>2018-02-20T19:32:33Z</time>
      </trkpt>
      <trkpt lat="62.63511316151" lon="17.971476389574">
        <ele>69</ele>
        <time>2018-02-20T19:32:34Z</time>
      </trkpt>
      <trkpt lat="62.635127746016" lon="17.97135770187">
        <ele>68.4</ele>
        <time>2018-02-20T19:32:35Z</time>
      </trkpt>
      <trkpt lat="62.635142330522" lon="17.971237505424">
        <ele>67.4</ele>
        <time>2018-02-20T19:32:36Z</time>
      </trkpt>
      <trkpt lat="62.635154568096" lon="17.971133402226">
        <ele>66.8</ele>
        <time>2018-02-20T19:32:37Z</time>
      </trkpt>
      <trkpt lat="62.635172002448" lon="17.970997531627">
        <ele>66.4</ele>
        <time>2018-02-20T19:32:38Z</time>
      </trkpt>
      <trkpt lat="62.635187676601" lon="17.970883202511">
        <ele>65.8</ele>
        <time>2018-02-20T19:32:39Z</time>
      </trkpt>
      <trkpt lat="62.635200584727" lon="17.970776081829">
        <ele>65.4</ele>
        <time>2018-02-20T19:32:40Z</time>
      </trkpt>
      <trkpt lat="62.635213241396" lon="17.970656723573">
        <ele>65</ele>
        <time>2018-02-20T19:32:41Z</time>
      </trkpt>
      <trkpt lat="62.635227322988" lon="17.970549602891">
        <ele>64.6</ele>
        <time>2018-02-20T19:32:42Z</time>
      </trkpt>
      <trkpt lat="62.635241572218" lon="17.970430831368">
        <ele>64.2</ele>
        <time>2018-02-20T19:32:43Z</time>
      </trkpt>
      <trkpt lat="62.635258755113" lon="17.970320441745">
        <ele>63.8</ele>
        <time>2018-02-20T19:32:44Z</time>
      </trkpt>
      <trkpt lat="62.635275267456" lon="17.970216170909">
        <ele>63.4</ele>
        <time>2018-02-20T19:32:45Z</time>
      </trkpt>
      <trkpt lat="62.635292785627" lon="17.970090023314">
        <ele>63.2</ele>
        <time>2018-02-20T19:32:46Z</time>
      </trkpt>
      <trkpt lat="62.635318434241" lon="17.969984830469">
        <ele>62.8</ele>
        <time>2018-02-20T19:32:47Z</time>
      </trkpt>
      <trkpt lat="62.635347435615" lon="17.969868992611">
        <ele>62.2</ele>
        <time>2018-02-20T19:32:48Z</time>
      </trkpt>
      <trkpt lat="62.63537551498" lon="17.969767320164">
        <ele>61.6</ele>
        <time>2018-02-20T19:32:49Z</time>
      </trkpt>
      <trkpt lat="62.635404264897" lon="17.969661624405">
        <ele>61</ele>
        <time>2018-02-20T19:32:50Z</time>
      </trkpt>
      <trkpt lat="62.635430164968" lon="17.969555341913">
        <ele>60.4</ele>
        <time>2018-02-20T19:32:51Z</time>
      </trkpt>
      <trkpt lat="62.635451119718" lon="17.969470265628">
        <ele>60</ele>
        <time>2018-02-20T19:32:52Z</time>
      </trkpt>
      <trkpt lat="62.635484982594" lon="17.969339843264">
        <ele>59.6</ele>
        <time>2018-02-20T19:32:53Z</time>
      </trkpt>
      <trkpt lat="62.635515157434" lon="17.969222161388">
        <ele>59</ele>
        <time>2018-02-20T19:32:54Z</time>
      </trkpt>
      <trkpt lat="62.635544996998" lon="17.969102635494">
        <ele>58.8</ele>
        <time>2018-02-20T19:32:55Z</time>
      </trkpt>
      <trkpt lat="62.635582464091" lon="17.968989060749">
        <ele>58.4</ele>
        <time>2018-02-20T19:32:56Z</time>
      </trkpt>
      <trkpt lat="62.635617416614" lon="17.968886885388">
        <ele>58.2</ele>
        <time>2018-02-20T19:32:57Z</time>
      </trkpt>
      <trkpt lat="62.635658068829" lon="17.968777082498">
        <ele>58</ele>
        <time>2018-02-20T19:32:58Z</time>
      </trkpt>
      <trkpt lat="62.63570324727" lon="17.968682702304">
        <ele>57.4</ele>
        <time>2018-02-20T19:32:59Z</time>
      </trkpt>
      <trkpt lat="62.635747419883" lon="17.968606343195">
        <ele>56.8</ele>
        <time>2018-02-20T19:33:00Z</time>
      </trkpt>
      <trkpt lat="62.63580215369" lon="17.968542808393">
        <ele>56</ele>
        <time>2018-02-20T19:33:01Z</time>
      </trkpt>
      <trkpt lat="62.635913297684" lon="17.968487571672">
        <ele>54.4</ele>
        <time>2018-02-20T19:33:03Z</time>
      </trkpt>
      <trkpt lat="62.63596224798" lon="17.968479776505">
        <ele>54.2</ele>
        <time>2018-02-20T19:33:04Z</time>
      </trkpt>
      <trkpt lat="62.636010360086" lon="17.968466952198">
        <ele>54</ele>
        <time>2018-02-20T19:33:05Z</time>
      </trkpt>
      <trkpt lat="62.636058723649" lon="17.968472568071">
        <ele>54</ele>
        <time>2018-02-20T19:33:06Z</time>
      </trkpt>
      <trkpt lat="62.636095687828" lon="17.968472903347">
        <ele>54.4</ele>
        <time>2018-02-20T19:33:07Z</time>
      </trkpt>
      <trkpt lat="62.636138770794" lon="17.968468125664">
        <ele>54.6</ele>
        <time>2018-02-20T19:33:08Z</time>
      </trkpt>
      <trkpt lat="62.636170789652" lon="17.968494612468">
        <ele>55.2</ele>
        <time>2018-02-20T19:33:09Z</time>
      </trkpt>
      <trkpt lat="62.636205490718" lon="17.968511627725">
        <ele>55.2</ele>
        <time>2018-02-20T19:33:10Z</time>
      </trkpt>
      <trkpt lat="62.63624387982" lon="17.968523949118">
        <ele>55.2</ele>
        <time>2018-02-20T19:33:11Z</time>
      </trkpt>
      <trkpt lat="62.636275060488" lon="17.968548172809">
        <ele>55.2</ele>
        <time>2018-02-20T19:33:12Z</time>
      </trkpt>
      <trkpt lat="62.636312695219" lon="17.968581784228">
        <ele>55</ele>
        <time>2018-02-20T19:33:13Z</time>
      </trkpt>
      <trkpt lat="62.636340774584" lon="17.968611288516">
        <ele>55</ele>
        <time>2018-02-20T19:33:14Z</time>
      </trkpt>
      <trkpt lat="62.63637882841" lon="17.968646073401">
        <ele>54.8</ele>
        <time>2018-02-20T19:33:15Z</time>
      </trkpt>
      <trkpt lat="62.636402046273" lon="17.968699382285">
        <ele>55</ele>
        <time>2018-02-20T19:33:16Z</time>
      </trkpt>
      <trkpt lat="62.636427694887" lon="17.968752104436">
        <ele>54.8</ele>
        <time>2018-02-20T19:33:17Z</time>
      </trkpt>
      <trkpt lat="62.636455187519" lon="17.968786302588">
        <ele>54.8</ele>
        <time>2018-02-20T19:33:18Z</time>
      </trkpt>
      <trkpt lat="62.636469855844" lon="17.968848077191">
        <ele>54.8</ele>
        <time>2018-02-20T19:33:19Z</time>
      </trkpt>
      <trkpt lat="62.636491732603" lon="17.968903649188">
        <ele>54.6</ele>
        <time>2018-02-20T19:33:20Z</time>
      </trkpt>
      <trkpt lat="62.636510172783" lon="17.968953605312">
        <ele>54.6</ele>
        <time>2018-02-20T19:33:21Z</time>
      </trkpt>
      <trkpt lat="62.636523667642" lon="17.969000627771">
        <ele>54.6</ele>
        <time>2018-02-20T19:33:22Z</time>
      </trkpt>
      <trkpt lat="62.636547220781" lon="17.969055110121">
        <ele>54.8</ele>
        <time>2018-02-20T19:33:23Z</time>
      </trkpt>
      <trkpt lat="62.636573120852" lon="17.96908872154">
        <ele>54.8</ele>
        <time>2018-02-20T19:33:24Z</time>
      </trkpt>
      <trkpt lat="62.636591561032" lon="17.969161392613">
        <ele>54.8</ele>
        <time>2018-02-20T19:33:25Z</time>
      </trkpt>
      <trkpt lat="62.63661100704" lon="17.969215204411">
        <ele>54.8</ele>
        <time>2018-02-20T19:33:26Z</time>
      </trkpt>
      <trkpt lat="62.636630453048" lon="17.969252252409">
        <ele>54.6</ele>
        <time>2018-02-20T19:33:27Z</time>
      </trkpt>
      <trkpt lat="62.636647635943" lon="17.969322660369">
        <ele>54.6</ele>
        <time>2018-02-20T19:33:28Z</time>
      </trkpt>
      <trkpt lat="62.636662723363" lon="17.969370101923">
        <ele>54.4</ele>
        <time>2018-02-20T19:33:29Z</time>
      </trkpt>
      <trkpt lat="62.636681415" lon="17.969404383894">
        <ele>54.4</ele>
        <time>2018-02-20T19:33:30Z</time>
      </trkpt>
      <trkpt lat="62.636694742221" lon="17.96947177437">
        <ele>54.4</ele>
        <time>2018-02-20T19:33:31Z</time>
      </trkpt>
      <trkpt lat="62.636705554872" lon="17.9695279331">
        <ele>54.6</ele>
        <time>2018-02-20T19:33:32Z</time>
      </trkpt>
      <trkpt lat="62.636718546817" lon="17.96956313708">
        <ele>54.4</ele>
        <time>2018-02-20T19:33:33Z</time>
      </trkpt>
      <trkpt lat="62.636726425803" lon="17.969629186452">
        <ele>54.6</ele>
        <time>2018-02-20T19:33:34Z</time>
      </trkpt>
      <trkpt lat="62.636738747196" lon="17.969683752621">
        <ele>54.6</ele>
        <time>2018-02-20T19:33:35Z</time>
      </trkpt>
      <trkpt lat="62.636753247883" lon="17.969727673777">
        <ele>54.6</ele>
        <time>2018-02-20T19:33:36Z</time>
      </trkpt>
      <trkpt lat="62.636760372498" lon="17.969776204978">
        <ele>54.6</ele>
        <time>2018-02-20T19:33:37Z</time>
      </trkpt>
      <trkpt lat="62.636777723031" lon="17.969842924902">
        <ele>54.8</ele>
        <time>2018-02-20T19:33:38Z</time>
      </trkpt>
      <trkpt lat="62.636793145727" lon="17.969891875198">
        <ele>54.8</ele>
        <time>2018-02-20T19:33:39Z</time>
      </trkpt>
      <trkpt lat="62.636810077165" lon="17.969945519358">
        <ele>54.8</ele>
        <time>2018-02-20T19:33:40Z</time>
      </trkpt>
      <trkpt lat="62.63683061282" lon="17.969988015591">
        <ele>55</ele>
        <time>2018-02-20T19:33:41Z</time>
      </trkpt>
      <trkpt lat="62.636856512891" lon="17.970006288133">
        <ele>55.2</ele>
        <time>2018-02-20T19:33:42Z</time>
      </trkpt>
      <trkpt lat="62.636878138193" lon="17.970055070791">
        <ele>55.2</ele>
        <time>2018-02-20T19:33:43Z</time>
      </trkpt>
      <trkpt lat="62.636906217558" lon="17.970086419097">
        <ele>55.4</ele>
        <time>2018-02-20T19:33:44Z</time>
      </trkpt>
      <trkpt lat="62.636924657738" lon="17.970093208436">
        <ele>55.6</ele>
        <time>2018-02-20T19:33:45Z</time>
      </trkpt>
      <trkpt lat="62.636949384343" lon="17.970127574226">
        <ele>55.6</ele>
        <time>2018-02-20T19:33:46Z</time>
      </trkpt>
      <trkpt lat="62.636982911943" lon="17.97014735551">
        <ele>55.4</ele>
        <time>2018-02-20T19:33:47Z</time>
      </trkpt>
      <trkpt lat="62.637008644376" lon="17.970168394079">
        <ele>55.6</ele>
        <time>2018-02-20T19:33:48Z</time>
      </trkpt>
      <trkpt lat="62.637050637695" lon="17.970181805119">
        <ele>55.6</ele>
        <time>2018-02-20T19:33:49Z</time>
      </trkpt>
      <trkpt lat="62.637085171123" lon="17.970180966929">
        <ele>55.6</ele>
        <time>2018-02-20T19:33:50Z</time>
      </trkpt>
      <trkpt lat="62.637120123646" lon="17.970175937789">
        <ele>55.6</ele>
        <time>2018-02-20T19:33:51Z</time>
      </trkpt>
      <trkpt lat="62.637148370649" lon="17.970165544233">
        <ele>55.6</ele>
        <time>2018-02-20T19:33:52Z</time>
      </trkpt>
      <trkpt lat="62.637187849398" lon="17.970150121537">
        <ele>55.4</ele>
        <time>2018-02-20T19:33:53Z</time>
      </trkpt>
      <trkpt lat="62.637223556292" lon="17.970139057429">
        <ele>55</ele>
        <time>2018-02-20T19:33:54Z</time>
      </trkpt>
      <trkpt lat="62.637271081665" lon="17.970119946697">
        <ele>54.8</ele>
        <time>2018-02-20T19:33:55Z</time>
      </trkpt>
      <trkpt lat="62.637316343925" lon="17.970094046626">
        <ele>54.4</ele>
        <time>2018-02-20T19:33:56Z</time>
      </trkpt>
      <trkpt lat="62.63734945243" lon="17.970082060509">
        <ele>54.4</ele>
        <time>2018-02-20T19:33:57Z</time>
      </trkpt>
      <trkpt lat="62.637388763541" lon="17.970069655297">
        <ele>54.4</ele>
        <time>2018-02-20T19:33:58Z</time>
      </trkpt>
      <trkpt lat="62.637425895358" lon="17.970059261741">
        <ele>54</ele>
        <time>2018-02-20T19:33:59Z</time>
      </trkpt>
      <trkpt lat="62.637463949184" lon="17.970048029995">
        <ele>53.6</ele>
        <time>2018-02-20T19:34:00Z</time>
      </trkpt>
      <trkpt lat="62.637505104313" lon="17.970034618955">
        <ele>53.2</ele>
        <time>2018-02-20T19:34:01Z</time>
      </trkpt>
      <trkpt lat="62.637536536438" lon="17.970045180149">
        <ele>53</ele>
        <time>2018-02-20T19:34:02Z</time>
      </trkpt>
      <trkpt lat="62.637571656599" lon="17.970083485432">
        <ele>52.6</ele>
        <time>2018-02-20T19:34:03Z</time>
      </trkpt>
      <trkpt lat="62.637597640489" lon="17.970111900073">
        <ele>52.4</ele>
        <time>2018-02-20T19:34:04Z</time>
      </trkpt>
      <trkpt lat="62.637627982967" lon="17.970165125138">
        <ele>52.8</ele>
        <time>2018-02-20T19:34:05Z</time>
      </trkpt>
      <trkpt lat="62.637657403436" lon="17.97020435243">
        <ele>53</ele>
        <time>2018-02-20T19:34:06Z</time>
      </trkpt>
      <trkpt lat="62.637671401209" lon="17.970254811468">
        <ele>52.8</ele>
        <time>2018-02-20T19:34:07Z</time>
      </trkpt>
      <trkpt lat="62.637700402583" lon="17.970312395121">
        <ele>52.8</ele>
        <time>2018-02-20T19:34:08Z</time>
      </trkpt>
      <trkpt lat="62.637727140844" lon="17.970348102015">
        <ele>52.8</ele>
        <time>2018-02-20T19:34:09Z</time>
      </trkpt>
      <trkpt lat="62.637740551884" lon="17.970414151387">
        <ele>52.6</ele>
        <time>2018-02-20T19:34:10Z</time>
      </trkpt>
      <trkpt lat="62.637759830254" lon="17.970451367023">
        <ele>52.4</ele>
        <time>2018-02-20T19:34:11Z</time>
      </trkpt>
      <trkpt lat="62.637766787231" lon="17.970506603744">
        <ele>52.4</ele>
        <time>2018-02-20T19:34:12Z</time>
      </trkpt>
      <trkpt lat="62.637779695357" lon="17.970556643687">
        <ele>52.4</ele>
        <time>2018-02-20T19:34:13Z</time>
      </trkpt>
      <trkpt lat="62.637789669818" lon="17.970601738309">
        <ele>52.4</ele>
        <time>2018-02-20T19:34:14Z</time>
      </trkpt>
      <trkpt lat="62.637800901564" lon="17.970634427719">
        <ele>52.4</ele>
        <time>2018-02-20T19:34:15Z</time>
      </trkpt>
      <trkpt lat="62.637811378939" lon="17.970690586449">
        <ele>52.4</ele>
        <time>2018-02-20T19:34:16Z</time>
      </trkpt>
      <trkpt lat="62.637815905165" lon="17.970774070173">
        <ele>52.4</ele>
        <time>2018-02-20T19:34:17Z</time>
      </trkpt>
      <trkpt lat="62.637824119427" lon="17.970825199763">
        <ele>52.4</ele>
        <time>2018-02-20T19:34:18Z</time>
      </trkpt>
      <trkpt lat="62.637831579318" lon="17.970879346837">
        <ele>52.6</ele>
        <time>2018-02-20T19:34:19Z</time>
      </trkpt>
      <trkpt lat="62.637841218503" lon="17.970942546363">
        <ele>52.6</ele>
        <time>2018-02-20T19:34:20Z</time>
      </trkpt>
      <trkpt lat="62.63785404281" lon="17.97099895655">
        <ele>52.6</ele>
        <time>2018-02-20T19:34:21Z</time>
      </trkpt>
      <trkpt lat="62.637862592348" lon="17.971023934612">
        <ele>52.6</ele>
        <time>2018-02-20T19:34:22Z</time>
      </trkpt>
      <trkpt lat="62.637871896257" lon="17.971107334517">
        <ele>52.8</ele>
        <time>2018-02-20T19:34:23Z</time>
      </trkpt>
      <trkpt lat="62.637883211822" lon="17.971153937881">
        <ele>52.8</ele>
        <time>2018-02-20T19:34:24Z</time>
      </trkpt>
      <trkpt lat="62.637893773016" lon="17.971212024448">
        <ele>52.8</ele>
        <time>2018-02-20T19:34:25Z</time>
      </trkpt>
      <trkpt lat="62.637904753305" lon="17.971273212318">
        <ele>52.8</ele>
        <time>2018-02-20T19:34:26Z</time>
      </trkpt>
      <trkpt lat="62.637912548472" lon="17.971333226722">
        <ele>52.8</ele>
        <time>2018-02-20T19:34:27Z</time>
      </trkpt>
      <trkpt lat="62.637918751078" lon="17.971393157307">
        <ele>53</ele>
        <time>2018-02-20T19:34:28Z</time>
      </trkpt>
      <trkpt lat="62.637927468254" lon="17.971452165883">
        <ele>53</ele>
        <time>2018-02-20T19:34:29Z</time>
      </trkpt>
      <trkpt lat="62.637937777991" lon="17.971507905518">
        <ele>53.2</ele>
        <time>2018-02-20T19:34:30Z</time>
      </trkpt>
      <trkpt lat="62.637951021393" lon="17.971556939633">
        <ele>53.2</ele>
        <time>2018-02-20T19:34:31Z</time>
      </trkpt>
      <trkpt lat="62.637954709429" lon="17.971597172753">
        <ele>53.4</ele>
        <time>2018-02-20T19:34:32Z</time>
      </trkpt>
      <trkpt lat="62.637961666406" lon="17.971692391137">
        <ele>53.4</ele>
        <time>2018-02-20T19:34:33Z</time>
      </trkpt>
      <trkpt lat="62.637976167093" lon="17.971732037524">
        <ele>53.6</ele>
        <time>2018-02-20T19:34:34Z</time>
      </trkpt>
      <trkpt lat="62.637983459346" lon="17.971792890118">
        <ele>53.6</ele>
        <time>2018-02-20T19:34:35Z</time>
      </trkpt>
      <trkpt lat="62.637985051907" lon="17.97188659976">
        <ele>53.6</ele>
        <time>2018-02-20T19:34:36Z</time>
      </trkpt>
      <trkpt lat="62.637987231201" lon="17.971912164555">
        <ele>53.6</ele>
        <time>2018-02-20T19:34:37Z</time>
      </trkpt>
      <trkpt lat="62.637986644468" lon="17.97198634437">
        <ele>53.6</ele>
        <time>2018-02-20T19:34:38Z</time>
      </trkpt>
      <trkpt lat="62.63798144769" lon="17.972065050411">
        <ele>53.8</ele>
        <time>2018-02-20T19:34:39Z</time>
      </trkpt>
      <trkpt lat="62.637982034423" lon="17.972109390662">
        <ele>53.8</ele>
        <time>2018-02-20T19:34:40Z</time>
      </trkpt>
      <trkpt lat="62.637982537337" lon="17.972188599617">
        <ele>53.8</ele>
        <time>2018-02-20T19:34:41Z</time>
      </trkpt>
      <trkpt lat="62.637984884269" lon="17.972246602365">
        <ele>54</ele>
        <time>2018-02-20T19:34:42Z</time>
      </trkpt>
      <trkpt lat="62.637987734115" lon="17.972292954272">
        <ele>54</ele>
        <time>2018-02-20T19:34:43Z</time>
      </trkpt>
      <trkpt lat="62.63798480045" lon="17.972365457707">
        <ele>54</ele>
        <time>2018-02-20T19:34:44Z</time>
      </trkpt>
      <trkpt lat="62.63798731502" lon="17.972429998337">
        <ele>54</ele>
        <time>2018-02-20T19:34:45Z</time>
      </trkpt>
      <trkpt lat="62.637988572305" lon="17.972473751855">
        <ele>54</ele>
        <time>2018-02-20T19:34:46Z</time>
      </trkpt>
      <trkpt lat="62.637991003056" lon="17.972517840649">
        <ele>54</ele>
        <time>2018-02-20T19:34:47Z</time>
      </trkpt>
      <trkpt lat="62.637991757427" lon="17.972579112338">
        <ele>54.2</ele>
        <time>2018-02-20T19:34:48Z</time>
      </trkpt>
      <trkpt lat="62.637999636413" lon="17.972633259412">
        <ele>54.4</ele>
        <time>2018-02-20T19:34:49Z</time>
      </trkpt>
      <trkpt lat="62.638006761028" lon="17.972670391229">
        <ele>54.6</ele>
        <time>2018-02-20T19:34:50Z</time>
      </trkpt>
      <trkpt lat="62.638009024141" lon="17.972721939914">
        <ele>54.6</ele>
        <time>2018-02-20T19:34:51Z</time>
      </trkpt>
      <trkpt lat="62.638009527055" lon="17.972771393124">
        <ele>54.8</ele>
        <time>2018-02-20T19:34:52Z</time>
      </trkpt>
      <trkpt lat="62.638015142928" lon="17.972829144415">
        <ele>54.8</ele>
        <time>2018-02-20T19:34:53Z</time>
      </trkpt>
      <trkpt lat="62.638015478204" lon="17.972866108594">
        <ele>54.6</ele>
        <time>2018-02-20T19:34:54Z</time>
      </trkpt>
      <trkpt lat="62.638012125444" lon="17.972931487414">
        <ele>54.8</ele>
        <time>2018-02-20T19:34:55Z</time>
      </trkpt>
      <trkpt lat="62.638015310566" lon="17.972985215393">
        <ele>54.8</ele>
        <time>2018-02-20T19:34:56Z</time>
      </trkpt>
      <trkpt lat="62.638015897299" lon="17.973024107409">
        <ele>55</ele>
        <time>2018-02-20T19:34:57Z</time>
      </trkpt>
      <trkpt lat="62.638015226747" lon="17.973079763225">
        <ele>55</ele>
        <time>2018-02-20T19:34:58Z</time>
      </trkpt>
      <trkpt lat="62.6380141371" lon="17.973154697411">
        <ele>55.2</ele>
        <time>2018-02-20T19:34:59Z</time>
      </trkpt>
      <trkpt lat="62.638018244231" lon="17.973205994639">
        <ele>55.4</ele>
        <time>2018-02-20T19:35:00Z</time>
      </trkpt>
      <trkpt lat="62.638018579507" lon="17.97325201127">
        <ele>55.6</ele>
        <time>2018-02-20T19:35:01Z</time>
      </trkpt>
      <trkpt lat="62.638019082421" lon="17.97331236095">
        <ele>55.6</ele>
        <time>2018-02-20T19:35:02Z</time>
      </trkpt>
      <trkpt lat="62.638019417697" lon="17.97337103425">
        <ele>55.8</ele>
        <time>2018-02-20T19:35:03Z</time>
      </trkpt>
      <trkpt lat="62.638018914783" lon="17.973426941523">
        <ele>55.8</ele>
        <time>2018-02-20T19:35:04Z</time>
      </trkpt>
      <trkpt lat="62.638021932267" lon="17.9734674261">
        <ele>55.8</ele>
        <time>2018-02-20T19:35:05Z</time>
      </trkpt>
      <trkpt lat="62.63802335719" lon="17.973517633681">
        <ele>56</ele>
        <time>2018-02-20T19:35:06Z</time>
      </trkpt>
      <trkpt lat="62.638018830964" lon="17.973587706365">
        <ele>56.2</ele>
        <time>2018-02-20T19:35:07Z</time>
      </trkpt>
      <trkpt lat="62.638019752973" lon="17.97363841686">
        <ele>56.4</ele>
        <time>2018-02-20T19:35:08Z</time>
      </trkpt>
      <trkpt lat="62.638019082421" lon="17.973699856187">
        <ele>56.6</ele>
        <time>2018-02-20T19:35:09Z</time>
      </trkpt>
      <trkpt lat="62.638015562023" lon="17.973775293287">
        <ele>56.6</ele>
        <time>2018-02-20T19:35:10Z</time>
      </trkpt>
      <trkpt lat="62.638027129045" lon="17.973818543891">
        <ele>56.8</ele>
        <time>2018-02-20T19:35:11Z</time>
      </trkpt>
      <trkpt lat="62.638021345534" lon="17.973904709823">
        <ele>56.8</ele>
        <time>2018-02-20T19:35:12Z</time>
      </trkpt>
      <trkpt lat="62.638033834565" lon="17.973951816101">
        <ele>56.8</ele>
        <time>2018-02-20T19:35:13Z</time>
      </trkpt>
      <trkpt lat="62.6380392828" lon="17.974004957347">
        <ele>56.8</ele>
        <time>2018-02-20T19:35:14Z</time>
      </trkpt>
      <trkpt lat="62.638040288628" lon="17.974087519062">
        <ele>56.8</ele>
        <time>2018-02-20T19:35:15Z</time>
      </trkpt>
      <trkpt lat="62.63805269384" lon="17.974115095513">
        <ele>56.8</ele>
        <time>2018-02-20T19:35:16Z</time>
      </trkpt>
      <trkpt lat="62.638053280573" lon="17.97418659312">
        <ele>56.8</ele>
        <time>2018-02-20T19:35:17Z</time>
      </trkpt>
      <trkpt lat="62.638058644989" lon="17.974252139578">
        <ele>56.8</ele>
        <time>2018-02-20T19:35:18Z</time>
      </trkpt>
      <trkpt lat="62.638062165387" lon="17.974312405439">
        <ele>57</ele>
        <time>2018-02-20T19:35:19Z</time>
      </trkpt>
      <trkpt lat="62.638066440156" lon="17.974379963553">
        <ele>57</ele>
        <time>2018-02-20T19:35:20Z</time>
      </trkpt>
      <trkpt lat="62.638067194527" lon="17.974432015152">
        <ele>57</ele>
        <time>2018-02-20T19:35:21Z</time>
      </trkpt>
      <trkpt lat="62.638067445984" lon="17.974491778099">
        <ele>57</ele>
        <time>2018-02-20T19:35:22Z</time>
      </trkpt>
      <trkpt lat="62.638065182871" lon="17.974554893806">
        <ele>57</ele>
        <time>2018-02-20T19:35:23Z</time>
      </trkpt>
      <trkpt lat="62.638059147903" lon="17.974626223775">
        <ele>57</ele>
        <time>2018-02-20T19:35:24Z</time>
      </trkpt>
      <trkpt lat="62.638056717152" lon="17.97469034531">
        <ele>57.2</ele>
        <time>2018-02-20T19:35:25Z</time>
      </trkpt>
      <trkpt lat="62.638054873134" lon="17.974727309489">
        <ele>57</ele>
        <time>2018-02-20T19:35:26Z</time>
      </trkpt>
      <trkpt lat="62.638044060483" lon="17.974799729105">
        <ele>57</ele>
        <time>2018-02-20T19:35:27Z</time>
      </trkpt>
      <trkpt lat="62.638027045226" lon="17.974866281391">
        <ele>57</ele>
        <time>2018-02-20T19:35:28Z</time>
      </trkpt>
      <trkpt lat="62.638022351362" lon="17.974908693805">
        <ele>57</ele>
        <time>2018-02-20T19:35:29Z</time>
      </trkpt>
      <trkpt lat="62.637999384956" lon="17.974957644101">
        <ele>57</ele>
        <time>2018-02-20T19:35:30Z</time>
      </trkpt>
      <trkpt lat="62.637981280052" lon="17.975003996008">
        <ele>57</ele>
        <time>2018-02-20T19:35:31Z</time>
      </trkpt>
      <trkpt lat="62.637963426605" lon="17.975035092857">
        <ele>57.2</ele>
        <time>2018-02-20T19:35:32Z</time>
      </trkpt>
      <trkpt lat="62.637944818787" lon="17.975075493615">
        <ele>57.6</ele>
        <time>2018-02-20T19:35:33Z</time>
      </trkpt>
      <trkpt lat="62.637930234281" lon="17.97511530764">
        <ele>57.8</ele>
        <time>2018-02-20T19:35:34Z</time>
      </trkpt>
      <trkpt lat="62.637914727766" lon="17.975150343982">
        <ele>58</ele>
        <time>2018-02-20T19:35:35Z</time>
      </trkpt>
      <trkpt lat="62.637891174627" lon="17.975194516595">
        <ele>58.2</ele>
        <time>2018-02-20T19:35:36Z</time>
      </trkpt>
      <trkpt lat="62.637868711135" lon="17.975232905697">
        <ele>58.2</ele>
        <time>2018-02-20T19:35:37Z</time>
      </trkpt>
      <trkpt lat="62.637851360602" lon="17.975267355306">
        <ele>58.2</ele>
        <time>2018-02-20T19:35:38Z</time>
      </trkpt>
      <trkpt lat="62.637840128856" lon="17.975294931757">
        <ele>58.4</ele>
        <time>2018-02-20T19:35:39Z</time>
      </trkpt>
      <trkpt lat="62.637814061147" lon="17.975339858741">
        <ele>58.4</ele>
        <time>2018-02-20T19:35:40Z</time>
      </trkpt>
      <trkpt lat="62.637793022578" lon="17.975384618087">
        <ele>58.6</ele>
        <time>2018-02-20T19:35:41Z</time>
      </trkpt>
      <trkpt lat="62.637775336769" lon="17.975407333036">
        <ele>58.6</ele>
        <time>2018-02-20T19:35:42Z</time>
      </trkpt>
      <trkpt lat="62.637755806942" lon="17.975439268075">
        <ele>58.8</ele>
        <time>2018-02-20T19:35:43Z</time>
      </trkpt>
      <trkpt lat="62.637737785857" lon="17.975464162318">
        <ele>59</ele>
        <time>2018-02-20T19:35:44Z</time>
      </trkpt>
      <trkpt lat="62.637722279342" lon="17.975490565303">
        <ele>59</ele>
        <time>2018-02-20T19:35:45Z</time>
      </trkpt>
      <trkpt lat="62.637709119759" lon="17.975508502569">
        <ele>59.2</ele>
        <time>2018-02-20T19:35:46Z</time>
      </trkpt>
      <trkpt lat="62.637693864701" lon="17.975518225573">
        <ele>59.4</ele>
        <time>2018-02-20T19:35:47Z</time>
      </trkpt>
      <trkpt lat="62.637667880811" lon="17.975534821735">
        <ele>59.4</ele>
        <time>2018-02-20T19:35:48Z</time>
      </trkpt>
      <trkpt lat="62.637648770079" lon="17.975550579707">
        <ele>59.8</ele>
        <time>2018-02-20T19:35:49Z</time>
      </trkpt>
      <trkpt lat="62.637623792017" lon="17.975565750946">
        <ele>60</ele>
        <time>2018-02-20T19:35:50Z</time>
      </trkpt>
      <trkpt lat="62.637597221394" lon="17.975583269117">
        <ele>60.4</ele>
        <time>2018-02-20T19:35:51Z</time>
      </trkpt>
      <trkpt lat="62.637584564725" lon="17.975593578854">
        <ele>60.6</ele>
        <time>2018-02-20T19:35:52Z</time>
      </trkpt>
      <trkpt lat="62.63755145622" lon="17.975609253007">
        <ele>61</ele>
        <time>2018-02-20T19:35:53Z</time>
      </trkpt>
      <trkpt lat="62.637525220873" lon="17.975620317115">
        <ele>61</ele>
        <time>2018-02-20T19:35:54Z</time>
      </trkpt>
      <trkpt lat="62.637501416277" lon="17.975632387051">
        <ele>61.2</ele>
        <time>2018-02-20T19:35:55Z</time>
      </trkpt>
      <trkpt lat="62.637478617509" lon="17.975648061204">
        <ele>61.2</ele>
        <time>2018-02-20T19:35:56Z</time>
      </trkpt>
      <trkpt lat="62.637459758234" lon="17.975661472244">
        <ele>61.4</ele>
        <time>2018-02-20T19:35:57Z</time>
      </trkpt>
      <trkpt lat="62.637436456552" lon="17.975677984587">
        <ele>61.6</ele>
        <time>2018-02-20T19:35:58Z</time>
      </trkpt>
      <trkpt lat="62.637413825422" lon="17.975694161654">
        <ele>61.8</ele>
        <time>2018-02-20T19:35:59Z</time>
      </trkpt>
      <trkpt lat="62.637390691378" lon="17.975706902142">
        <ele>62</ele>
        <time>2018-02-20T19:36:00Z</time>
      </trkpt>
      <trkpt lat="62.637365461859" lon="17.975720061725">
        <ele>62.2</ele>
        <time>2018-02-20T19:36:01Z</time>
      </trkpt>
      <trkpt lat="62.637338472141" lon="17.975742106122">
        <ele>62.4</ele>
        <time>2018-02-20T19:36:02Z</time>
      </trkpt>
      <trkpt lat="62.637318942314" lon="17.975761133035">
        <ele>62.6</ele>
        <time>2018-02-20T19:36:03Z</time>
      </trkpt>
      <trkpt lat="62.637301424143" lon="17.97577412498">
        <ele>62.8</ele>
        <time>2018-02-20T19:36:04Z</time>
      </trkpt>
      <trkpt lat="62.637280972307" lon="17.975798181033">
        <ele>62.8</ele>
        <time>2018-02-20T19:36:05Z</time>
      </trkpt>
      <trkpt lat="62.637260185195" lon="17.975825086932">
        <ele>63</ele>
        <time>2018-02-20T19:36:06Z</time>
      </trkpt>
      <trkpt lat="62.637241493558" lon="17.975852244288">
        <ele>63</ele>
        <time>2018-02-20T19:36:07Z</time>
      </trkpt>
      <trkpt lat="62.637221125541" lon="17.975887112992">
        <ele>63.2</ele>
        <time>2018-02-20T19:36:08Z</time>
      </trkpt>
      <trkpt lat="62.637197488583" lon="17.975923490438">
        <ele>63.4</ele>
        <time>2018-02-20T19:36:09Z</time>
      </trkpt>
      <trkpt lat="62.637180221869" lon="17.975965064662">
        <ele>63.4</ele>
        <time>2018-02-20T19:36:10Z</time>
      </trkpt>
      <trkpt lat="62.637168151933" lon="17.97600546542">
        <ele>63.6</ele>
        <time>2018-02-20T19:36:11Z</time>
      </trkpt>
      <trkpt lat="62.637158680386" lon="17.976045195626">
        <ele>64</ele>
        <time>2018-02-20T19:36:12Z</time>
      </trkpt>
      <trkpt lat="62.637149041201" lon="17.976088781506">
        <ele>64.4</ele>
        <time>2018-02-20T19:36:13Z</time>
      </trkpt>
      <trkpt lat="62.637136719808" lon="17.97613622306">
        <ele>64.6</ele>
        <time>2018-02-20T19:36:14Z</time>
      </trkpt>
      <trkpt lat="62.637125152786" lon="17.976183832252">
        <ele>64.8</ele>
        <time>2018-02-20T19:36:15Z</time>
      </trkpt>
      <trkpt lat="62.637128002632" lon="17.97622423301">
        <ele>65</ele>
        <time>2018-02-20T19:36:16Z</time>
      </trkpt>
      <trkpt lat="62.63711475923" lon="17.976268824718">
        <ele>65.2</ele>
        <time>2018-02-20T19:36:17Z</time>
      </trkpt>
      <trkpt lat="62.637103695122" lon="17.976327833294">
        <ele>65.4</ele>
        <time>2018-02-20T19:36:18Z</time>
      </trkpt>
      <trkpt lat="62.637097743973" lon="17.976380806902">
        <ele>65.4</ele>
        <time>2018-02-20T19:36:19Z</time>
      </trkpt>
      <trkpt lat="62.637093888299" lon="17.976422800221">
        <ele>65.8</ele>
        <time>2018-02-20T19:36:20Z</time>
      </trkpt>
      <trkpt lat="62.637083494743" lon="17.976477617847">
        <ele>65.8</ele>
        <time>2018-02-20T19:36:21Z</time>
      </trkpt>
      <trkpt lat="62.637078381784" lon="17.976521539003">
        <ele>65.8</ele>
        <time>2018-02-20T19:36:22Z</time>
      </trkpt>
      <trkpt lat="62.637079639069" lon="17.976561269209">
        <ele>65.8</ele>
        <time>2018-02-20T19:36:23Z</time>
      </trkpt>
      <trkpt lat="62.637071676264" lon="17.976635951938">
        <ele>66</ele>
        <time>2018-02-20T19:36:24Z</time>
      </trkpt>
      <trkpt lat="62.637070754255" lon="17.976681800931">
        <ele>66</ele>
        <time>2018-02-20T19:36:25Z</time>
      </trkpt>
      <trkpt lat="62.63707033516" lon="17.976725889725">
        <ele>66</ele>
        <time>2018-02-20T19:36:26Z</time>
      </trkpt>
      <trkpt lat="62.637064132554" lon="17.976800488635">
        <ele>66</ele>
        <time>2018-02-20T19:36:27Z</time>
      </trkpt>
      <trkpt lat="62.637065808934" lon="17.976851953501">
        <ele>66.2</ele>
        <time>2018-02-20T19:36:28Z</time>
      </trkpt>
      <trkpt lat="62.63706530602" lon="17.976901741987">
        <ele>66.2</ele>
        <time>2018-02-20T19:36:29Z</time>
      </trkpt>
      <trkpt lat="62.637066395667" lon="17.976955469966">
        <ele>66.2</ele>
        <time>2018-02-20T19:36:30Z</time>
      </trkpt>
      <trkpt lat="62.637069329332" lon="17.97700207333">
        <ele>66.2</ele>
        <time>2018-02-20T19:36:31Z</time>
      </trkpt>
      <trkpt lat="62.637071005712" lon="17.977057980603">
        <ele>66.2</ele>
        <time>2018-02-20T19:36:32Z</time>
      </trkpt>
      <trkpt lat="62.63707033516" lon="17.977139704128">
        <ele>66.2</ele>
        <time>2018-02-20T19:36:33Z</time>
      </trkpt>
      <trkpt lat="62.637075280481" lon="17.977174405194">
        <ele>66.4</ele>
        <time>2018-02-20T19:36:34Z</time>
      </trkpt>
      <trkpt lat="62.637069161694" lon="17.977250429027">
        <ele>66.4</ele>
        <time>2018-02-20T19:36:35Z</time>
      </trkpt>
      <trkpt lat="62.637061534165" lon="17.977321842815">
        <ele>66.4</ele>
        <time>2018-02-20T19:36:36Z</time>
      </trkpt>
      <trkpt lat="62.63706279145" lon="17.977348497257">
        <ele>66.4</ele>
        <time>2018-02-20T19:36:37Z</time>
      </trkpt>
      <trkpt lat="62.637045357098" lon="17.977437177759">
        <ele>66.4</ele>
        <time>2018-02-20T19:36:38Z</time>
      </trkpt>
      <trkpt lat="62.637029431488" lon="17.977502388941">
        <ele>66.4</ele>
        <time>2018-02-20T19:36:39Z</time>
      </trkpt>
      <trkpt lat="62.637024067072" lon="17.977530049211">
        <ele>66.6</ele>
        <time>2018-02-20T19:36:40Z</time>
      </trkpt>
      <trkpt lat="62.637002274132" lon="17.977597858782">
        <ele>66.8</ele>
        <time>2018-02-20T19:36:41Z</time>
      </trkpt>
      <trkpt lat="62.636982828124" lon="17.977669943122">
        <ele>66.6</ele>
        <time>2018-02-20T19:36:42Z</time>
      </trkpt>
      <trkpt lat="62.636976290242" lon="17.977708164586">
        <ele>66.6</ele>
        <time>2018-02-20T19:36:43Z</time>
      </trkpt>
      <trkpt lat="62.636956928053" lon="17.977776812347">
        <ele>66.6</ele>
        <time>2018-02-20T19:36:44Z</time>
      </trkpt>
      <trkpt lat="62.636947540325" lon="17.977837916398">
        <ele>66.6</ele>
        <time>2018-02-20T19:36:45Z</time>
      </trkpt>
      <trkpt lat="62.636944774298" lon="17.977879071527">
        <ele>66.6</ele>
        <time>2018-02-20T19:36:46Z</time>
      </trkpt>
      <trkpt lat="62.636932872" lon="17.977952832247">
        <ele>66.6</ele>
        <time>2018-02-20T19:36:47Z</time>
      </trkpt>
      <trkpt lat="62.636925076833" lon="17.978020222723">
        <ele>66.8</ele>
        <time>2018-02-20T19:36:48Z</time>
      </trkpt>
      <trkpt lat="62.636926082661" lon="17.978050984296">
        <ele>66.8</ele>
        <time>2018-02-20T19:36:49Z</time>
      </trkpt>
      <trkpt lat="62.63691024087" lon="17.978137904599">
        <ele>66.8</ele>
        <time>2018-02-20T19:36:50Z</time>
      </trkpt>
      <trkpt lat="62.636900853142" lon="17.978193476596">
        <ele>67</ele>
        <time>2018-02-20T19:36:51Z</time>
      </trkpt>
      <trkpt lat="62.636899512038" lon="17.978222897065">
        <ele>67</ele>
        <time>2018-02-20T19:36:52Z</time>
      </trkpt>
      <trkpt lat="62.636882832057" lon="17.978314427413">
        <ele>67</ele>
        <time>2018-02-20T19:36:53Z</time>
      </trkpt>
      <trkpt lat="62.636871935587" lon="17.978359270578">
        <ele>67</ele>
        <time>2018-02-20T19:36:54Z</time>
      </trkpt>
      <trkpt lat="62.636861793488" lon="17.978401515354">
        <ele>67</ele>
        <time>2018-02-20T19:36:55Z</time>
      </trkpt>
      <trkpt lat="62.636838743263" lon="17.978469576382">
        <ele>67</ele>
        <time>2018-02-20T19:36:56Z</time>
      </trkpt>
      <trkpt lat="62.636842012204" lon="17.978497488109">
        <ele>67.2</ele>
        <time>2018-02-20T19:36:57Z</time>
      </trkpt>
      <trkpt lat="62.636817872332" lon="17.978552976287">
        <ele>67.2</ele>
        <time>2018-02-20T19:36:58Z</time>
      </trkpt>
      <trkpt lat="62.636788535682" lon="17.978616091994">
        <ele>67.2</ele>
        <time>2018-02-20T19:36:59Z</time>
      </trkpt>
      <trkpt lat="62.636774034995" lon="17.978656744209">
        <ele>67.2</ele>
        <time>2018-02-20T19:37:00Z</time>
      </trkpt>
      <trkpt lat="62.636752744969" lon="17.978685494126">
        <ele>67.4</ele>
        <time>2018-02-20T19:37:01Z</time>
      </trkpt>
      <trkpt lat="62.636726761079" lon="17.978723631771">
        <ele>67.4</ele>
        <time>2018-02-20T19:37:02Z</time>
      </trkpt>
      <trkpt lat="62.636708404718" lon="17.978743580693">
        <ele>67.6</ele>
        <time>2018-02-20T19:37:03Z</time>
      </trkpt>
      <trkpt lat="62.636692060013" lon="17.978770151316">
        <ele>67.8</ele>
        <time>2018-02-20T19:37:04Z</time>
      </trkpt>
      <trkpt lat="62.636668171598" lon="17.978785825469">
        <ele>67.8</ele>
        <time>2018-02-20T19:37:05Z</time>
      </trkpt>
      <trkpt lat="62.636633470532" lon="17.978809546246">
        <ele>68</ele>
        <time>2018-02-20T19:37:06Z</time>
      </trkpt>
      <trkpt lat="62.636612767239" lon="17.978816670861">
        <ele>68</ele>
        <time>2018-02-20T19:37:07Z</time>
      </trkpt>
      <trkpt lat="62.636593488869" lon="17.978816587042">
        <ele>68</ele>
        <time>2018-02-20T19:37:08Z</time>
      </trkpt>
      <trkpt lat="62.636567169703" lon="17.978812647549">
        <ele>68.2</ele>
        <time>2018-02-20T19:37:09Z</time>
      </trkpt>
      <trkpt lat="62.636539928528" lon="17.978811557902">
        <ele>68.4</ele>
        <time>2018-02-20T19:37:10Z</time>
      </trkpt>
      <trkpt lat="62.636517045941" lon="17.978809630065">
        <ele>68.6</ele>
        <time>2018-02-20T19:37:11Z</time>
      </trkpt>
      <trkpt lat="62.636496761743" lon="17.978809713884">
        <ele>68.8</ele>
        <time>2018-02-20T19:37:12Z</time>
      </trkpt>
      <trkpt lat="62.636469855844" lon="17.978799571785">
        <ele>68.8</ele>
        <time>2018-02-20T19:37:13Z</time>
      </trkpt>
      <trkpt lat="62.636437920805" lon="17.978789513505">
        <ele>68.8</ele>
        <time>2018-02-20T19:37:14Z</time>
      </trkpt>
      <trkpt lat="62.636409589983" lon="17.978786496021">
        <ele>69</ele>
        <time>2018-02-20T19:37:15Z</time>
      </trkpt>
      <trkpt lat="62.636383438455" lon="17.978788172401">
        <ele>69</ele>
        <time>2018-02-20T19:37:16Z</time>
      </trkpt>
      <trkpt lat="62.636358795669" lon="17.978792195713">
        <ele>69.4</ele>
        <time>2018-02-20T19:37:17Z</time>
      </trkpt>
      <trkpt lat="62.636333649969" lon="17.978797811586">
        <ele>69.4</ele>
        <time>2018-02-20T19:37:18Z</time>
      </trkpt>
      <trkpt lat="62.636305486785" lon="17.978811138807">
        <ele>69.8</ele>
        <time>2018-02-20T19:37:19Z</time>
      </trkpt>
      <trkpt lat="62.636280592542" lon="17.978825052761">
        <ele>70</ele>
        <time>2018-02-20T19:37:20Z</time>
      </trkpt>
      <trkpt lat="62.636271875366" lon="17.97883016572">
        <ele>70.4</ele>
        <time>2018-02-20T19:37:21Z</time>
      </trkpt>
      <trkpt lat="62.636259470154" lon="17.978836284507">
        <ele>70.6</ele>
        <time>2018-02-20T19:37:22Z</time>
      </trkpt>
      <trkpt lat="62.636233905359" lon="17.97886034056">
        <ele>71</ele>
        <time>2018-02-20T19:37:23Z</time>
      </trkpt>
      <trkpt lat="62.636214291713" lon="17.978881379129">
        <ele>71.4</ele>
        <time>2018-02-20T19:37:24Z</time>
      </trkpt>
      <trkpt lat="62.636188140185" lon="17.978906105734">
        <ele>71.8</ele>
        <time>2018-02-20T19:37:25Z</time>
      </trkpt>
      <trkpt lat="62.636178752457" lon="17.978936699669">
        <ele>71.8</ele>
        <time>2018-02-20T19:37:26Z</time>
      </trkpt>
      <trkpt lat="62.636170622014" lon="17.978941812628">
        <ele>72.2</ele>
        <time>2018-02-20T19:37:27Z</time>
      </trkpt>
      <trkpt lat="62.636154947861" lon="17.978967964156">
        <ele>72.4</ele>
        <time>2018-02-20T19:37:28Z</time>
      </trkpt>
      <trkpt lat="62.636140950088" lon="17.978996881711">
        <ele>72.4</ele>
        <time>2018-02-20T19:37:29Z</time>
      </trkpt>
      <trkpt lat="62.636127874324" lon="17.979025212533">
        <ele>72.6</ele>
        <time>2018-02-20T19:37:30Z</time>
      </trkpt>
      <trkpt lat="62.636111361981" lon="17.97905144788">
        <ele>72.8</ele>
        <time>2018-02-20T19:37:31Z</time>
      </trkpt>
      <trkpt lat="62.636097950941" lon="17.979071815897">
        <ele>73</ele>
        <time>2018-02-20T19:37:32Z</time>
      </trkpt>
      <trkpt lat="62.636080097494" lon="17.979099979081">
        <ele>73.6</ele>
        <time>2018-02-20T19:37:33Z</time>
      </trkpt>
      <trkpt lat="62.636062998418" lon="17.9791252086">
        <ele>73.8</ele>
        <time>2018-02-20T19:37:34Z</time>
      </trkpt>
      <trkpt lat="62.636037349804" lon="17.97916460353">
        <ele>74.2</ele>
        <time>2018-02-20T19:37:35Z</time>
      </trkpt>
      <trkpt lat="62.636018658167" lon="17.979201986804">
        <ele>74.6</ele>
        <time>2018-02-20T19:37:36Z</time>
      </trkpt>
      <trkpt lat="62.636016562692" lon="17.979237945155">
        <ele>74.8</ele>
        <time>2018-02-20T19:37:37Z</time>
      </trkpt>
      <trkpt lat="62.635992171363" lon="17.979306173821">
        <ele>75.2</ele>
        <time>2018-02-20T19:37:38Z</time>
      </trkpt>
      <trkpt lat="62.635985382024" lon="17.979368786614">
        <ele>75.6</ele>
        <time>2018-02-20T19:37:39Z</time>
      </trkpt>
      <trkpt lat="62.635985130567" lon="17.979412540132">
        <ele>75.8</ele>
        <time>2018-02-20T19:37:40Z</time>
      </trkpt>
      <trkpt lat="62.635973898821" lon="17.979496275313">
        <ele>76</ele>
        <time>2018-02-20T19:37:41Z</time>
      </trkpt>
      <trkpt lat="62.63597482083" lon="17.979565174531">
        <ele>76</ele>
        <time>2018-02-20T19:37:42Z</time>
      </trkpt>
      <trkpt lat="62.635981358712" lon="17.979645473133">
        <ele>76.2</ele>
        <time>2018-02-20T19:37:43Z</time>
      </trkpt>
      <trkpt lat="62.635981777807" lon="17.979770363443">
        <ele>76</ele>
        <time>2018-02-20T19:37:44Z</time>
      </trkpt>
      <trkpt lat="62.635978927961" lon="17.979894918477">
        <ele>76</ele>
        <time>2018-02-20T19:37:45Z</time>
      </trkpt>
      <trkpt lat="62.635979933789" lon="17.980040595899">
        <ele>75</ele>
        <time>2018-02-20T19:37:46Z</time>
      </trkpt>
      <trkpt lat="62.635990578802" lon="17.980178310516">
        <ele>74</ele>
        <time>2018-02-20T19:37:47Z</time>
      </trkpt>
      <trkpt lat="62.636013796665" lon="17.980330693458">
        <ele>72.4</ele>
        <time>2018-02-20T19:37:48Z</time>
      </trkpt>
      <trkpt lat="62.636034919053" lon="17.980466396419">
        <ele>71.2</ele>
        <time>2018-02-20T19:37:49Z</time>
      </trkpt>
      <trkpt lat="62.636056041441" lon="17.980591454367">
        <ele>70.2</ele>
        <time>2018-02-20T19:37:50Z</time>
      </trkpt>
      <trkpt lat="62.636075152173" lon="17.980710393528">
        <ele>70</ele>
        <time>2018-02-20T19:37:51Z</time>
      </trkpt>
      <trkpt lat="62.63609216743" lon="17.980772000493">
        <ele>69.8</ele>
        <time>2018-02-20T19:37:52Z</time>
      </trkpt>
      <trkpt lat="62.636124102469" lon="17.980917677915">
        <ele>69.4</ele>
        <time>2018-02-20T19:37:53Z</time>
      </trkpt>
      <trkpt lat="62.636140530993" lon="17.981029157185">
        <ele>69.2</ele>
        <time>2018-02-20T19:37:54Z</time>
      </trkpt>
      <trkpt lat="62.636155702232" lon="17.981134014754">
        <ele>69</ele>
        <time>2018-02-20T19:37:55Z</time>
      </trkpt>
      <trkpt lat="62.636174645326" lon="17.981230909518">
        <ele>68.8</ele>
        <time>2018-02-20T19:37:56Z</time>
      </trkpt>
      <trkpt lat="62.636186631443" lon="17.981322858961">
        <ele>68.8</ele>
        <time>2018-02-20T19:37:57Z</time>
      </trkpt>
      <trkpt lat="62.636191157669" lon="17.981428973815">
        <ele>68.6</ele>
        <time>2018-02-20T19:37:58Z</time>
      </trkpt>
      <trkpt lat="62.636184619787" lon="17.981509356236">
        <ele>68.4</ele>
        <time>2018-02-20T19:37:59Z</time>
      </trkpt>
      <trkpt lat="62.636191325307" lon="17.981604490801">
        <ele>68.2</ele>
        <time>2018-02-20T19:38:00Z</time>
      </trkpt>
      <trkpt lat="62.636201802682" lon="17.981670456354">
        <ele>68.4</ele>
        <time>2018-02-20T19:38:01Z</time>
      </trkpt>
      <trkpt lat="62.636207670012" lon="17.981761567607">
        <ele>68.2</ele>
        <time>2018-02-20T19:38:02Z</time>
      </trkpt>
      <trkpt lat="62.636226026373" lon="17.981825186228">
        <ele>68.4</ele>
        <time>2018-02-20T19:38:03Z</time>
      </trkpt>
      <trkpt lat="62.636249495693" lon="17.981873801248">
        <ele>68.8</ele>
        <time>2018-02-20T19:38:04Z</time>
      </trkpt>
      <trkpt lat="62.636257039403" lon="17.981962817026">
        <ele>69</ele>
        <time>2018-02-20T19:38:05Z</time>
      </trkpt>
      <trkpt lat="62.636271288633" lon="17.982020400679">
        <ele>68.8</ele>
        <time>2018-02-20T19:38:06Z</time>
      </trkpt>
      <trkpt lat="62.636281095456" lon="17.982084522214">
        <ele>69</ele>
        <time>2018-02-20T19:38:07Z</time>
      </trkpt>
      <trkpt lat="62.636287717157" lon="17.982176723114">
        <ele>68.8</ele>
        <time>2018-02-20T19:38:08Z</time>
      </trkpt>
      <trkpt lat="62.636299870912" lon="17.982238162441">
        <ele>68.6</ele>
        <time>2018-02-20T19:38:09Z</time>
      </trkpt>
      <trkpt lat="62.636299367998" lon="17.982291555144">
        <ele>68.6</ele>
        <time>2018-02-20T19:38:10Z</time>
      </trkpt>
      <trkpt lat="62.636301295835" lon="17.982370261185">
        <ele>68.6</ele>
        <time>2018-02-20T19:38:11Z</time>
      </trkpt>
      <trkpt lat="62.636314623056" lon="17.982429688856">
        <ele>68.6</ele>
        <time>2018-02-20T19:38:12Z</time>
      </trkpt>
      <trkpt lat="62.636310599744" lon="17.982498420436">
        <ele>68.6</ele>
        <time>2018-02-20T19:38:13Z</time>
      </trkpt>
      <trkpt lat="62.636306492613" lon="17.982582490893">
        <ele>68.6</ele>
        <time>2018-02-20T19:38:14Z</time>
      </trkpt>
      <trkpt lat="62.636314790694" lon="17.982642337659">
        <ele>68.6</ele>
        <time>2018-02-20T19:38:15Z</time>
      </trkpt>
      <trkpt lat="62.636307666079" lon="17.982710733963">
        <ele>68.6</ele>
        <time>2018-02-20T19:38:16Z</time>
      </trkpt>
      <trkpt lat="62.636303223672" lon="17.982764964856">
        <ele>68.6</ele>
        <time>2018-02-20T19:38:17Z</time>
      </trkpt>
      <trkpt lat="62.636305570604" lon="17.982844089992">
        <ele>68.6</ele>
        <time>2018-02-20T19:38:18Z</time>
      </trkpt>
      <trkpt lat="62.636297775437" lon="17.982898907618">
        <ele>68.6</ele>
        <time>2018-02-20T19:38:19Z</time>
      </trkpt>
      <trkpt lat="62.636291991926" lon="17.982966298094">
        <ele>68.6</ele>
        <time>2018-02-20T19:38:20Z</time>
      </trkpt>
      <trkpt lat="62.636291740469" lon="17.983033856208">
        <ele>68.8</ele>
        <time>2018-02-20T19:38:21Z</time>
      </trkpt>
      <trkpt lat="62.636292997754" lon="17.983086662178">
        <ele>68.8</ele>
        <time>2018-02-20T19:38:22Z</time>
      </trkpt>
      <trkpt lat="62.636290147908" lon="17.983175929413">
        <ele>68.8</ele>
        <time>2018-02-20T19:38:23Z</time>
      </trkpt>
      <trkpt lat="62.636296434333" lon="17.983233345428">
        <ele>68.8</ele>
        <time>2018-02-20T19:38:24Z</time>
      </trkpt>
      <trkpt lat="62.636292327202" lon="17.983292856918">
        <ele>69</ele>
        <time>2018-02-20T19:38:25Z</time>
      </trkpt>
      <trkpt lat="62.636289561175" lon="17.983364019249">
        <ele>69</ele>
        <time>2018-02-20T19:38:26Z</time>
      </trkpt>
      <trkpt lat="62.636285118768" lon="17.983422441092">
        <ele>69</ele>
        <time>2018-02-20T19:38:27Z</time>
      </trkpt>
      <trkpt lat="62.636277910334" lon="17.983466697524">
        <ele>69.2</ele>
        <time>2018-02-20T19:38:28Z</time>
      </trkpt>
      <trkpt lat="62.636266594769" lon="17.983527047204">
        <ele>69.2</ele>
        <time>2018-02-20T19:38:29Z</time>
      </trkpt>
      <trkpt lat="62.636247903132" lon="17.983613213136">
        <ele>69.2</ele>
        <time>2018-02-20T19:38:30Z</time>
      </trkpt>
      <trkpt lat="62.636237844852" lon="17.983673143721">
        <ele>69.4</ele>
        <time>2018-02-20T19:38:31Z</time>
      </trkpt>
      <trkpt lat="62.636225355821" lon="17.983723099845">
        <ele>69.6</ele>
        <time>2018-02-20T19:38:32Z</time>
      </trkpt>
      <trkpt lat="62.636221667785" lon="17.983778588023">
        <ele>69.6</ele>
        <time>2018-02-20T19:38:33Z</time>
      </trkpt>
      <trkpt lat="62.636206412727" lon="17.983853186933">
        <ele>70</ele>
        <time>2018-02-20T19:38:34Z</time>
      </trkpt>
      <trkpt lat="62.636194175153" lon="17.983920661228">
        <ele>70.2</ele>
        <time>2018-02-20T19:38:35Z</time>
      </trkpt>
      <trkpt lat="62.636187972547" lon="17.983964582384">
        <ele>70.2</ele>
        <time>2018-02-20T19:38:36Z</time>
      </trkpt>
      <trkpt lat="62.636184452149" lon="17.984024680607">
        <ele>70.2</ele>
        <time>2018-02-20T19:38:37Z</time>
      </trkpt>
      <trkpt lat="62.636170538195" lon="17.984102716096">
        <ele>70.4</ele>
        <time>2018-02-20T19:38:38Z</time>
      </trkpt>
      <trkpt lat="62.636167017797" lon="17.984177063549">
        <ele>70</ele>
        <time>2018-02-20T19:38:39Z</time>
      </trkpt>
      <trkpt lat="62.636163162123" lon="17.98423900579">
        <ele>70.2</ele>
        <time>2018-02-20T19:38:40Z</time>
      </trkpt>
      <trkpt lat="62.636162743028" lon="17.984284938602">
        <ele>70.2</ele>
        <time>2018-02-20T19:38:41Z</time>
      </trkpt>
      <trkpt lat="62.636150086359" lon="17.984343611902">
        <ele>70.4</ele>
        <time>2018-02-20T19:38:42Z</time>
      </trkpt>
      <trkpt lat="62.636144805762" lon="17.984420557744">
        <ele>70.4</ele>
        <time>2018-02-20T19:38:43Z</time>
      </trkpt>
      <trkpt lat="62.63614916435" lon="17.984446373996">
        <ele>70.6</ele>
        <time>2018-02-20T19:38:44Z</time>
      </trkpt>
      <trkpt lat="62.636144554305" lon="17.984519045069">
        <ele>70.8</ele>
        <time>2018-02-20T19:38:45Z</time>
      </trkpt>
      <trkpt lat="62.63613826788" lon="17.984598840757">
        <ele>70.6</ele>
        <time>2018-02-20T19:38:46Z</time>
      </trkpt>
      <trkpt lat="62.636146398323" lon="17.984642594275">
        <ele>70.8</ele>
        <time>2018-02-20T19:38:47Z</time>
      </trkpt>
      <trkpt lat="62.636139022251" lon="17.984719037203">
        <ele>70.8</ele>
        <time>2018-02-20T19:38:48Z</time>
      </trkpt>
      <trkpt lat="62.636135082758" lon="17.984790953905">
        <ele>71</ele>
        <time>2018-02-20T19:38:49Z</time>
      </trkpt>
      <trkpt lat="62.636139441346" lon="17.984834036871">
        <ele>71</ele>
        <time>2018-02-20T19:38:50Z</time>
      </trkpt>
      <trkpt lat="62.636136256224" lon="17.984886004651">
        <ele>71.2</ele>
        <time>2018-02-20T19:38:51Z</time>
      </trkpt>
      <trkpt lat="62.636133657835" lon="17.984950712919">
        <ele>71.2</ele>
        <time>2018-02-20T19:38:52Z</time>
      </trkpt>
      <trkpt lat="62.636132568188" lon="17.985032855539">
        <ele>71.2</ele>
        <time>2018-02-20T19:38:53Z</time>
      </trkpt>
      <trkpt lat="62.636137597328" lon="17.985086667337">
        <ele>71.4</ele>
        <time>2018-02-20T19:38:54Z</time>
      </trkpt>
      <trkpt lat="62.636138603156" lon="17.985143999533">
        <ele>71.4</ele>
        <time>2018-02-20T19:38:55Z</time>
      </trkpt>
      <trkpt lat="62.63613072417" lon="17.985223627583">
        <ele>71.6</ele>
        <time>2018-02-20T19:38:56Z</time>
      </trkpt>
      <trkpt lat="62.636128628695" lon="17.985266375273">
        <ele>71.6</ele>
        <time>2018-02-20T19:38:57Z</time>
      </trkpt>
      <trkpt lat="62.636126868496" lon="17.985315074112">
        <ele>71.6</ele>
        <time>2018-02-20T19:38:58Z</time>
      </trkpt>
      <trkpt lat="62.63612737141" lon="17.985388331918">
        <ele>71.8</ele>
        <time>2018-02-20T19:38:59Z</time>
      </trkpt>
      <trkpt lat="62.636128041962" lon="17.985446167028">
        <ele>72</ele>
        <time>2018-02-20T19:39:00Z</time>
      </trkpt>
      <trkpt lat="62.636117899863" lon="17.98549293803">
        <ele>72</ele>
        <time>2018-02-20T19:39:01Z</time>
      </trkpt>
      <trkpt lat="62.636108512135" lon="17.985574158641">
        <ele>72.2</ele>
        <time>2018-02-20T19:39:02Z</time>
      </trkpt>
      <trkpt lat="62.636099459683" lon="17.985620007634">
        <ele>72.4</ele>
        <time>2018-02-20T19:39:03Z</time>
      </trkpt>
      <trkpt lat="62.636089569041" lon="17.985671640138">
        <ele>72.6</ele>
        <time>2018-02-20T19:39:04Z</time>
      </trkpt>
      <trkpt lat="62.636072805241" lon="17.985740790813">
        <ele>72.6</ele>
        <time>2018-02-20T19:39:05Z</time>
      </trkpt>
      <trkpt lat="62.636051766672" lon="17.985796027534">
        <ele>72.8</ele>
        <time>2018-02-20T19:39:06Z</time>
      </trkpt>
      <trkpt lat="62.636045899342" lon="17.985835506283">
        <ele>73</ele>
        <time>2018-02-20T19:39:07Z</time>
      </trkpt>
      <trkpt lat="62.63602343585" lon="17.985882277285">
        <ele>72.8</ele>
        <time>2018-02-20T19:39:08Z</time>
      </trkpt>
      <trkpt lat="62.636004492756" lon="17.985911530116">
        <ele>73</ele>
        <time>2018-02-20T19:39:09Z</time>
      </trkpt>
      <trkpt lat="62.635993763924" lon="17.985938519834">
        <ele>73.2</ele>
        <time>2018-02-20T19:39:10Z</time>
      </trkpt>
      <trkpt lat="62.635968702043" lon="17.985956624738">
        <ele>73.2</ele>
        <time>2018-02-20T19:39:11Z</time>
      </trkpt>
      <trkpt lat="62.635938946298" lon="17.985984201189">
        <ele>73.4</ele>
        <time>2018-02-20T19:39:12Z</time>
      </trkpt>
      <trkpt lat="62.635920589937" lon="17.986008676337">
        <ele>73.6</ele>
        <time>2018-02-20T19:39:13Z</time>
      </trkpt>
      <trkpt lat="62.635900305739" lon="17.986015549495">
        <ele>73.8</ele>
        <time>2018-02-20T19:39:14Z</time>
      </trkpt>
      <trkpt lat="62.635862587189" lon="17.986032900028">
        <ele>73.6</ele>
        <time>2018-02-20T19:39:15Z</time>
      </trkpt>
      <trkpt lat="62.6358348431" lon="17.986058381004">
        <ele>73.8</ele>
        <time>2018-02-20T19:39:16Z</time>
      </trkpt>
      <trkpt lat="62.635821767336" lon="17.986085370722">
        <ele>74</ele>
        <time>2018-02-20T19:39:17Z</time>
      </trkpt>
      <trkpt lat="62.635783042958" lon="17.98612577148">
        <ele>74.2</ele>
        <time>2018-02-20T19:39:18Z</time>
      </trkpt>
      <trkpt lat="62.635757813439" lon="17.986165334048">
        <ele>74.2</ele>
        <time>2018-02-20T19:39:19Z</time>
      </trkpt>
      <trkpt lat="62.635738702707" lon="17.98620372315">
        <ele>74.2</ele>
        <time>2018-02-20T19:39:20Z</time>
      </trkpt>
      <trkpt lat="62.635713724645" lon="17.986227443927">
        <ele>74.2</ele>
        <time>2018-02-20T19:39:21Z</time>
      </trkpt>
      <trkpt lat="62.635699391596" lon="17.986281758639">
        <ele>74.2</ele>
        <time>2018-02-20T19:39:22Z</time>
      </trkpt>
      <trkpt lat="62.635685729099" lon="17.986329954564">
        <ele>74.4</ele>
        <time>2018-02-20T19:39:23Z</time>
      </trkpt>
      <trkpt lat="62.63567391062" lon="17.986369349494">
        <ele>74.6</ele>
        <time>2018-02-20T19:39:24Z</time>
      </trkpt>
      <trkpt lat="62.635651363309" lon="17.986427436061">
        <ele>75</ele>
        <time>2018-02-20T19:39:25Z</time>
      </trkpt>
      <trkpt lat="62.635642394676" lon="17.986473285054">
        <ele>75.4</ele>
        <time>2018-02-20T19:39:26Z</time>
      </trkpt>
      <trkpt lat="62.635610711094" lon="17.986544698842">
        <ele>75.6</ele>
        <time>2018-02-20T19:39:27Z</time>
      </trkpt>
      <trkpt lat="62.635587074136" lon="17.98660018702">
        <ele>75.8</ele>
        <time>2018-02-20T19:39:28Z</time>
      </trkpt>
      <trkpt lat="62.635581458263" lon="17.986636815923">
        <ele>76</ele>
        <time>2018-02-20T19:39:29Z</time>
      </trkpt>
      <trkpt lat="62.635548936491" lon="17.986705966598">
        <ele>76</ele>
        <time>2018-02-20T19:39:30Z</time>
      </trkpt>
      <trkpt lat="62.635540470772" lon="17.98674351751">
        <ele>76</ele>
        <time>2018-02-20T19:39:31Z</time>
      </trkpt>
      <trkpt lat="62.635529658121" lon="17.986774279083">
        <ele>76</ele>
        <time>2018-02-20T19:39:32Z</time>
      </trkpt>
      <trkpt lat="62.635514151606" lon="17.986831695098">
        <ele>76</ele>
        <time>2018-02-20T19:39:33Z</time>
      </trkpt>
      <trkpt lat="62.635497220168" lon="17.98686673144">
        <ele>76</ele>
        <time>2018-02-20T19:39:34Z</time>
      </trkpt>
      <trkpt lat="62.635473918486" lon="17.986921800523">
        <ele>76.2</ele>
        <time>2018-02-20T19:39:35Z</time>
      </trkpt>
      <trkpt lat="62.635469476079" lon="17.986962871833">
        <ele>76.2</ele>
        <time>2018-02-20T19:39:36Z</time>
      </trkpt>
      <trkpt lat="62.635452796098" lon="17.987017940916">
        <ele>76.4</ele>
        <time>2018-02-20T19:39:37Z</time>
      </trkpt>
      <trkpt lat="62.635430919339" lon="17.987069405782">
        <ele>76.4</ele>
        <time>2018-02-20T19:39:38Z</time>
      </trkpt>
      <trkpt lat="62.635427901855" lon="17.987110560911">
        <ele>76.6</ele>
        <time>2018-02-20T19:39:39Z</time>
      </trkpt>
      <trkpt lat="62.635406611829" lon="17.987154314429">
        <ele>76.8</ele>
        <time>2018-02-20T19:39:40Z</time>
      </trkpt>
      <trkpt lat="62.63538138231" lon="17.987193457902">
        <ele>76.8</ele>
        <time>2018-02-20T19:39:41Z</time>
      </trkpt>
      <trkpt lat="62.635367719813" lon="17.987224135656">
        <ele>76.8</ele>
        <time>2018-02-20T19:39:42Z</time>
      </trkpt>
      <trkpt lat="62.635361349569" lon="17.987255316324">
        <ele>76.8</ele>
        <time>2018-02-20T19:39:43Z</time>
      </trkpt>
      <trkpt lat="62.63532438539" lon="17.987321449515">
        <ele>77</ele>
        <time>2018-02-20T19:39:44Z</time>
      </trkpt>
      <trkpt lat="62.635315584395" lon="17.987348103957">
        <ele>77.2</ele>
        <time>2018-02-20T19:39:45Z</time>
      </trkpt>
      <trkpt lat="62.635300161699" lon="17.987391270742">
        <ele>77.4</ele>
        <time>2018-02-20T19:39:46Z</time>
      </trkpt>
      <trkpt lat="62.635278704035" lon="17.987434772803">
        <ele>77.6</ele>
        <time>2018-02-20T19:39:47Z</time>
      </trkpt>
      <trkpt lat="62.635249367385" lon="17.987463941815">
        <ele>77.8</ele>
        <time>2018-02-20T19:39:48Z</time>
      </trkpt>
      <trkpt lat="62.635231933033" lon="17.98749788851">
        <ele>77.8</ele>
        <time>2018-02-20T19:39:49Z</time>
      </trkpt>
      <trkpt lat="62.635216342699" lon="17.987540468562">
        <ele>77.8</ele>
        <time>2018-02-20T19:39:50Z</time>
      </trkpt>
      <trkpt lat="62.635189101524" lon="17.987563602606">
        <ele>78</ele>
        <time>2018-02-20T19:39:51Z</time>
      </trkpt>
      <trkpt lat="62.635161273616" lon="17.987610289789">
        <ele>78</ele>
        <time>2018-02-20T19:39:52Z</time>
      </trkpt>
      <trkpt lat="62.635145934739" lon="17.987653708031">
        <ele>78.2</ele>
        <time>2018-02-20T19:39:53Z</time>
      </trkpt>
      <trkpt lat="62.635135457364" lon="17.987684385785">
        <ele>78.2</ele>
        <time>2018-02-20T19:39:54Z</time>
      </trkpt>
      <trkpt lat="62.635111736587" lon="17.987723445439">
        <ele>78.4</ele>
        <time>2018-02-20T19:39:55Z</time>
      </trkpt>
      <trkpt lat="62.635083489584" lon="17.987757559772">
        <ele>78.6</ele>
        <time>2018-02-20T19:39:56Z</time>
      </trkpt>
      <trkpt lat="62.635062618653" lon="17.987798211987">
        <ele>78.8</ele>
        <time>2018-02-20T19:39:57Z</time>
      </trkpt>
      <trkpt lat="62.635051722183" lon="17.987830063207">
        <ele>79.2</ele>
        <time>2018-02-20T19:39:58Z</time>
      </trkpt>
      <trkpt lat="62.635019032773" lon="17.987870547784">
        <ele>79.2</ele>
        <time>2018-02-20T19:39:59Z</time>
      </trkpt>
      <trkpt lat="62.634992965064" lon="17.987905584126">
        <ele>79.4</ele>
        <time>2018-02-20T19:40:00Z</time>
      </trkpt>
      <trkpt lat="62.634970920667" lon="17.987941458658">
        <ele>79.4</ele>
        <time>2018-02-20T19:40:01Z</time>
      </trkpt>
      <trkpt lat="62.634951809935" lon="17.987964425064">
        <ele>79.4</ele>
        <time>2018-02-20T19:40:02Z</time>
      </trkpt>
      <trkpt lat="62.634931777194" lon="17.98798906785">
        <ele>79.6</ele>
        <time>2018-02-20T19:40:03Z</time>
      </trkpt>
      <trkpt lat="62.634909146064" lon="17.988014129731">
        <ele>79.6</ele>
        <time>2018-02-20T19:40:04Z</time>
      </trkpt>
      <trkpt lat="62.634895148291" lon="17.98804187382">
        <ele>79.8</ele>
        <time>2018-02-20T19:40:05Z</time>
      </trkpt>
      <trkpt lat="62.634877043387" lon="17.988056458326">
        <ele>79.8</ele>
        <time>2018-02-20T19:40:06Z</time>
      </trkpt>
      <trkpt lat="62.634842761416" lon="17.988082526035">
        <ele>80</ele>
        <time>2018-02-20T19:40:07Z</time>
      </trkpt>
      <trkpt lat="62.634813592404" lon="17.988102055862">
        <ele>80.2</ele>
        <time>2018-02-20T19:40:08Z</time>
      </trkpt>
      <trkpt lat="62.634802444477" lon="17.988112952332">
        <ele>80.4</ele>
        <time>2018-02-20T19:40:09Z</time>
      </trkpt>
      <trkpt lat="62.63477285637" lon="17.988130470503">
        <ele>80.6</ele>
        <time>2018-02-20T19:40:10Z</time>
      </trkpt>
      <trkpt lat="62.634744693186" lon="17.988142037525">
        <ele>80.8</ele>
        <time>2018-02-20T19:40:11Z</time>
      </trkpt>
      <trkpt lat="62.634717032916" lon="17.988150335606">
        <ele>80.8</ele>
        <time>2018-02-20T19:40:12Z</time>
      </trkpt>
      <trkpt lat="62.634699598564" lon="17.988155280927">
        <ele>81</ele>
        <time>2018-02-20T19:40:13Z</time>
      </trkpt>
      <trkpt lat="62.634672105932" lon="17.98816257318">
        <ele>81</ele>
        <time>2018-02-20T19:40:14Z</time>
      </trkpt>
      <trkpt lat="62.634655677408" lon="17.988165842121">
        <ele>81</ele>
        <time>2018-02-20T19:40:15Z</time>
      </trkpt>
      <trkpt lat="62.634632375726" lon="17.988168943424">
        <ele>81.2</ele>
        <time>2018-02-20T19:40:16Z</time>
      </trkpt>
      <trkpt lat="62.634596501194" lon="17.988169697795">
        <ele>81.2</ele>
        <time>2018-02-20T19:40:17Z</time>
      </trkpt>
      <trkpt lat="62.634561129576" lon="17.988167099406">
        <ele>81.4</ele>
        <time>2018-02-20T19:40:18Z</time>
      </trkpt>
      <trkpt lat="62.634544701052" lon="17.988171625632">
        <ele>81.4</ele>
        <time>2018-02-20T19:40:19Z</time>
      </trkpt>
      <trkpt lat="62.634514358574" lon="17.988167769958">
        <ele>81.6</ele>
        <time>2018-02-20T19:40:20Z</time>
      </trkpt>
      <trkpt lat="62.63448284263" lon="17.988178163514">
        <ele>81.8</ele>
        <time>2018-02-20T19:40:21Z</time>
      </trkpt>
      <trkpt lat="62.634466749382" lon="17.988188724708">
        <ele>81.8</ele>
        <time>2018-02-20T19:40:22Z</time>
      </trkpt>
      <trkpt lat="62.63443171304" lon="17.988187467423">
        <ele>82</ele>
        <time>2018-02-20T19:40:23Z</time>
      </trkpt>
      <trkpt lat="62.634400113277" lon="17.988195933142">
        <ele>82</ele>
        <time>2018-02-20T19:40:24Z</time>
      </trkpt>
      <trkpt lat="62.634374213206" lon="17.988213367494">
        <ele>82.2</ele>
        <time>2018-02-20T19:40:25Z</time>
      </trkpt>
      <trkpt lat="62.634341859072" lon="17.988202471024">
        <ele>82.2</ele>
        <time>2018-02-20T19:40:26Z</time>
      </trkpt>
      <trkpt lat="62.634318138295" lon="17.988204315042">
        <ele>82.2</ele>
        <time>2018-02-20T19:40:27Z</time>
      </trkpt>
      <trkpt lat="62.634304391979" lon="17.988206410517">
        <ele>82.4</ele>
        <time>2018-02-20T19:40:28Z</time>
      </trkpt>
      <trkpt lat="62.63426239866" lon="17.988205572327">
        <ele>82.6</ele>
        <time>2018-02-20T19:40:29Z</time>
      </trkpt>
      <trkpt lat="62.634230798897" lon="17.988245302533">
        <ele>82.6</ele>
        <time>2018-02-20T19:40:30Z</time>
      </trkpt>
      <trkpt lat="62.634194169994" lon="17.988221749394">
        <ele>83</ele>
        <time>2018-02-20T19:40:31Z</time>
      </trkpt>
      <trkpt lat="62.634162234955" lon="17.988229125466">
        <ele>82.8</ele>
        <time>2018-02-20T19:40:32Z</time>
      </trkpt>
      <trkpt lat="62.634139939101" lon="17.98823046657">
        <ele>83</ele>
        <time>2018-02-20T19:40:33Z</time>
      </trkpt>
      <trkpt lat="62.634103394017" lon="17.988211020562">
        <ele>83</ele>
        <time>2018-02-20T19:40:34Z</time>
      </trkpt>
      <trkpt lat="62.634071626616" lon="17.98819945354">
        <ele>83</ele>
        <time>2018-02-20T19:40:35Z</time>
      </trkpt>
      <trkpt lat="62.634057712662" lon="17.988193250934">
        <ele>83</ele>
        <time>2018-02-20T19:40:36Z</time>
      </trkpt>
      <trkpt lat="62.634027537822" lon="17.988160561524">
        <ele>82.8</ele>
        <time>2018-02-20T19:40:37Z</time>
      </trkpt>
      <trkpt lat="62.633990741281" lon="17.988129464675">
        <ele>82.8</ele>
        <time>2018-02-20T19:40:38Z</time>
      </trkpt>
      <trkpt lat="62.633960063527" lon="17.988113455246">
        <ele>83</ele>
        <time>2018-02-20T19:40:39Z</time>
      </trkpt>
      <trkpt lat="62.633941036614" lon="17.988117143282">
        <ele>83</ele>
        <time>2018-02-20T19:40:40Z</time>
      </trkpt>
      <trkpt lat="62.633912621973" lon="17.988079508551">
        <ele>83.2</ele>
        <time>2018-02-20T19:40:41Z</time>
      </trkpt>
      <trkpt lat="62.63388688954" lon="17.988060984552">
        <ele>83.4</ele>
        <time>2018-02-20T19:40:42Z</time>
      </trkpt>
      <trkpt lat="62.633864761324" lon="17.988044639847">
        <ele>83.6</ele>
        <time>2018-02-20T19:40:43Z</time>
      </trkpt>
      <trkpt lat="62.633848165162" lon="17.98803935925">
        <ele>83.8</ele>
        <time>2018-02-20T19:40:44Z</time>
      </trkpt>
      <trkpt lat="62.633819331426" lon="17.987986888556">
        <ele>83.8</ele>
        <time>2018-02-20T19:40:45Z</time>
      </trkpt>
      <trkpt lat="62.633792593165" lon="17.987950762567">
        <ele>83.8</ele>
        <time>2018-02-20T19:40:46Z</time>
      </trkpt>
      <trkpt lat="62.633769375302" lon="17.987939279364">
        <ele>83.8</ele>
        <time>2018-02-20T19:40:47Z</time>
      </trkpt>
      <trkpt lat="62.633740876842" lon="17.98790692523">
        <ele>83.8</ele>
        <time>2018-02-20T19:40:48Z</time>
      </trkpt>
      <trkpt lat="62.633706091957" lon="17.987872978535">
        <ele>84</ele>
        <time>2018-02-20T19:40:49Z</time>
      </trkpt>
      <trkpt lat="62.633673402547" lon="17.987845821179">
        <ele>84</ele>
        <time>2018-02-20T19:40:50Z</time>
      </trkpt>
      <trkpt lat="62.633647837752" lon="17.987809108457">
        <ele>84.2</ele>
        <time>2018-02-20T19:40:51Z</time>
      </trkpt>
      <trkpt lat="62.633626380088" lon="17.987780861454">
        <ele>84.6</ele>
        <time>2018-02-20T19:40:52Z</time>
      </trkpt>
      <trkpt lat="62.633597294895" lon="17.98774766913">
        <ele>84.6</ele>
        <time>2018-02-20T19:40:53Z</time>
      </trkpt>
      <trkpt lat="62.633566868598" lon="17.987722774887">
        <ele>84.8</ele>
        <time>2018-02-20T19:40:54Z</time>
      </trkpt>
      <trkpt lat="62.633538453957" lon="17.987680027197">
        <ele>85.2</ele>
        <time>2018-02-20T19:40:55Z</time>
      </trkpt>
      <trkpt lat="62.633510374592" lon="17.987644068846">
        <ele>85.4</ele>
        <time>2018-02-20T19:40:56Z</time>
      </trkpt>
      <trkpt lat="62.633492269688" lon="17.987623197915">
        <ele>85.8</ele>
        <time>2018-02-20T19:40:57Z</time>
      </trkpt>
      <trkpt lat="62.633469638558" lon="17.98758506027">
        <ele>85.8</ele>
        <time>2018-02-20T19:40:58Z</time>
      </trkpt>
      <trkpt lat="62.633446755971" lon="17.987545246245">
        <ele>85.8</ele>
        <time>2018-02-20T19:40:59Z</time>
      </trkpt>
      <trkpt lat="62.633429908352" lon="17.987507024781">
        <ele>86</ele>
        <time>2018-02-20T19:41:00Z</time>
      </trkpt>
      <trkpt lat="62.633404846471" lon="17.987467126937">
        <ele>86.2</ele>
        <time>2018-02-20T19:41:01Z</time>
      </trkpt>
      <trkpt lat="62.633382885893" lon="17.987425720351">
        <ele>86.2</ele>
        <time>2018-02-20T19:41:02Z</time>
      </trkpt>
      <trkpt lat="62.633355728537" lon="17.987368891069">
        <ele>86.4</ele>
        <time>2018-02-20T19:41:03Z</time>
      </trkpt>
      <trkpt lat="62.633334103235" lon="17.987327484483">
        <ele>86.6</ele>
        <time>2018-02-20T19:41:04Z</time>
      </trkpt>
      <trkpt lat="62.633303006386" lon="17.987236708506">
        <ele>87</ele>
        <time>2018-02-20T19:41:05Z</time>
      </trkpt>
      <trkpt lat="62.633299485988" lon="17.987151799859">
        <ele>87</ele>
        <time>2018-02-20T19:41:06Z</time>
      </trkpt>
      <trkpt lat="62.633271490442" lon="17.987028418291">
        <ele>87.2</ele>
        <time>2018-02-20T19:41:07Z</time>
      </trkpt>
      <trkpt lat="62.633247685846" lon="17.986902186877">
        <ele>87.2</ele>
        <time>2018-02-20T19:41:08Z</time>
      </trkpt>
      <trkpt lat="62.63322974858" lon="17.986788360675">
        <ele>86.6</ele>
        <time>2018-02-20T19:41:09Z</time>
      </trkpt>
      <trkpt lat="62.633216924273" lon="17.986683251649">
        <ele>85.6</ele>
        <time>2018-02-20T19:41:10Z</time>
      </trkpt>
      <trkpt lat="62.633219271205" lon="17.986582668849">
        <ele>85</ele>
        <time>2018-02-20T19:41:11Z</time>
      </trkpt>
      <trkpt lat="62.633215080255" lon="17.986474290882">
        <ele>84.2</ele>
        <time>2018-02-20T19:41:12Z</time>
      </trkpt>
      <trkpt lat="62.633210973124" lon="17.986377060842">
        <ele>84</ele>
        <time>2018-02-20T19:41:13Z</time>
      </trkpt>
      <trkpt lat="62.633210302572" lon="17.986278238241">
        <ele>84</ele>
        <time>2018-02-20T19:41:14Z</time>
      </trkpt>
      <trkpt lat="62.633213990608" lon="17.98618193021">
        <ele>84.2</ele>
        <time>2018-02-20T19:41:15Z</time>
      </trkpt>
      <trkpt lat="62.633218265377" lon="17.986067349637">
        <ele>84.2</ele>
        <time>2018-02-20T19:41:16Z</time>
      </trkpt>
      <trkpt lat="62.633218349196" lon="17.985947907562">
        <ele>83.8</ele>
        <time>2018-02-20T19:41:17Z</time>
      </trkpt>
      <trkpt lat="62.633221115223" lon="17.98582402308">
        <ele>83.2</ele>
        <time>2018-02-20T19:41:18Z</time>
      </trkpt>
      <trkpt lat="62.633214744979" lon="17.985700557693">
        <ele>82.6</ele>
        <time>2018-02-20T19:41:19Z</time>
      </trkpt>
      <trkpt lat="62.633212230409" lon="17.985596957409">
        <ele>81.8</ele>
        <time>2018-02-20T19:41:20Z</time>
      </trkpt>
      <trkpt lat="62.633222875422" lon="17.985524202517">
        <ele>81.2</ele>
        <time>2018-02-20T19:41:21Z</time>
      </trkpt>
      <trkpt lat="62.633222121051" lon="17.985391852316">
        <ele>81.2</ele>
        <time>2018-02-20T19:41:22Z</time>
      </trkpt>
      <trkpt lat="62.633231257322" lon="17.985263776884">
        <ele>81.4</ele>
        <time>2018-02-20T19:41:23Z</time>
      </trkpt>
      <trkpt lat="62.633248021122" lon="17.985128995932">
        <ele>81.4</ele>
        <time>2018-02-20T19:41:24Z</time>
      </trkpt>
      <trkpt lat="62.633266042207" lon="17.984994047342">
        <ele>81.2</ele>
        <time>2018-02-20T19:41:25Z</time>
      </trkpt>
      <trkpt lat="62.633285488215" lon="17.98486429553">
        <ele>81</ele>
        <time>2018-02-20T19:41:26Z</time>
      </trkpt>
      <trkpt lat="62.633312058838" lon="17.984751391337">
        <ele>80.6</ele>
        <time>2018-02-20T19:41:27Z</time>
      </trkpt>
      <trkpt lat="62.633335444339" lon="17.984622561534">
        <ele>79.4</ele>
        <time>2018-02-20T19:41:28Z</time>
      </trkpt>
      <trkpt lat="62.633353213967" lon="17.984514602662">
        <ele>78.8</ele>
        <time>2018-02-20T19:41:29Z</time>
      </trkpt>
      <trkpt lat="62.633370061586" lon="17.984416450613">
        <ele>78.4</ele>
        <time>2018-02-20T19:41:30Z</time>
      </trkpt>
      <trkpt lat="62.633389339956" lon="17.984325674636">
        <ele>78.2</ele>
        <time>2018-02-20T19:41:31Z</time>
      </trkpt>
      <trkpt lat="62.633392692716" lon="17.98423481484">
        <ele>78</ele>
        <time>2018-02-20T19:41:32Z</time>
      </trkpt>
      <trkpt lat="62.633399649693" lon="17.984150660564">
        <ele>78.2</ele>
        <time>2018-02-20T19:41:33Z</time>
      </trkpt>
      <trkpt lat="62.633408366869" lon="17.984061141872">
        <ele>78.6</ele>
        <time>2018-02-20T19:41:34Z</time>
      </trkpt>
      <trkpt lat="62.633421777909" lon="17.983992242654">
        <ele>78.8</ele>
        <time>2018-02-20T19:41:35Z</time>
      </trkpt>
      <trkpt lat="62.633424543936" lon="17.983922924341">
        <ele>79.4</ele>
        <time>2018-02-20T19:41:36Z</time>
      </trkpt>
      <trkpt lat="62.63342672323" lon="17.983843128653">
        <ele>79.8</ele>
        <time>2018-02-20T19:41:37Z</time>
      </trkpt>
      <trkpt lat="62.633438206433" lon="17.983773726521">
        <ele>79.8</ele>
        <time>2018-02-20T19:41:38Z</time>
      </trkpt>
      <trkpt lat="62.633456395156" lon="17.983707844787">
        <ele>80</ele>
        <time>2018-02-20T19:41:39Z</time>
      </trkpt>
      <trkpt lat="62.63346779454" lon="17.983624361063">
        <ele>79.8</ele>
        <time>2018-02-20T19:41:40Z</time>
      </trkpt>
      <trkpt lat="62.63348539653" lon="17.983556886768">
        <ele>79.8</ele>
        <time>2018-02-20T19:41:41Z</time>
      </trkpt>
      <trkpt lat="62.63348623472" lon="17.983492094681">
        <ele>79.6</ele>
        <time>2018-02-20T19:41:42Z</time>
      </trkpt>
      <trkpt lat="62.633498137018" lon="17.983425877671">
        <ele>79.6</ele>
        <time>2018-02-20T19:41:43Z</time>
      </trkpt>
      <trkpt lat="62.633511631877" lon="17.983348931829">
        <ele>79.4</ele>
        <time>2018-02-20T19:41:44Z</time>
      </trkpt>
      <trkpt lat="62.633521187243" lon="17.98327676367">
        <ele>79.4</ele>
        <time>2018-02-20T19:41:45Z</time>
      </trkpt>
      <trkpt lat="62.633531664618" lon="17.983211552488">
        <ele>79.4</ele>
        <time>2018-02-20T19:41:46Z</time>
      </trkpt>
      <trkpt lat="62.633556139766" lon="17.983152376274">
        <ele>79.6</ele>
        <time>2018-02-20T19:41:47Z</time>
      </trkpt>
      <trkpt lat="62.633578938534" lon="17.983083896151">
        <ele>79.6</ele>
        <time>2018-02-20T19:41:48Z</time>
      </trkpt>
      <trkpt lat="62.633598887456" lon="17.983009632517">
        <ele>79.6</ele>
        <time>2018-02-20T19:41:49Z</time>
      </trkpt>
      <trkpt lat="62.63362034512" lon="17.982946013896">
        <ele>79.6</ele>
        <time>2018-02-20T19:41:50Z</time>
      </trkpt>
      <trkpt lat="62.633627218278" lon="17.982886670044">
        <ele>79.6</ele>
        <time>2018-02-20T19:41:51Z</time>
      </trkpt>
      <trkpt lat="62.633641970422" lon="17.982807796365">
        <ele>79.8</ele>
        <time>2018-02-20T19:41:52Z</time>
      </trkpt>
      <trkpt lat="62.633652866892" lon="17.982737136948">
        <ele>79.8</ele>
        <time>2018-02-20T19:41:53Z</time>
      </trkpt>
      <trkpt lat="62.63366979833" lon="17.982673183051">
        <ele>79.8</ele>
        <time>2018-02-20T19:41:54Z</time>
      </trkpt>
      <trkpt lat="62.633681281533" lon="17.982603780919">
        <ele>79.8</ele>
        <time>2018-02-20T19:41:55Z</time>
      </trkpt>
      <trkpt lat="62.6336890767" lon="17.982536138986">
        <ele>79.8</ele>
        <time>2018-02-20T19:41:56Z</time>
      </trkpt>
      <trkpt lat="62.633696285134" lon="17.982458606411">
        <ele>79.8</ele>
        <time>2018-02-20T19:41:57Z</time>
      </trkpt>
      <trkpt lat="62.633720257368" lon="17.98238157675">
        <ele>79.6</ele>
        <time>2018-02-20T19:41:58Z</time>
      </trkpt>
      <trkpt lat="62.633742301765" lon="17.982329860427">
        <ele>79.8</ele>
        <time>2018-02-20T19:41:59Z</time>
      </trkpt>
      <trkpt lat="62.633757221547" lon="17.982241515201">
        <ele>79.6</ele>
        <time>2018-02-20T19:42:00Z</time>
      </trkpt>
      <trkpt lat="62.63377457208" lon="17.98215023631">
        <ele>79.8</ele>
        <time>2018-02-20T19:42:01Z</time>
      </trkpt>
      <trkpt lat="62.633776332279" lon="17.98209994491">
        <ele>79.6</ele>
        <time>2018-02-20T19:42:02Z</time>
      </trkpt>
      <trkpt lat="62.633769962035" lon="17.982024843086">
        <ele>79.6</ele>
        <time>2018-02-20T19:42:03Z</time>
      </trkpt>
      <trkpt lat="62.633780355591" lon="17.981953513117">
        <ele>79.6</ele>
        <time>2018-02-20T19:42:04Z</time>
      </trkpt>
      <trkpt lat="62.633770464949" lon="17.981865167891">
        <ele>79.6</ele>
        <time>2018-02-20T19:42:05Z</time>
      </trkpt>
      <trkpt lat="62.633762418325" lon="17.981823677486">
        <ele>79.6</ele>
        <time>2018-02-20T19:42:06Z</time>
      </trkpt>
      <trkpt lat="62.633746576534" lon="17.98174287597">
        <ele>79.8</ele>
        <time>2018-02-20T19:42:07Z</time>
      </trkpt>
      <trkpt lat="62.633766273999" lon="17.98166240973">
        <ele>79.8</ele>
        <time>2018-02-20T19:42:08Z</time>
      </trkpt>
      <trkpt lat="62.633769459121" lon="17.981590493028">
        <ele>79.8</ele>
        <time>2018-02-20T19:42:09Z</time>
      </trkpt>
      <trkpt lat="62.633755377529" lon="17.981524276018">
        <ele>80</ele>
        <time>2018-02-20T19:42:10Z</time>
      </trkpt>
      <trkpt lat="62.633771638415" lon="17.98147549336">
        <ele>80</ele>
        <time>2018-02-20T19:42:11Z</time>
      </trkpt>
      <trkpt lat="62.633805333653" lon="17.981410617454">
        <ele>80.2</ele>
        <time>2018-02-20T19:42:12Z</time>
      </trkpt>
      <trkpt lat="62.633824612023" lon="17.981329732119">
        <ele>80.2</ele>
        <time>2018-02-20T19:42:13Z</time>
      </trkpt>
      <trkpt lat="62.633842633108" lon="17.981265442946">
        <ele>80.2</ele>
        <time>2018-02-20T19:42:14Z</time>
      </trkpt>
      <trkpt lat="62.633858642537" lon="17.981202411058">
        <ele>80.4</ele>
        <time>2018-02-20T19:42:15Z</time>
      </trkpt>
      <trkpt lat="62.633882279495" lon="17.981157651712">
        <ele>80.4</ele>
        <time>2018-02-20T19:42:16Z</time>
      </trkpt>
      <trkpt lat="62.633886470445" lon="17.981097721127">
        <ele>80.4</ele>
        <time>2018-02-20T19:42:17Z</time>
      </trkpt>
      <trkpt lat="62.633896612544" lon="17.981047848822">
        <ele>80.6</ele>
        <time>2018-02-20T19:42:18Z</time>
      </trkpt>
      <trkpt lat="62.633920920054" lon="17.980996300137">
        <ele>80.6</ele>
        <time>2018-02-20T19:42:19Z</time>
      </trkpt>
      <trkpt lat="62.633933325266" lon="17.980941817787">
        <ele>80.8</ele>
        <time>2018-02-20T19:42:20Z</time>
      </trkpt>
      <trkpt lat="62.63394807741" lon="17.980876606605">
        <ele>81</ele>
        <time>2018-02-20T19:42:21Z</time>
      </trkpt>
      <trkpt lat="62.633968948341" lon="17.980837211675">
        <ele>81.2</ele>
        <time>2018-02-20T19:42:22Z</time>
      </trkpt>
      <trkpt lat="62.633993674946" lon="17.9807596791">
        <ele>81.2</ele>
        <time>2018-02-20T19:42:23Z</time>
      </trkpt>
      <trkpt lat="62.634005241968" lon="17.980697066307">
        <ele>81.2</ele>
        <time>2018-02-20T19:42:24Z</time>
      </trkpt>
      <trkpt lat="62.63401848537" lon="17.980635124066">
        <ele>81.2</ele>
        <time>2018-02-20T19:42:25Z</time>
      </trkpt>
      <trkpt lat="62.634034913894" lon="17.980574103834">
        <ele>81.4</ele>
        <time>2018-02-20T19:42:26Z</time>
      </trkpt>
      <trkpt lat="62.634049079305" lon="17.980526746099">
        <ele>81.2</ele>
        <time>2018-02-20T19:42:27Z</time>
      </trkpt>
      <trkpt lat="62.634072380987" lon="17.980466061143">
        <ele>81.4</ele>
        <time>2018-02-20T19:42:28Z</time>
      </trkpt>
      <trkpt lat="62.63409895161" lon="17.980418284313">
        <ele>81.4</ele>
        <time>2018-02-20T19:42:29Z</time>
      </trkpt>
      <trkpt lat="62.634131473382" lon="17.980365645981">
        <ele>81.6</ele>
        <time>2018-02-20T19:42:30Z</time>
      </trkpt>
      <trkpt lat="62.634163073145" lon="17.980313929658">
        <ele>81.6</ele>
        <time>2018-02-20T19:42:31Z</time>
      </trkpt>
      <trkpt lat="62.634199199134" lon="17.980241510042">
        <ele>81.8</ele>
        <time>2018-02-20T19:42:32Z</time>
      </trkpt>
      <trkpt lat="62.634224344834" lon="17.980192727384">
        <ele>81.8</ele>
        <time>2018-02-20T19:42:33Z</time>
      </trkpt>
      <trkpt lat="62.63425736952" lon="17.980125001632">
        <ele>81.8</ele>
        <time>2018-02-20T19:42:34Z</time>
      </trkpt>
      <trkpt lat="62.634283269591" lon="17.980083008313">
        <ele>81.6</ele>
        <time>2018-02-20T19:42:35Z</time>
      </trkpt>
      <trkpt lat="62.634296429174" lon="17.980006481566">
        <ele>81.6</ele>
        <time>2018-02-20T19:42:36Z</time>
      </trkpt>
      <trkpt lat="62.634313444431" lon="17.979935403054">
        <ele>81.4</ele>
        <time>2018-02-20T19:42:37Z</time>
      </trkpt>
      <trkpt lat="62.634336327018" lon="17.979859546859">
        <ele>81.2</ele>
        <time>2018-02-20T19:42:38Z</time>
      </trkpt>
      <trkpt lat="62.634356695035" lon="17.979793832763">
        <ele>81.2</ele>
        <time>2018-02-20T19:42:39Z</time>
      </trkpt>
      <trkpt lat="62.63437136336" lon="17.979709343211">
        <ele>81.4</ele>
        <time>2018-02-20T19:42:40Z</time>
      </trkpt>
      <trkpt lat="62.634388630074" lon="17.979639941079">
        <ele>81.4</ele>
        <time>2018-02-20T19:42:41Z</time>
      </trkpt>
      <trkpt lat="62.634400113277" lon="17.97955603826">
        <ele>81.2</ele>
        <time>2018-02-20T19:42:42Z</time>
      </trkpt>
      <trkpt lat="62.634415452154" lon="17.979483199549">
        <ele>81.4</ele>
        <time>2018-02-20T19:42:43Z</time>
      </trkpt>
      <trkpt lat="62.634424085511" lon="17.979410779933">
        <ele>81.4</ele>
        <time>2018-02-20T19:42:44Z</time>
      </trkpt>
      <trkpt lat="62.63442752209" lon="17.979347077493">
        <ele>81.4</ele>
        <time>2018-02-20T19:42:45Z</time>
      </trkpt>
      <trkpt lat="62.63442836028" lon="17.979301982871">
        <ele>81.6</ele>
        <time>2018-02-20T19:42:46Z</time>
      </trkpt>
      <trkpt lat="62.634447806288" lon="17.979217577138">
        <ele>81.6</ele>
        <time>2018-02-20T19:42:47Z</time>
      </trkpt>
      <trkpt lat="62.634459038034" lon="17.979143984056">
        <ele>81.4</ele>
        <time>2018-02-20T19:42:48Z</time>
      </trkpt>
      <trkpt lat="62.634473119626" lon="17.979078186141">
        <ele>81.4</ele>
        <time>2018-02-20T19:42:49Z</time>
      </trkpt>
      <trkpt lat="62.634488374684" lon="17.979023033239">
        <ele>81.4</ele>
        <time>2018-02-20T19:42:50Z</time>
      </trkpt>
      <trkpt lat="62.634500360801" lon="17.978939298058">
        <ele>81.2</ele>
        <time>2018-02-20T19:42:51Z</time>
      </trkpt>
      <trkpt lat="62.634508323606" lon="17.978842068018">
        <ele>81.2</ele>
        <time>2018-02-20T19:42:52Z</time>
      </trkpt>
      <trkpt lat="62.634521315551" lon="17.978773839352">
        <ele>81.4</ele>
        <time>2018-02-20T19:42:53Z</time>
      </trkpt>
      <trkpt lat="62.634535983876" lon="17.978694043664">
        <ele>81.4</ele>
        <time>2018-02-20T19:42:54Z</time>
      </trkpt>
      <trkpt lat="62.634549981649" lon="17.978601507488">
        <ele>81.4</ele>
        <time>2018-02-20T19:42:55Z</time>
      </trkpt>
      <trkpt lat="62.634563141232" lon="17.97851165352">
        <ele>81.4</ele>
        <time>2018-02-20T19:42:56Z</time>
      </trkpt>
      <trkpt lat="62.634582168145" lon="17.978427750701">
        <ele>81.4</ele>
        <time>2018-02-20T19:42:57Z</time>
      </trkpt>
      <trkpt lat="62.634587029647" lon="17.978345272805">
        <ele>81.4</ele>
        <time>2018-02-20T19:42:58Z</time>
      </trkpt>
      <trkpt lat="62.634593902805" lon="17.978250054421">
        <ele>81.2</ele>
        <time>2018-02-20T19:42:59Z</time>
      </trkpt>
      <trkpt lat="62.634606391836" lon="17.978155255132">
        <ele>81</ele>
        <time>2018-02-20T19:43:00Z</time>
      </trkpt>
      <trkpt lat="62.634622233627" lon="17.978067664277">
        <ele>80.6</ele>
        <time>2018-02-20T19:43:01Z</time>
      </trkpt>
      <trkpt lat="62.63463706959" lon="17.977981330707">
        <ele>80.2</ele>
        <time>2018-02-20T19:43:02Z</time>
      </trkpt>
      <trkpt lat="62.634650564449" lon="17.977896170603">
        <ele>80</ele>
        <time>2018-02-20T19:43:03Z</time>
      </trkpt>
      <trkpt lat="62.634645367671" lon="17.977823750987">
        <ele>80</ele>
        <time>2018-02-20T19:43:04Z</time>
      </trkpt>
      <trkpt lat="62.634668166439" lon="17.977713445183">
        <ele>80</ele>
        <time>2018-02-20T19:43:05Z</time>
      </trkpt>
      <trkpt lat="62.634684427325" lon="17.977643540137">
        <ele>79.8</ele>
        <time>2018-02-20T19:43:06Z</time>
      </trkpt>
      <trkpt lat="62.634702029315" lon="17.977552931798">
        <ele>79.8</ele>
        <time>2018-02-20T19:43:07Z</time>
      </trkpt>
      <trkpt lat="62.634716530002" lon="17.977458216328">
        <ele>79.6</ele>
        <time>2018-02-20T19:43:08Z</time>
      </trkpt>
      <trkpt lat="62.634724995721" lon="17.977389736205">
        <ele>79.4</ele>
        <time>2018-02-20T19:43:09Z</time>
      </trkpt>
      <trkpt lat="62.634742262435" lon="17.977331482">
        <ele>79.4</ele>
        <time>2018-02-20T19:43:10Z</time>
      </trkpt>
      <trkpt lat="62.63475525438" lon="17.977265935542">
        <ele>79.4</ele>
        <time>2018-02-20T19:43:11Z</time>
      </trkpt>
      <trkpt lat="62.634776292949" lon="17.97717054952">
        <ele>79.4</ele>
        <time>2018-02-20T19:43:12Z</time>
      </trkpt>
      <trkpt lat="62.634792889111" lon="17.977093855135">
        <ele>79.4</ele>
        <time>2018-02-20T19:43:13Z</time>
      </trkpt>
      <trkpt lat="62.634795990414" lon="17.976997714742">
        <ele>79.4</ele>
        <time>2018-02-20T19:43:14Z</time>
      </trkpt>
      <trkpt lat="62.634808647083" lon="17.976915991217">
        <ele>79.4</ele>
        <time>2018-02-20T19:43:15Z</time>
      </trkpt>
      <trkpt lat="62.634821387571" lon="17.976844745067">
        <ele>79.2</ele>
        <time>2018-02-20T19:43:16Z</time>
      </trkpt>
      <trkpt lat="62.634830523842" lon="17.976763859732">
        <ele>79</ele>
        <time>2018-02-20T19:43:17Z</time>
      </trkpt>
      <trkpt lat="62.634838151371" lon="17.976663193113">
        <ele>79</ele>
        <time>2018-02-20T19:43:18Z</time>
      </trkpt>
      <trkpt lat="62.634861369234" lon="17.976589851488">
        <ele>78.8</ele>
        <time>2018-02-20T19:43:19Z</time>
      </trkpt>
      <trkpt lat="62.634882491622" lon="17.976514917302">
        <ele>78.8</ele>
        <time>2018-02-20T19:43:20Z</time>
      </trkpt>
      <trkpt lat="62.63489942306" lon="17.976423219316">
        <ele>78.6</ele>
        <time>2018-02-20T19:43:21Z</time>
      </trkpt>
      <trkpt lat="62.634923898208" lon="17.97636840169">
        <ele>78.6</ele>
        <time>2018-02-20T19:43:22Z</time>
      </trkpt>
      <trkpt lat="62.634960946206" lon="17.976243176104">
        <ele>78.6</ele>
        <time>2018-02-20T19:43:23Z</time>
      </trkpt>
      <trkpt lat="62.634985086078" lon="17.976157596905">
        <ele>78.4</ele>
        <time>2018-02-20T19:43:24Z</time>
      </trkpt>
      <trkpt lat="62.634999838222" lon="17.976048967481">
        <ele>78.4</ele>
        <time>2018-02-20T19:43:25Z</time>
      </trkpt>
      <trkpt lat="62.635030348338" lon="17.975965735214">
        <ele>78</ele>
        <time>2018-02-20T19:43:26Z</time>
      </trkpt>
      <trkpt lat="62.635045351939" lon="17.975893315598">
        <ele>77.8</ele>
        <time>2018-02-20T19:43:27Z</time>
      </trkpt>
      <trkpt lat="62.635058260065" lon="17.975777896835">
        <ele>77.6</ele>
        <time>2018-02-20T19:43:28Z</time>
      </trkpt>
      <trkpt lat="62.6350720902" lon="17.975689216333">
        <ele>77.6</ele>
        <time>2018-02-20T19:43:29Z</time>
      </trkpt>
      <trkpt lat="62.63507292839" lon="17.975608498636">
        <ele>77.2</ele>
        <time>2018-02-20T19:43:30Z</time>
      </trkpt>
      <trkpt lat="62.635081394109" lon="17.975491319674">
        <ele>77.2</ele>
        <time>2018-02-20T19:43:31Z</time>
      </trkpt>
      <trkpt lat="62.635080723557" lon="17.97540280681">
        <ele>77.2</ele>
        <time>2018-02-20T19:43:32Z</time>
      </trkpt>
      <trkpt lat="62.635084327774" lon="17.975291076083">
        <ele>77.2</ele>
        <time>2018-02-20T19:43:33Z</time>
      </trkpt>
      <trkpt lat="62.635074437132" lon="17.975199629554">
        <ele>77.2</ele>
        <time>2018-02-20T19:43:34Z</time>
      </trkpt>
      <trkpt lat="62.635058595341" lon="17.97508932375">
        <ele>77</ele>
        <time>2018-02-20T19:43:35Z</time>
      </trkpt>
      <trkpt lat="62.635031270347" lon="17.974996033203">
        <ele>76.8</ele>
        <time>2018-02-20T19:43:36Z</time>
      </trkpt>
      <trkpt lat="62.635002185154" lon="17.974934174781">
        <ele>76.8</ele>
        <time>2018-02-20T19:43:37Z</time>
      </trkpt>
      <trkpt lat="62.634979386386" lon="17.974853121808">
        <ele>76.4</ele>
        <time>2018-02-20T19:43:38Z</time>
      </trkpt>
      <trkpt lat="62.63493714161" lon="17.974767961704">
        <ele>76</ele>
        <time>2018-02-20T19:43:39Z</time>
      </trkpt>
      <trkpt lat="62.634898165775" lon="17.974686824912">
        <ele>75.4</ele>
        <time>2018-02-20T19:43:40Z</time>
      </trkpt>
      <trkpt lat="62.634891460255" lon="17.974623793024">
        <ele>75</ele>
        <time>2018-02-20T19:43:41Z</time>
      </trkpt>
      <trkpt lat="62.634870002591" lon="17.974530753934">
        <ele>74.4</ele>
        <time>2018-02-20T19:43:42Z</time>
      </trkpt>
      <trkpt lat="62.634853574067" lon="17.974437128111">
        <ele>74</ele>
        <time>2018-02-20T19:43:43Z</time>
      </trkpt>
      <trkpt lat="62.634835050068" lon="17.974346938867">
        <ele>74</ele>
        <time>2018-02-20T19:43:44Z</time>
      </trkpt>
      <trkpt lat="62.634830104747" lon="17.974274519251">
        <ele>74.2</ele>
        <time>2018-02-20T19:43:45Z</time>
      </trkpt>
      <trkpt lat="62.634829098919" lon="17.974196148486">
        <ele>74</ele>
        <time>2018-02-20T19:43:46Z</time>
      </trkpt>
      <trkpt lat="62.634815184965" lon="17.974108725269">
        <ele>74</ele>
        <time>2018-02-20T19:43:47Z</time>
      </trkpt>
      <trkpt lat="62.634795319862" lon="17.974010992315">
        <ele>74.2</ele>
        <time>2018-02-20T19:43:48Z</time>
      </trkpt>
      <trkpt lat="62.634771766723" lon="17.973939075613">
        <ele>74.2</ele>
        <time>2018-02-20T19:43:49Z</time>
      </trkpt>
      <trkpt lat="62.634751817801" lon="17.973871098404">
        <ele>74</ele>
        <time>2018-02-20T19:43:50Z</time>
      </trkpt>
      <trkpt lat="62.634733042345" lon="17.973812089828">
        <ele>74</ele>
        <time>2018-02-20T19:43:51Z</time>
      </trkpt>
      <trkpt lat="62.634722900246" lon="17.973724582792">
        <ele>74</ele>
        <time>2018-02-20T19:43:52Z</time>
      </trkpt>
      <trkpt lat="62.634698341279" lon="17.97361746211">
        <ele>74</ele>
        <time>2018-02-20T19:43:53Z</time>
      </trkpt>
      <trkpt lat="62.634689372646" lon="17.973537750241">
        <ele>73.8</ele>
        <time>2018-02-20T19:43:54Z</time>
      </trkpt>
      <trkpt lat="62.634686438981" lon="17.973442028943">
        <ele>73.6</ele>
        <time>2018-02-20T19:43:55Z</time>
      </trkpt>
      <trkpt lat="62.634683253859" lon="17.973346475283">
        <ele>73.4</ele>
        <time>2018-02-20T19:43:56Z</time>
      </trkpt>
      <trkpt lat="62.634695659071" lon="17.973243964646">
        <ele>73.4</ele>
        <time>2018-02-20T19:43:57Z</time>
      </trkpt>
      <trkpt lat="62.634719882762" lon="17.973134329394">
        <ele>73.2</ele>
        <time>2018-02-20T19:43:58Z</time>
      </trkpt>
      <trkpt lat="62.634741256607" lon="17.973040200657">
        <ele>73</ele>
        <time>2018-02-20T19:43:59Z</time>
      </trkpt>
      <trkpt lat="62.63476531266" lon="17.972944227902">
        <ele>72.8</ele>
        <time>2018-02-20T19:44:00Z</time>
      </trkpt>
      <trkpt lat="62.634789955446" lon="17.972863845481">
        <ele>72.6</ele>
        <time>2018-02-20T19:44:01Z</time>
      </trkpt>
      <trkpt lat="62.634811916024" lon="17.972790671494">
        <ele>72.6</ele>
        <time>2018-02-20T19:44:02Z</time>
      </trkpt>
      <trkpt lat="62.634840498303" lon="17.972729986538">
        <ele>72.4</ele>
        <time>2018-02-20T19:44:03Z</time>
      </trkpt>
      <trkpt lat="62.634870589324" lon="17.972613897223">
        <ele>72.4</ele>
        <time>2018-02-20T19:44:04Z</time>
      </trkpt>
      <trkpt lat="62.634900009793" lon="17.972524210893">
        <ele>72.4</ele>
        <time>2018-02-20T19:44:05Z</time>
      </trkpt>
      <trkpt lat="62.634931693375" lon="17.972453886752">
        <ele>72.6</ele>
        <time>2018-02-20T19:44:06Z</time>
      </trkpt>
      <trkpt lat="62.634963376957" lon="17.972341988387">
        <ele>72.2</ele>
        <time>2018-02-20T19:44:07Z</time>
      </trkpt>
      <trkpt lat="62.634995647272" lon="17.972252302057">
        <ele>72</ele>
        <time>2018-02-20T19:44:08Z</time>
      </trkpt>
      <trkpt lat="62.635031773261" lon="17.972179798622">
        <ele>72</ele>
        <time>2018-02-20T19:44:09Z</time>
      </trkpt>
      <trkpt lat="62.635057421875" lon="17.972032696277">
        <ele>71.8</ele>
        <time>2018-02-20T19:44:10Z</time>
      </trkpt>
      <trkpt lat="62.635079298634" lon="17.971908979433">
        <ele>71</ele>
        <time>2018-02-20T19:44:11Z</time>
      </trkpt>
      <trkpt lat="62.635090949475" lon="17.971770845721">
        <ele>70.2</ele>
        <time>2018-02-20T19:44:12Z</time>
      </trkpt>
      <trkpt lat="62.635104192877" lon="17.971622989005">
        <ele>69</ele>
        <time>2018-02-20T19:44:13Z</time>
      </trkpt>
      <trkpt lat="62.63511902884" lon="17.971489465338">
        <ele>68</ele>
        <time>2018-02-20T19:44:14Z</time>
      </trkpt>
      <trkpt lat="62.63513411626" lon="17.971363988295">
        <ele>67.4</ele>
        <time>2018-02-20T19:44:15Z</time>
      </trkpt>
      <trkpt lat="62.635151969707" lon="17.971236751053">
        <ele>66.8</ele>
        <time>2018-02-20T19:44:16Z</time>
      </trkpt>
      <trkpt lat="62.635168817326" lon="17.971086798862">
        <ele>66.6</ele>
        <time>2018-02-20T19:44:17Z</time>
      </trkpt>
      <trkpt lat="62.635182647461" lon="17.970958974887">
        <ele>66.2</ele>
        <time>2018-02-20T19:44:18Z</time>
      </trkpt>
      <trkpt lat="62.635198573071" lon="17.970827881971">
        <ele>65.8</ele>
        <time>2018-02-20T19:44:19Z</time>
      </trkpt>
      <trkpt lat="62.63521709707" lon="17.970696537598">
        <ele>65.4</ele>
        <time>2018-02-20T19:44:20Z</time>
      </trkpt>
      <trkpt lat="62.635232519766" lon="17.97056561232">
        <ele>64.8</ele>
        <time>2018-02-20T19:44:21Z</time>
      </trkpt>
      <trkpt lat="62.63524894829" lon="17.970422533287">
        <ele>64.4</ele>
        <time>2018-02-20T19:44:22Z</time>
      </trkpt>
      <trkpt lat="62.635264287167" lon="17.970296888606">
        <ele>64</ele>
        <time>2018-02-20T19:44:23Z</time>
      </trkpt>
      <trkpt lat="62.635284655184" lon="17.97017082483">
        <ele>63.6</ele>
        <time>2018-02-20T19:44:24Z</time>
      </trkpt>
      <trkpt lat="62.63532103263" lon="17.97004677271">
        <ele>63.2</ele>
        <time>2018-02-20T19:44:25Z</time>
      </trkpt>
      <trkpt lat="62.635349950185" lon="17.969918194364">
        <ele>62.8</ele>
        <time>2018-02-20T19:44:26Z</time>
      </trkpt>
      <trkpt lat="62.635377107541" lon="17.969796572995">
        <ele>62.2</ele>
        <time>2018-02-20T19:44:27Z</time>
      </trkpt>
      <trkpt lat="62.635408036752" lon="17.969688530304">
        <ele>62</ele>
        <time>2018-02-20T19:44:28Z</time>
      </trkpt>
      <trkpt lat="62.635445839121" lon="17.969534554801">
        <ele>61.4</ele>
        <time>2018-02-20T19:44:29Z</time>
      </trkpt>
      <trkpt lat="62.635481462196" lon="17.969397091641">
        <ele>60.6</ele>
        <time>2018-02-20T19:44:30Z</time>
      </trkpt>
      <trkpt lat="62.635514905977" lon="17.96926893239">
        <ele>60.2</ele>
        <time>2018-02-20T19:44:31Z</time>
      </trkpt>
      <trkpt lat="62.635553462717" lon="17.969130882497">
        <ele>59.6</ele>
        <time>2018-02-20T19:44:32Z</time>
      </trkpt>
      <trkpt lat="62.635592019457" lon="17.969007836205">
        <ele>59.2</ele>
        <time>2018-02-20T19:44:33Z</time>
      </trkpt>
      <trkpt lat="62.635636862622" lon="17.968885544284">
        <ele>58.2</ele>
        <time>2018-02-20T19:44:34Z</time>
      </trkpt>
      <trkpt lat="62.635684220357" lon="17.96877104753">
        <ele>57.6</ele>
        <time>2018-02-20T19:44:35Z</time>
      </trkpt>
      <trkpt lat="62.635731578092" lon="17.968665854685">
        <ele>57.2</ele>
        <time>2018-02-20T19:44:36Z</time>
      </trkpt>
      <trkpt lat="62.635794190885" lon="17.968597374562">
        <ele>56.4</ele>
        <time>2018-02-20T19:44:37Z</time>
      </trkpt>
      <trkpt lat="62.635856216945" lon="17.968551693207">
        <ele>56</ele>
        <time>2018-02-20T19:44:38Z</time>
      </trkpt>
      <trkpt lat="62.6359186621" lon="17.968522188919">
        <ele>55.8</ele>
        <time>2018-02-20T19:44:39Z</time>
      </trkpt>
      <trkpt lat="62.635971384251" lon="17.968520847815">
        <ele>55.2</ele>
        <time>2018-02-20T19:44:40Z</time>
      </trkpt>
      <trkpt lat="62.636022849117" lon="17.968517578874">
        <ele>54.8</ele>
        <time>2018-02-20T19:44:41Z</time>
      </trkpt>
      <trkpt lat="62.636098202398" lon="17.968526882783">
        <ele>54.6</ele>
        <time>2018-02-20T19:44:43Z</time>
      </trkpt>
      <trkpt lat="62.636137345871" lon="17.968545490601">
        <ele>54.6</ele>
        <time>2018-02-20T19:44:44Z</time>
      </trkpt>
    </trkseg>
  </trk>
</gpx>